GFSFLT2_sfc_wetblb_000.txt.gz
Wetbulb
67.22 67.85 68.48 68.80 68.39 68.62 68.57 68.63 68.63 68.14 67.75 67.40 67.06 66.67 66.13 65.19 64.75 64.09 63.62 63.23 62.94 62.42 62.17 61.70 61.79 62.46 63.10 63.76 63.70 64.10 62.70 63.07
66.82 67.19 67.15 66.80 67.02 67.61 68.08 68.10 67.80 67.59 67.14 66.87 67.01 66.47 66.03 65.15 64.92 63.76 62.83 62.28 61.95 61.41 61.12 60.88 61.03 61.45 62.49 62.89 62.45 62.76 60.60 62.36
66.92 66.84 67.37 68.01 66.69 66.67 67.30 67.68 67.57 67.12 67.15 66.35 65.53 66.31 65.44 64.28 63.93 64.40 63.60 63.00 62.46 61.70 61.05 60.60 61.08 61.57 62.44 62.76 62.66 59.20 61.05 59.99
67.84 67.37 67.30 66.36 65.40 65.98 67.25 66.82 66.89 67.16 66.84 66.70 66.69 65.84 65.22 64.99 64.88 64.41 64.27 64.16 63.74 63.04 62.21 62.02 61.69 59.23 58.64 61.52 59.71 59.57 58.60 58.29
67.69 68.40 68.11 67.28 65.67 65.69 65.79 65.81 65.85 67.15 67.19 66.15 66.05 65.53 66.24 65.17 64.87 64.01 63.85 63.63 63.44 61.89 61.15 59.96 60.43 58.69 56.61 56.85 57.04 57.09 56.77 57.34
67.90 68.12 67.97 66.88 66.65 65.07 65.84 65.17 65.30 64.96 65.48 66.03 65.48 64.46 64.16 62.92 62.10 60.78 60.21 59.97 59.93 60.22 59.38 60.01 59.39 57.96 55.37 54.80 55.36 55.52 53.76 53.94
66.74 67.68 67.25 67.76 65.97 66.95 66.48 65.64 65.64 64.78 65.05 65.15 64.47 63.26 63.01 62.59 61.04 60.16 59.55 59.22 58.65 58.39 57.91 57.82 57.39 56.18 54.72 53.60 54.00 54.24 54.38 54.21
67.52 67.77 67.26 66.03 65.27 65.63 66.30 65.72 64.79 65.05 63.42 62.16 63.04 62.53 62.02 61.39 60.17 60.04 59.16 58.97 58.58 57.64 57.21 57.62 57.25 56.13 54.43 54.26 53.51 53.76 53.46 54.17
66.36 66.28 64.45 64.37 64.62 65.07 64.91 62.24 61.53 61.81 61.91 62.02 61.72 61.83 61.07 61.40 60.20 59.93 59.90 60.13 59.11 58.72 58.63 57.77 57.45 57.20 55.23 54.66 53.84 54.20 53.84 53.65
63.08 66.82 64.88 63.40 64.38 62.78 62.99 63.17 62.27 61.96 62.22 61.86 61.73 61.81 61.41 60.42 59.90 59.62 60.32 60.69 59.17 58.43 57.56 56.37 55.94 55.71 55.11 54.83 53.23 53.34 53.60 53.58
65.08 63.88 63.21 62.35 62.82 62.50 62.51 62.41 61.47 60.72 59.77 60.30 60.05 59.81 60.96 59.55 58.63 59.36 60.04 58.70 58.14 58.32 57.01 56.36 55.49 55.28 55.65 54.60 54.30 52.83 52.55 54.67
64.77 63.21 61.64 62.29 62.41 61.98 60.55 59.89 60.04 59.93 59.43 58.51 59.22 58.43 58.90 58.47 57.61 58.22 59.52 57.31 56.34 56.65 56.79 55.83 55.50 55.38 56.81 56.33 55.02 55.29 54.70 52.38
63.27 62.28 62.31 61.49 60.80 58.30 56.90 55.88 57.08 57.57 57.59 57.87 57.41 57.68 57.03 56.26 55.62 55.83 55.07 54.38 54.36 54.50 53.76 52.62 53.12 54.15 53.90 53.60 53.60 54.54 55.16 55.12
60.77 60.14 59.18 58.09 57.45 57.31 57.03 56.70 56.36 56.45 57.18 56.55 57.16 56.08 55.63 54.40 54.37 53.77 53.51 52.55 52.07 52.70 53.06 51.33 50.83 51.66 50.50 50.21 46.77 49.01 51.37 53.01
57.60 56.88 56.31 56.43 57.41 56.12 55.47 55.37 54.45 53.84 53.88 54.09 54.70 54.98 54.71 54.02 53.45 53.52 52.73 51.41 49.84 50.04 50.45 49.42 48.07 48.76 49.26 47.33 43.98 42.98 46.79 49.70
56.90 56.80 55.98 55.80 55.80 54.97 53.64 52.39 52.15 54.13 54.62 53.90 53.92 53.50 53.12 52.38 51.93 51.76 51.20 50.67 49.23 49.61 50.00 49.06 47.82 45.69 47.10 49.19 46.09 44.18 41.77 41.93
57.47 56.48 55.96 55.64 54.58 53.92 53.12 53.66 53.00 52.99 52.24 51.94 51.49 51.80 51.26 51.03 50.18 48.92 49.45 48.77 48.78 49.00 47.83 47.33 47.24 45.22 44.16 42.99 42.03 41.94 41.94 38.87
56.37 55.32 54.91 55.20 54.67 54.46 52.79 51.24 50.75 49.99 50.01 49.10 47.87 47.97 48.07 48.92 49.25 48.44 48.61 48.08 47.28 47.35 47.23 45.77 43.52 43.29 43.58 42.64 40.57 40.24 39.11 38.00
55.87 55.46 54.56 55.00 53.73 52.67 52.28 51.59 51.20 49.75 48.31 46.80 45.94 45.60 46.02 46.10 47.42 47.07 46.67 46.65 47.01 47.16 46.16 45.43 42.82 41.26 40.94 41.11 40.88 39.39 39.41 39.07
55.95 54.68 53.73 54.06 53.96 52.76 52.66 51.42 49.21 48.47 47.37 45.92 45.34 45.31 45.47 46.32 46.63 46.50 45.94 44.92 44.23 44.18 42.72 43.05 42.16 42.35 42.11 41.70 39.94 39.15 39.92 39.29

GFSFLT2_sfc_wetblb_003.txt.gz
Wetbulb
67.56 68.78 68.85 68.17 67.74 67.95 67.99 68.42 68.17 68.07 67.85 67.82 67.48 66.74 66.19 66.01 65.27 64.19 63.48 62.88 62.55 62.10 62.07 62.05 62.15 62.48 63.73 63.68 62.95 63.24 61.30 60.79
65.47 65.71 66.02 65.32 66.47 67.03 67.21 67.38 67.07 66.88 67.00 66.86 66.43 66.00 65.30 65.57 64.90 64.60 64.00 63.21 62.37 62.04 62.01 61.86 61.65 62.60 62.66 62.84 62.87 63.20 58.10 59.44
64.19 64.29 64.35 64.21 64.92 66.70 67.05 67.46 66.77 66.37 66.39 66.16 65.22 64.73 64.03 63.63 63.78 64.00 64.37 63.96 63.71 63.43 63.13 62.65 62.03 61.70 61.86 62.43 62.54 59.92 58.09 59.15
62.89 62.89 64.61 63.88 65.47 64.71 64.61 65.82 65.78 65.44 65.24 64.60 64.07 63.86 63.27 63.18 63.38 63.95 64.09 63.99 64.22 64.00 63.68 62.84 61.95 58.37 56.43 59.68 58.44 58.47 56.98 57.00
63.45 62.88 62.40 61.58 62.87 63.13 63.99 63.83 64.06 64.40 63.96 62.86 63.20 62.14 62.32 61.73 61.87 62.60 61.34 63.51 62.00 62.56 61.44 59.99 58.63 57.65 55.93 52.75 53.21 53.12 53.23 53.35
63.70 63.53 62.51 61.64 59.83 59.69 59.93 61.75 61.63 62.93 63.61 62.91 61.82 60.59 58.65 58.36 57.17 57.54 58.53 60.15 59.84 59.29 58.19 57.79 57.50 57.59 55.40 51.87 51.26 51.24 52.24 51.40
63.61 63.37 62.57 62.09 60.98 60.91 61.02 61.21 61.01 60.58 61.73 61.84 60.71 59.23 57.99 57.87 57.49 56.39 55.88 55.59 55.12 55.49 55.51 55.65 55.84 55.20 53.52 51.57 50.51 50.74 51.35 51.41
63.56 62.94 63.75 63.28 60.52 61.33 61.20 60.11 60.03 60.91 59.22 59.32 60.21 58.50 58.21 57.68 56.41 57.02 56.05 56.12 55.91 55.08 54.50 54.41 54.78 55.05 54.00 52.43 50.54 50.12 51.13 51.49
63.31 65.04 64.64 60.88 60.27 60.75 61.32 56.46 57.74 57.06 57.64 57.65 58.18 57.95 57.07 57.04 56.47 56.84 57.15 57.23 56.81 55.64 55.45 55.41 54.75 55.93 54.30 53.15 52.08 51.20 51.22 51.55
63.52 63.53 63.53 61.01 59.31 58.31 58.41 57.81 57.01 57.25 56.98 57.17 57.22 57.56 57.02 55.81 55.03 55.05 56.58 56.90 56.21 55.07 54.70 54.48 53.91 53.21 53.76 54.23 52.32 51.38 51.15 51.56
61.11 59.38 60.67 59.89 57.95 57.35 57.51 57.02 56.47 55.42 54.67 54.69 54.70 56.32 56.37 54.78 55.03 54.63 55.27 55.72 54.81 54.61 54.50 53.93 53.31 52.91 53.38 53.32 52.30 51.69 50.86 52.90
60.34 59.83 59.19 56.80 56.92 55.85 54.66 53.44 53.33 53.15 52.32 52.16 52.82 54.30 54.15 53.01 52.67 53.01 52.51 52.21 51.43 51.66 50.80 51.33 50.84 51.41 53.94 54.32 52.99 53.86 53.19 51.43
56.47 55.90 53.77 54.49 52.79 52.30 51.60 50.28 50.86 50.91 51.59 53.05 52.85 52.44 52.95 51.56 50.94 51.62 50.77 49.91 49.20 49.54 49.95 49.52 49.52 50.01 48.00 49.39 49.39 50.98 50.62 51.43
53.09 52.98 52.56 52.60 52.20 51.55 51.30 50.69 50.88 50.65 51.06 51.57 52.73 52.23 51.51 51.48 50.06 50.09 49.40 48.77 47.71 47.28 47.23 47.18 46.64 47.64 45.63 45.55 43.12 46.17 47.50 49.54
51.40 51.06 51.09 51.41 51.63 50.48 49.85 49.09 49.11 49.65 50.84 50.96 51.49 51.84 50.56 49.57 48.90 48.29 47.69 47.93 46.43 45.97 46.69 45.57 44.50 45.55 45.80 44.54 41.00 39.34 42.16 45.65
50.74 51.11 50.89 51.33 50.23 48.95 47.82 47.71 48.16 49.63 49.04 48.83 49.72 48.98 48.46 48.97 47.80 46.68 46.87 46.38 45.67 45.93 47.78 45.05 44.87 43.24 44.51 45.76 43.20 41.15 38.02 36.83
49.53 50.26 50.63 50.70 49.12 48.55 48.47 47.21 47.28 47.67 47.61 45.72 45.05 45.69 46.42 46.93 46.65 45.27 45.58 45.53 44.40 44.33 44.30 43.42 43.40 42.36 42.05 41.33 40.19 39.51 41.97 39.18
49.31 49.10 49.62 49.74 49.10 48.57 48.28 46.11 45.67 45.27 43.57 42.65 42.99 43.38 44.56 44.91 45.74 44.57 44.93 43.94 43.41 42.99 43.57 42.21 41.35 42.84 43.40 42.60 41.69 39.33 36.75 35.43
49.07 49.84 49.75 49.18 48.42 47.48 46.53 45.73 44.31 42.78 41.78 41.13 41.62 42.56 42.66 43.26 43.35 42.79 42.33 42.24 42.38 41.83 41.04 40.64 40.34 38.92 38.47 38.46 38.58 37.97 38.48 37.85
49.69 50.17 50.26 50.43 48.23 46.45 45.37 45.13 43.99 43.29 43.92 43.41 43.22 42.09 41.88 43.14 42.21 42.13 42.02 41.83 40.82 39.96 39.22 39.24 40.16 38.98 38.84 39.15 38.65 39.36 37.54 36.96

GFSFLT2_sfc_wetblb_006.txt.gz
Wetbulb
69.04 69.13 69.17 68.36 67.80 67.59 67.68 68.27 68.15 68.01 67.97 67.57 66.89 66.23 66.13 65.68 64.93 63.95 63.20 62.45 61.96 61.89 62.04 61.99 61.91 61.92 62.51 62.25 62.17 62.92 59.93 57.78
65.56 65.81 66.13 65.70 66.09 66.79 66.74 66.70 66.51 66.71 66.87 66.24 65.57 65.14 65.41 65.50 64.92 64.64 64.31 63.55 62.99 62.95 63.11 62.66 61.83 62.12 62.07 62.24 62.00 62.04 57.98 57.23
63.67 63.74 63.78 64.09 64.32 66.01 66.76 66.78 66.17 65.75 65.79 65.68 64.34 63.25 62.28 62.76 63.71 63.46 64.56 63.83 63.59 63.82 63.86 63.20 62.00 61.77 61.80 61.85 62.04 58.40 57.52 57.27
62.47 62.33 62.42 63.13 65.34 64.75 63.96 65.01 64.30 64.07 64.10 63.65 63.30 62.80 62.44 62.60 62.96 64.08 64.07 63.74 63.85 64.21 63.97 63.82 62.57 57.75 57.44 58.02 53.66 55.18 55.04 54.21
62.50 63.28 62.90 61.65 62.25 62.35 62.38 63.09 62.94 63.24 63.55 63.15 62.47 63.03 60.83 61.97 60.31 60.77 60.64 61.95 60.74 61.55 60.95 59.74 58.69 57.31 56.90 54.31 51.53 50.87 50.40 51.94
61.89 62.19 62.37 59.77 61.11 62.05 62.07 62.25 62.71 62.71 62.73 61.87 60.38 59.67 57.40 57.09 57.34 58.42 57.77 57.30 58.45 58.64 58.67 58.17 56.72 57.49 56.77 54.70 51.11 49.46 49.71 50.76
61.71 61.25 60.70 60.30 59.69 60.50 60.59 61.00 61.87 62.03 61.93 61.57 59.23 58.49 56.27 56.39 56.01 55.26 54.76 54.15 54.34 54.05 55.36 54.60 53.65 54.80 54.42 52.73 51.12 49.88 49.72 50.11
62.04 62.30 62.18 61.18 60.63 60.20 60.26 60.08 59.34 60.12 60.60 59.52 59.05 57.47 57.02 56.48 55.12 55.30 55.07 55.14 55.39 54.06 53.37 53.31 53.67 53.87 54.11 53.76 52.33 49.91 49.04 49.25
62.66 62.54 61.43 60.18 59.81 60.67 60.41 56.52 56.90 57.14 56.29 56.08 56.64 56.69 55.60 55.27 54.10 53.38 54.24 55.39 54.61 54.10 53.51 53.26 53.08 53.68 53.04 54.03 53.57 52.61 49.87 49.46
62.65 61.81 62.11 58.83 58.55 57.72 56.82 56.49 55.37 54.79 55.34 55.00 55.72 55.89 54.67 53.46 52.46 52.15 53.06 53.27 52.70 52.07 52.57 52.19 51.18 50.93 50.81 51.58 52.28 52.33 51.59 50.49
60.38 61.01 60.12 58.70 57.58 56.69 55.35 54.68 54.54 53.55 53.02 51.89 54.10 54.58 54.41 51.88 51.04 51.02 52.14 50.92 50.14 50.35 49.93 50.27 49.08 48.25 49.28 48.45 49.37 50.56 51.16 53.06
58.47 59.34 59.09 55.53 52.69 52.84 52.49 52.92 52.20 51.05 50.55 51.63 52.35 52.01 51.81 50.27 50.18 50.30 50.17 49.22 48.24 47.72 46.98 47.20 47.28 47.19 49.14 48.05 47.30 48.63 49.13 49.34
52.76 53.08 54.80 52.59 51.43 51.49 51.22 49.03 49.23 49.33 49.87 51.25 51.47 51.76 51.41 49.75 48.89 49.05 48.56 47.51 46.57 46.44 46.08 46.02 45.97 46.10 44.48 45.73 44.95 45.99 46.67 46.81
52.19 51.16 50.97 51.57 52.34 51.33 50.29 48.65 48.48 49.51 52.61 51.88 50.89 49.91 49.35 48.96 46.91 46.17 46.85 46.08 45.12 44.82 45.29 44.33 44.79 45.12 43.00 42.73 39.83 43.51 42.75 45.24
49.37 49.16 49.45 50.38 50.09 49.11 48.63 48.68 49.25 49.59 48.54 47.85 48.04 47.47 47.33 46.45 45.61 45.43 45.38 45.15 43.91 43.60 43.89 43.37 42.39 43.40 43.75 42.34 38.67 36.78 39.30 42.49
48.19 49.07 48.83 49.03 49.13 47.90 48.39 47.44 46.29 47.27 46.50 44.92 44.09 45.15 45.53 45.76 45.14 44.65 44.64 44.55 42.99 43.22 45.01 42.70 42.34 40.76 42.41 44.00 41.40 40.04 38.07 36.61
47.80 48.72 48.82 48.39 48.00 47.56 47.14 45.87 45.01 45.30 43.85 42.22 42.28 43.46 44.46 44.24 44.66 45.15 44.42 43.37 42.75 41.86 42.35 41.26 41.41 40.48 40.18 40.18 39.54 39.14 40.98 36.12
46.77 47.53 48.43 48.43 47.49 46.89 47.21 44.59 43.77 42.20 40.93 40.41 41.05 42.10 42.68 43.18 43.75 41.68 40.92 41.16 40.46 40.30 39.40 39.64 38.77 38.65 38.30 38.36 38.01 36.62 35.52 34.97
47.76 48.13 48.57 48.28 47.11 45.07 44.21 42.83 41.73 40.63 40.91 42.46 42.33 43.39 42.43 42.13 41.42 40.78 40.14 40.16 39.85 39.29 38.44 38.92 39.27 38.67 38.22 37.83 38.38 37.25 37.28 36.42
47.52 46.37 44.62 45.42 44.54 43.71 43.78 43.54 44.29 44.38 44.17 40.89 42.78 42.27 41.41 41.13 40.66 40.26 39.93 39.76 38.98 38.26 37.16 36.80 37.16 36.41 35.11 35.58 36.07 36.09 36.09 35.56

GFSFLT2_sfc_wetblb_009.txt.gz
Wetbulb
70.02 70.42 69.79 68.93 67.92 67.74 67.38 67.64 67.87 67.84 67.75 67.33 66.83 66.01 65.55 65.13 64.36 63.30 62.67 62.25 62.62 62.88 62.93 62.71 62.43 62.31 62.65 62.42 62.16 62.53 57.63 56.33
67.22 66.06 65.93 65.25 65.62 66.60 66.77 66.79 66.59 67.00 67.01 66.23 65.07 64.80 65.13 65.35 64.77 64.35 64.12 63.32 63.30 63.45 63.42 63.24 62.80 62.64 62.52 62.23 61.42 60.27 56.22 55.42
63.64 63.78 63.63 63.34 63.62 65.57 66.42 66.45 66.01 65.85 65.76 65.34 63.58 61.87 61.01 61.37 63.45 63.68 64.11 63.93 63.54 63.69 63.97 63.62 63.03 62.09 61.86 61.90 59.82 53.64 53.85 53.75
62.57 62.27 62.09 62.76 65.23 63.90 63.18 64.28 63.33 63.15 63.06 62.90 62.44 61.62 61.27 62.01 62.33 63.58 64.02 64.02 64.04 64.04 64.07 63.85 63.18 58.19 56.63 59.03 53.08 51.05 51.37 50.81
61.67 61.35 61.72 61.94 62.33 62.46 62.11 62.50 62.15 62.28 62.74 62.06 61.76 62.49 61.26 60.84 59.77 59.30 58.94 61.23 59.38 60.31 59.90 59.24 58.31 57.20 56.46 55.88 54.44 50.96 48.91 49.88
61.79 61.46 61.17 60.57 60.87 60.86 61.19 61.80 62.03 62.13 62.44 62.42 60.53 59.50 57.62 56.96 56.97 55.91 54.47 54.28 54.06 56.44 56.44 57.00 56.23 55.55 56.05 55.90 54.78 50.70 48.89 48.92
61.52 62.09 60.94 59.97 60.42 60.69 60.93 61.22 62.52 62.64 62.01 61.54 60.36 57.86 55.42 55.16 54.77 54.26 54.01 53.92 53.77 53.20 52.89 52.92 52.60 53.29 53.57 53.26 52.42 51.41 49.95 48.93
60.61 61.53 60.38 59.52 58.55 59.81 60.10 60.53 61.38 61.55 60.99 60.03 58.48 56.63 55.57 55.42 54.18 53.59 53.14 53.77 53.72 53.07 52.53 52.11 52.13 52.36 52.20 52.49 52.84 51.79 50.26 49.26
60.60 60.46 60.36 58.77 59.01 58.87 58.68 59.26 58.58 58.84 56.92 56.49 56.43 55.90 54.95 53.97 52.28 51.50 51.79 52.36 51.33 50.62 50.68 50.37 49.44 50.11 49.36 50.64 51.29 51.36 51.18 50.34
60.86 62.14 59.83 59.47 58.28 58.24 56.84 55.37 54.15 54.76 54.94 54.19 54.73 54.80 53.39 51.50 49.97 49.63 50.11 50.79 50.30 49.23 49.04 47.92 47.07 47.00 46.94 47.22 47.71 49.38 49.76 50.45
59.91 61.60 60.75 58.92 56.98 56.47 55.11 53.43 51.89 51.48 51.32 52.12 52.28 52.13 51.71 49.49 48.90 49.12 49.83 49.14 47.73 47.48 46.75 46.81 45.80 45.85 46.37 45.52 45.36 46.18 46.60 50.47
58.51 57.99 56.94 55.55 54.17 52.05 52.24 52.72 52.34 51.10 49.75 49.72 50.52 50.70 50.34 49.36 48.53 48.02 48.26 46.72 45.75 45.34 44.61 45.55 45.09 45.22 46.76 45.63 44.05 44.58 44.46 46.37
54.01 55.03 55.78 53.61 51.23 51.57 51.51 48.17 48.79 48.95 49.72 50.92 49.62 49.81 49.07 46.33 45.86 45.90 46.11 44.88 43.83 44.41 44.32 43.75 43.54 44.28 42.37 43.70 42.52 42.05 43.68 44.53
52.13 51.62 51.19 51.61 51.80 50.46 50.26 49.30 48.62 51.65 50.95 48.87 48.16 46.97 45.91 45.59 44.41 44.42 44.43 43.88 42.94 42.55 42.53 42.28 42.36 43.41 41.93 41.17 38.06 40.44 41.66 43.61
48.55 48.64 49.27 50.16 51.54 49.83 47.84 47.90 48.20 47.15 45.90 44.54 44.40 45.66 44.97 44.51 43.94 44.13 43.66 42.93 41.84 41.88 42.18 41.43 40.56 41.74 42.06 40.46 36.76 34.87 37.22 40.25
46.93 47.59 47.88 48.31 47.90 47.18 46.86 46.00 45.61 45.40 43.86 41.85 42.10 43.96 43.48 44.02 43.61 43.45 42.73 42.23 41.11 41.96 41.77 39.86 39.68 38.26 40.04 41.98 39.44 37.80 34.35 33.57
46.12 47.36 47.86 47.46 46.87 46.68 46.41 44.96 43.47 43.38 41.15 40.50 40.96 42.13 42.57 43.46 42.51 42.82 42.82 41.65 39.69 39.16 38.85 37.99 38.10 36.97 36.83 36.97 37.56 37.93 36.94 34.75
45.13 46.32 46.55 46.99 46.13 45.13 44.62 42.52 41.81 39.80 39.56 40.29 40.14 41.03 41.98 42.31 43.49 41.79 40.71 39.97 38.73 38.13 37.41 36.91 36.22 36.24 36.58 36.33 36.05 36.59 36.32 35.81
46.64 45.30 44.05 43.56 43.04 42.58 42.08 40.77 40.20 40.89 42.89 43.43 42.65 42.37 42.51 41.18 40.42 39.54 39.42 39.23 38.44 37.80 36.44 35.67 35.36 33.92 33.92 34.27 35.41 34.68 35.70 36.86
42.52 43.00 42.70 43.32 43.34 42.83 42.46 43.01 42.73 44.17 44.92 44.08 42.26 40.95 40.59 40.03 39.13 38.64 39.34 38.69 37.72 36.73 35.60 34.64 34.06 32.70 32.35 32.69 33.06 33.64 34.33 34.41

GFSFLT2_sfc_wetblb_015.txt.gz
Wetbulb
70.61 71.03 70.50 68.93 68.52 68.52 67.91 68.04 68.10 67.72 67.31 67.16 66.51 65.60 64.91 64.99 64.91 64.45 63.87 64.56 64.91 64.69 64.46 64.47 63.99 63.85 63.52 62.92 62.07 59.32 59.48 59.10
69.46 69.93 69.93 70.10 70.12 67.29 67.11 66.99 66.92 66.94 66.57 65.82 64.95 64.58 64.40 64.33 63.38 64.39 64.86 64.81 64.65 64.71 64.82 64.77 64.36 63.80 62.90 62.38 62.01 59.29 60.41 59.67
68.34 67.89 68.13 69.51 69.16 67.92 66.75 66.74 66.41 66.07 66.07 65.06 63.94 64.77 64.92 64.43 63.93 64.04 64.48 64.57 64.76 64.85 64.78 64.57 64.09 63.07 62.22 62.09 61.29 62.49 62.00 60.99
67.22 67.45 67.02 68.52 67.16 67.42 66.82 66.29 66.04 65.93 65.83 66.19 65.90 65.59 65.82 65.15 64.48 62.86 62.51 63.25 62.94 62.42 62.57 62.60 62.72 63.56 62.35 61.68 62.08 62.39 61.91 61.36
65.94 66.09 67.00 66.79 66.12 66.31 65.83 65.61 65.46 65.83 65.89 65.92 66.19 66.24 66.21 66.31 65.92 64.67 63.75 60.65 61.76 61.80 62.52 62.46 61.86 61.24 60.60 60.83 60.46 60.31 60.04 59.42
66.45 66.80 65.83 65.37 65.57 65.33 64.78 64.62 65.13 65.40 66.02 65.94 66.21 65.78 65.09 64.03 62.70 61.75 61.46 60.91 60.81 60.34 60.47 60.56 60.11 59.12 58.52 58.79 58.15 57.19 56.49 56.93
65.30 64.69 64.10 64.03 63.89 64.77 64.43 64.76 64.86 65.10 65.65 65.84 66.17 65.05 63.39 62.70 61.24 60.33 59.87 59.72 58.92 58.76 58.94 58.38 57.90 56.99 57.22 56.63 55.53 55.54 55.68 55.86
63.65 63.58 63.38 63.27 63.25 63.74 64.08 64.31 64.13 64.10 63.63 63.29 63.47 63.11 62.37 61.10 58.61 57.56 57.62 58.19 57.61 57.60 57.31 56.11 55.40 54.95 54.62 55.03 54.01 54.16 55.03 55.60
63.17 62.46 62.47 62.94 63.02 61.78 61.31 59.59 60.73 60.87 61.55 60.00 59.61 59.95 58.04 57.59 57.09 57.16 56.78 56.63 56.28 56.41 55.71 55.08 54.58 53.33 52.67 52.76 53.00 52.84 53.12 54.60
63.34 62.83 62.36 61.67 59.88 59.10 57.25 56.76 58.10 58.43 58.50 57.81 57.26 56.52 56.80 56.98 56.17 55.34 55.09 54.69 53.54 54.11 53.23 52.70 52.46 51.57 51.02 51.61 51.86 51.26 51.96 54.88
62.53 62.97 61.68 60.20 58.38 56.78 56.08 55.45 55.69 55.85 56.45 56.01 55.81 55.49 55.14 55.29 54.46 53.55 52.96 52.72 52.30 51.66 51.11 51.01 50.09 49.22 48.13 49.93 49.33 49.37 51.69 53.08
61.86 60.83 58.93 57.58 57.15 55.88 55.91 56.09 55.40 55.46 54.80 53.98 53.61 53.72 53.54 52.70 52.15 52.10 52.06 51.12 50.70 50.81 50.04 49.83 49.40 48.12 46.29 47.40 47.57 49.53 52.79 52.63
60.14 59.31 57.52 56.85 55.49 56.17 55.86 56.34 55.07 53.12 52.60 52.43 52.21 51.57 51.42 51.78 51.36 51.15 51.08 50.22 50.51 50.36 50.03 47.78 47.31 48.11 46.10 45.30 46.20 49.49 49.84 49.96
58.96 58.01 56.67 57.33 57.86 57.29 57.54 55.83 54.35 51.68 50.77 50.71 50.40 50.61 50.45 50.37 50.82 50.60 50.75 50.28 49.90 49.16 47.96 46.48 46.85 47.57 43.21 42.80 40.27 42.96 46.54 47.52
55.59 55.59 56.01 55.83 55.55 54.57 54.06 54.13 53.23 51.80 50.04 49.23 48.98 49.86 50.01 50.69 50.68 51.35 50.55 49.42 48.63 47.39 46.81 45.78 43.79 45.33 46.01 41.93 38.00 37.02 40.14 44.28
53.58 53.23 52.69 52.21 52.59 52.94 52.62 52.30 51.62 49.75 48.56 49.08 50.26 49.72 50.33 50.03 49.73 49.44 48.72 48.31 47.01 46.32 45.53 44.39 42.96 39.95 41.78 43.91 42.26 40.74 35.61 34.38
51.60 51.34 51.07 50.98 51.90 52.31 51.46 50.02 49.16 48.79 49.49 49.04 48.77 49.28 48.69 48.00 47.82 48.06 47.63 46.69 45.75 44.96 43.91 42.13 42.02 39.99 39.21 38.73 38.58 38.58 38.66 35.91
50.43 49.89 49.52 50.67 51.04 51.22 50.89 49.52 48.15 48.77 49.08 48.84 49.12 49.10 49.28 48.57 47.08 47.01 46.41 45.49 44.44 43.76 42.77 41.36 41.10 40.82 40.20 38.74 36.56 34.76 34.10 34.24
49.07 48.97 47.74 48.62 48.58 48.23 48.20 47.75 47.75 47.67 48.12 48.19 48.07 48.10 48.55 48.51 46.64 45.66 44.60 43.57 43.39 42.55 41.41 40.23 40.57 39.53 38.82 37.87 38.73 37.53 37.74 36.40
48.27 48.21 47.64 48.31 48.33 48.08 48.82 48.86 48.08 47.11 46.30 45.70 45.56 45.83 46.42 47.23 46.13 44.60 43.77 43.37 42.36 42.04 42.01 41.53 40.96 40.28 39.36 39.20 38.21 38.53 38.89 38.29

GFSFLT2_sfc_wetblb_018.txt.gz
Wetbulb
70.99 70.36 70.43 68.79 68.86 68.47 68.06 68.35 68.29 67.99 67.73 67.49 66.32 65.61 65.70 65.38 64.84 64.28 63.99 64.16 64.34 64.57 64.62 64.62 64.75 64.16 63.58 62.74 62.53 59.42 62.66 61.65
70.39 71.17 71.02 70.68 70.58 67.74 67.46 67.30 67.07 67.16 66.80 65.95 65.19 64.81 64.88 64.37 64.45 64.93 64.70 64.70 64.76 64.73 64.68 64.83 64.76 64.28 63.31 62.90 62.40 62.23 62.51 62.12
70.16 69.79 70.16 70.26 69.97 69.23 67.03 66.98 66.68 66.17 66.18 65.16 64.18 66.65 66.60 65.51 63.72 64.01 64.35 64.41 64.43 64.16 64.19 64.07 63.78 64.16 63.39 62.04 61.99 61.73 62.28 61.77
67.93 68.52 68.39 69.82 68.14 68.19 67.13 66.05 65.89 67.20 67.00 66.94 67.90 68.11 68.07 66.18 65.31 62.90 62.61 62.27 61.85 61.88 61.97 62.63 63.65 62.31 61.94 62.60 61.38 61.95 61.42 61.48
67.13 67.63 68.01 68.61 67.25 66.77 65.66 66.03 67.11 67.97 67.95 68.52 68.91 68.75 68.96 67.88 67.09 66.34 66.89 61.96 65.01 64.36 64.67 62.77 62.77 62.11 61.01 61.26 60.91 60.37 60.10 60.28
66.19 67.14 68.14 68.01 66.75 65.58 65.90 66.27 67.55 68.13 68.96 68.87 69.01 67.68 68.25 66.73 65.56 66.47 66.32 64.94 63.15 62.96 62.69 62.39 61.85 60.70 60.54 60.42 59.80 59.09 58.76 58.96
67.32 67.72 67.31 66.89 66.25 66.20 66.71 68.32 68.09 68.84 68.65 68.54 69.28 66.42 66.43 65.37 66.34 65.45 64.56 64.14 62.94 61.77 61.30 60.50 59.80 59.16 59.27 58.60 57.91 57.99 58.00 58.02
67.21 66.39 66.60 66.26 66.30 66.67 66.73 66.75 66.31 66.58 66.60 66.86 64.69 64.22 64.75 65.39 64.98 62.88 62.95 62.27 61.61 60.39 59.83 58.61 58.10 58.10 57.22 57.41 57.09 56.99 56.99 57.41
66.34 66.43 66.48 66.31 64.87 63.11 61.24 60.96 62.74 64.29 64.17 62.12 61.06 61.39 62.03 61.43 61.50 60.47 60.22 60.74 59.68 59.48 58.46 58.19 57.28 56.81 56.23 56.30 56.33 56.28 55.69 56.03
66.73 65.97 66.09 63.34 61.08 59.88 58.81 59.49 61.05 61.77 61.86 61.97 60.99 59.95 60.06 60.79 60.65 60.83 59.18 58.61 57.99 57.47 56.45 55.69 55.31 54.79 54.30 54.14 54.80 54.63 54.37 55.09
65.91 66.33 64.99 64.32 61.70 58.06 59.22 59.27 59.35 59.73 59.59 59.75 59.08 58.56 59.00 60.35 58.69 57.81 57.49 56.87 56.32 55.13 54.87 53.84 53.10 52.94 52.48 52.72 53.23 53.22 53.31 53.64
66.02 64.66 64.42 63.25 61.05 61.32 61.31 59.83 59.88 59.98 59.42 58.65 57.71 57.59 56.99 57.59 56.79 56.28 55.78 55.05 54.51 54.09 53.37 54.06 53.00 52.23 50.91 50.82 51.95 51.52 52.13 52.94
64.94 63.55 63.54 63.23 62.13 60.71 59.61 59.50 59.55 58.41 57.82 56.76 56.26 55.97 55.47 55.34 55.33 55.38 55.00 54.06 53.72 53.61 53.05 52.21 51.07 51.72 48.92 48.52 48.88 49.92 50.88 51.19
64.14 63.56 63.01 62.70 62.42 62.11 62.35 60.86 58.92 57.18 56.70 55.48 55.06 54.45 54.31 54.20 54.61 54.16 54.18 53.09 53.11 52.72 51.53 49.52 49.65 50.36 46.82 46.16 43.28 45.69 48.06 49.44
63.28 62.54 61.63 61.63 61.05 60.27 59.27 58.88 57.33 56.95 56.14 55.94 54.17 54.42 54.10 53.81 53.76 53.42 52.94 52.28 50.78 51.25 50.28 48.43 46.73 48.04 47.15 44.49 41.22 39.86 42.08 45.35
60.54 60.15 59.47 57.93 57.33 57.82 57.39 56.75 56.07 54.70 54.59 54.62 55.21 54.26 53.91 53.34 52.80 52.48 51.88 51.50 50.70 50.57 49.53 47.49 45.65 43.93 44.89 45.18 44.68 43.26 38.42 37.69
57.85 57.05 56.33 56.90 57.20 57.46 56.37 54.70 54.02 54.20 54.72 53.02 53.61 53.78 53.63 52.63 52.21 51.61 51.51 51.13 50.35 49.29 47.29 46.20 45.86 44.30 43.84 42.71 41.64 41.32 41.09 37.65
56.53 55.97 55.40 55.83 55.62 55.18 54.31 53.07 51.92 51.53 51.05 50.23 49.46 49.49 49.70 50.36 50.96 51.51 51.31 50.52 49.26 47.80 46.50 46.23 45.16 43.74 42.54 41.39 39.80 38.07 37.35 37.02
55.12 54.37 53.39 53.68 53.07 52.13 51.66 51.31 50.73 48.60 47.64 46.81 46.23 46.07 46.49 47.18 48.39 49.18 49.66 49.65 48.07 46.55 45.28 45.63 43.46 42.16 41.61 40.48 40.71 39.76 39.65 38.71
54.05 53.33 52.07 51.57 51.04 50.68 49.74 47.70 46.45 47.06 46.53 46.31 45.96 45.60 45.81 47.35 47.97 48.93 49.46 48.15 45.52 44.82 46.08 44.89 43.71 42.50 41.63 41.14 40.66 40.59 40.18 39.31

GFSFLT2_sfc_wetblb_024.txt.gz
Wetbulb
67.62 67.15 68.55 68.14 68.09 67.73 67.55 67.74 67.73 67.65 66.82 66.33 66.31 66.29 66.02 66.19 66.28 66.16 66.02 65.92 65.92 65.89 65.92 65.78 65.61 65.38 63.99 62.96 62.95 63.02 59.84 59.66
66.28 67.44 68.59 67.94 67.04 66.72 66.74 66.67 66.76 66.74 65.93 65.23 65.10 65.18 65.51 65.66 65.83 65.71 65.44 65.28 65.20 65.25 65.23 64.95 65.24 64.90 64.09 63.11 62.59 62.47 57.82 58.31
66.64 67.14 67.81 67.64 66.92 66.60 66.70 66.90 66.46 65.86 65.02 64.78 63.60 63.32 63.66 64.21 64.53 64.80 65.02 64.85 64.56 63.75 63.92 63.96 64.20 64.28 64.62 64.08 62.81 57.09 57.06 57.56
66.14 66.93 67.17 67.26 66.45 65.29 64.47 64.26 63.73 63.71 63.07 62.63 63.50 65.56 62.89 63.98 64.33 63.94 64.22 63.71 63.73 63.80 63.97 63.72 63.68 59.42 58.84 61.88 57.53 57.58 56.19 56.40
66.98 66.84 67.43 65.17 64.75 65.20 63.50 63.09 65.35 66.22 66.26 66.40 66.15 65.54 64.64 63.85 63.97 61.61 62.92 62.81 63.14 61.65 62.38 61.46 60.12 58.78 57.76 57.66 57.42 55.92 54.70 55.20
66.52 66.91 67.26 65.21 64.37 63.47 63.87 64.59 65.83 65.57 66.34 66.45 66.06 65.36 64.17 64.16 63.87 63.37 62.36 61.90 61.46 60.87 60.30 60.99 58.60 58.27 57.80 57.05 56.71 55.28 54.22 54.02
66.03 66.80 65.87 65.15 65.03 65.62 66.36 66.17 66.85 67.01 67.24 67.04 66.47 65.43 64.19 63.40 63.15 61.67 62.53 61.51 59.90 59.26 58.03 57.22 56.74 56.84 57.05 56.44 55.14 54.52 54.32 54.20
65.38 65.40 65.29 65.62 65.64 65.92 64.49 64.08 64.20 65.23 65.45 65.01 64.22 63.77 61.71 61.24 61.55 60.79 60.79 59.37 58.52 57.99 57.08 56.29 55.14 55.16 54.39 54.81 54.22 53.20 53.50 54.11
64.47 64.42 64.53 66.03 64.56 62.70 61.82 61.38 61.93 63.91 63.98 64.44 63.60 62.56 62.16 60.77 60.40 59.69 58.94 58.30 57.20 56.33 55.37 54.59 53.22 53.52 52.48 52.63 52.47 51.88 51.47 52.08
64.40 64.42 66.02 65.16 62.94 61.66 61.13 61.15 61.94 62.35 62.21 62.28 61.90 61.98 60.41 59.41 58.99 58.26 57.27 56.99 55.43 54.28 53.78 52.37 51.95 51.62 50.76 50.88 50.67 50.34 49.36 50.50
64.34 65.61 64.85 62.89 62.79 62.40 61.45 61.88 61.43 61.26 60.33 60.12 60.17 59.58 59.60 58.56 57.03 56.57 55.52 55.23 54.36 54.03 52.71 52.06 50.71 50.20 50.09 48.05 47.93 47.36 48.29 49.68
65.05 65.26 63.56 63.44 62.44 61.47 62.07 62.20 62.02 60.86 60.44 59.00 59.04 57.54 57.48 56.64 56.29 54.79 54.33 53.99 53.24 52.73 51.69 51.44 50.22 47.40 48.33 47.23 46.52 47.03 46.86 47.03
64.93 63.27 63.18 63.12 61.82 60.79 61.15 60.29 59.68 59.51 57.62 57.93 57.23 56.51 55.74 54.41 54.61 54.46 53.93 52.38 51.87 50.98 48.98 47.81 46.87 46.93 44.39 44.32 44.44 44.57 44.17 44.00
64.04 63.41 63.10 63.00 62.78 62.27 61.52 59.63 59.23 57.28 56.68 56.23 55.72 55.59 54.60 54.62 53.43 52.66 52.12 50.36 49.31 48.71 47.46 45.88 45.59 45.94 41.62 41.08 37.97 39.76 42.15 43.35
63.56 63.40 63.37 63.66 62.95 61.77 59.39 57.79 56.59 55.23 55.07 54.16 54.30 54.80 54.35 53.55 52.77 51.36 49.98 48.95 47.21 47.38 46.29 45.82 42.69 43.00 43.53 40.37 35.99 34.34 38.14 40.86
63.75 63.27 63.40 62.46 61.93 59.70 57.48 55.53 53.99 54.78 54.52 54.28 54.08 54.44 53.17 51.81 50.86 50.09 49.76 49.08 47.83 47.26 47.04 44.89 43.12 40.15 41.61 44.24 40.88 39.02 33.79 32.69
63.28 62.40 60.63 59.83 59.07 58.72 57.07 54.88 54.73 54.28 52.80 51.17 50.58 50.03 49.02 48.30 47.72 47.27 46.60 46.43 47.37 46.93 46.34 44.57 43.05 41.10 40.41 38.90 38.00 37.42 36.75 33.11
60.29 57.89 57.20 58.07 57.60 56.63 54.86 52.49 50.67 49.20 47.80 46.47 46.95 46.57 46.43 46.75 46.97 45.77 45.97 45.86 45.69 46.52 45.50 44.93 43.72 42.52 41.83 39.72 37.50 34.84 33.39 32.22
57.18 56.21 55.72 56.09 54.64 52.94 51.99 49.43 48.73 47.03 45.50 46.07 45.09 44.47 44.17 44.48 44.59 44.51 44.71 45.43 46.02 45.79 44.29 43.03 42.39 41.38 40.89 38.54 38.49 37.27 36.94 35.42
56.07 55.26 54.51 53.60 52.61 50.45 49.25 48.62 46.99 46.55 47.39 45.59 44.75 43.97 43.57 44.12 44.16 44.39 44.44 45.45 45.14 44.68 43.17 42.47 42.37 42.08 40.40 39.98 38.23 38.69 38.34 36.36

GFSFLT2_sfc_wetblb_027.txt.gz
Wetbulb
66.20 67.43 68.70 67.81 67.25 67.04 66.95 67.12 66.77 66.29 66.31 66.02 66.14 65.89 65.89 66.27 66.51 66.64 66.35 66.20 65.92 65.67 65.43 64.91 64.90 64.44 64.68 64.01 62.73 63.24 56.53 57.51
65.33 66.07 67.09 66.22 65.56 66.15 66.22 66.37 65.78 65.35 65.52 65.37 65.05 65.07 65.49 65.73 65.57 65.59 65.25 65.07 64.98 65.02 64.08 64.20 64.34 64.00 63.74 63.77 62.55 59.94 54.96 56.14
64.62 65.27 65.46 65.37 64.82 65.68 65.91 66.39 65.36 64.61 64.64 64.59 63.32 61.95 62.43 63.99 64.09 64.34 64.18 63.77 63.82 63.89 63.49 63.25 63.47 62.93 63.68 63.19 61.58 54.65 54.51 55.00
64.84 64.98 65.53 64.86 64.56 63.38 63.17 64.36 62.55 60.88 60.90 61.66 60.94 61.44 61.38 63.16 63.12 63.78 63.60 63.33 63.53 63.19 63.35 63.38 63.03 56.49 56.07 59.04 54.91 53.82 53.00 54.91
64.23 64.69 65.98 63.90 62.65 62.08 61.53 61.27 61.17 60.63 59.78 59.95 61.59 62.71 60.06 60.14 59.98 59.50 59.36 62.09 60.71 61.87 59.89 58.70 56.74 55.26 55.36 54.42 54.04 52.93 51.95 54.64
64.03 65.33 64.83 62.88 63.50 62.01 60.33 61.00 62.93 62.73 63.17 64.63 63.13 62.58 61.75 60.78 60.16 59.46 59.44 59.24 57.54 56.96 55.38 55.47 54.82 55.63 55.04 53.83 53.50 52.25 52.28 52.64
63.52 64.41 61.91 61.51 61.97 64.22 63.92 64.04 64.66 64.97 64.67 63.71 63.21 61.67 59.24 58.84 59.08 58.65 58.25 57.11 56.35 55.64 54.77 54.10 53.12 52.97 52.52 52.44 52.00 51.06 50.99 51.25
63.83 63.06 61.27 63.91 63.81 62.73 61.29 61.82 62.95 63.59 62.96 62.68 62.15 60.87 59.04 59.20 58.81 58.21 56.11 55.28 54.37 53.77 52.07 51.56 50.34 50.75 50.97 51.08 50.75 50.21 48.93 48.86
62.63 61.14 62.58 62.47 60.75 59.79 59.29 59.61 62.63 61.64 62.09 61.65 61.12 60.24 59.33 57.67 57.10 55.18 54.21 54.14 52.84 51.83 51.59 50.95 50.34 51.41 50.12 50.26 49.62 48.41 47.28 47.33
62.02 62.94 62.76 60.01 58.98 59.32 58.96 59.52 59.94 60.09 59.88 59.73 60.04 59.86 58.29 56.75 55.22 53.01 52.78 52.86 51.78 50.71 50.45 49.64 49.25 48.73 47.43 46.64 46.42 46.26 46.63 46.53
60.43 62.67 60.26 59.93 59.66 59.06 58.32 59.06 59.06 58.70 57.93 57.64 58.12 57.80 57.17 54.38 53.14 51.76 51.70 51.56 51.19 50.66 49.44 49.02 47.64 46.93 45.48 43.86 43.70 44.22 43.96 46.63
62.81 61.60 60.36 59.90 59.14 58.76 58.60 58.50 58.12 57.72 56.47 55.93 54.67 54.04 53.44 53.11 51.77 50.92 51.13 50.34 49.17 48.28 47.36 46.76 46.96 44.24 46.86 44.73 43.22 43.21 42.87 41.91
61.95 60.60 60.55 59.97 58.46 57.62 57.40 57.20 56.51 54.15 53.46 53.63 53.12 52.58 52.49 51.06 50.37 50.45 49.42 48.33 46.92 46.71 45.48 44.19 43.44 43.65 41.20 40.10 40.73 41.41 41.21 40.30
61.54 61.36 61.11 60.28 59.25 59.69 58.70 56.50 54.50 52.40 52.45 51.65 51.97 51.45 51.39 51.57 49.92 48.95 47.71 46.51 45.46 44.83 43.71 42.57 43.05 41.69 38.77 37.45 35.26 37.62 39.38 40.70
61.44 60.92 61.19 61.06 60.31 60.86 55.74 53.61 51.36 50.55 50.04 49.76 50.71 51.77 51.38 50.42 49.37 47.76 46.45 45.76 44.39 43.77 43.26 42.24 39.78 40.16 40.44 38.01 33.94 31.79 34.10 37.13
61.21 61.79 60.90 61.32 61.13 54.93 53.45 51.70 50.18 49.83 50.06 50.01 50.05 51.02 48.15 46.29 45.69 44.33 43.43 44.28 43.94 44.13 45.25 42.44 40.63 38.16 38.89 41.83 37.44 36.16 30.88 29.71
61.26 60.33 60.82 60.17 58.48 56.19 52.02 50.13 49.56 49.14 48.08 45.54 43.48 44.17 45.53 45.19 44.33 42.41 41.85 42.43 41.84 42.37 42.87 42.63 40.56 38.84 38.45 37.22 35.53 34.84 33.78 30.44
58.44 55.64 54.35 53.22 52.30 51.73 50.54 49.21 45.08 43.34 41.93 41.48 43.43 44.79 42.61 44.55 43.38 42.40 42.48 42.04 41.99 42.26 42.19 40.83 40.37 39.83 39.44 39.23 36.29 33.83 31.83 30.54
54.16 52.09 51.70 50.44 48.84 46.72 45.69 44.44 42.87 42.13 41.88 41.73 43.39 41.36 40.43 40.21 40.93 41.14 40.52 41.38 42.37 42.47 41.05 40.66 40.07 38.94 38.61 37.71 37.01 36.60 35.66 34.21
51.04 51.47 50.07 49.03 47.94 44.74 43.94 43.73 42.88 42.71 42.47 42.27 42.59 41.78 40.71 40.54 41.34 40.43 40.50 40.94 40.54 41.10 41.21 40.32 40.04 39.29 38.57 37.75 37.44 36.77 37.19 35.73

GFSFLT2_sfc_wetblb_030.txt.gz
Wetbulb
66.41 66.49 67.36 67.32 67.10 66.67 66.37 66.20 66.22 66.40 66.63 66.39 66.22 65.97 66.01 66.49 66.59 66.56 66.28 65.84 65.24 64.59 64.54 64.42 64.26 64.46 64.54 63.38 61.28 61.37 56.35 57.91
63.60 65.18 65.87 65.90 65.49 66.05 65.91 65.43 65.54 65.68 65.87 65.53 64.89 65.17 65.59 65.87 65.54 65.73 65.61 65.01 64.45 63.69 63.47 63.64 64.10 63.94 63.51 62.42 59.78 59.96 54.41 56.57
62.23 64.00 64.94 64.54 64.53 65.24 65.63 65.48 64.98 64.97 65.03 64.74 63.14 61.79 62.08 63.29 63.21 64.34 64.42 63.99 63.88 62.64 63.02 62.99 62.20 62.93 63.03 61.38 57.85 53.31 53.74 55.46
62.65 64.39 64.09 63.62 64.23 63.29 62.65 62.73 61.52 61.20 60.98 61.22 60.24 60.25 60.85 62.75 62.94 63.47 63.35 62.81 62.59 63.16 63.03 62.28 59.29 54.79 55.16 57.05 52.57 52.08 53.44 55.08
61.81 63.70 64.28 62.76 61.86 61.15 61.24 60.41 58.98 59.22 59.79 59.84 60.12 60.89 60.19 59.73 58.65 58.39 58.32 60.87 58.83 58.25 56.45 54.91 54.27 53.82 53.18 52.57 52.06 51.26 50.72 53.42
63.45 64.29 63.95 61.61 60.82 60.16 59.67 59.01 59.97 59.94 63.07 62.37 61.47 60.93 59.01 58.78 57.90 58.05 57.77 56.47 55.28 54.64 53.42 53.11 52.02 52.77 51.96 51.27 50.64 49.69 49.36 50.84
63.07 64.06 63.89 61.64 61.02 59.88 60.99 63.03 64.08 63.60 62.57 62.73 61.47 58.47 57.78 58.28 57.29 56.50 55.34 54.53 54.02 52.74 52.34 50.89 50.61 50.58 50.57 50.12 49.37 48.72 47.31 48.20
63.36 63.55 60.54 61.71 62.19 62.37 62.60 63.47 63.14 62.30 61.63 61.53 60.33 58.63 58.44 57.87 56.45 54.82 53.71 53.08 52.34 51.03 50.18 49.63 49.10 49.48 49.52 49.11 48.55 46.95 46.22 45.83
62.52 60.29 62.81 62.41 60.85 60.38 59.78 61.02 61.43 60.70 60.79 60.47 59.82 59.31 57.41 56.18 54.55 52.86 52.59 52.40 50.54 50.34 49.85 49.51 48.83 49.48 47.74 46.94 46.71 45.69 45.96 45.20
61.20 63.59 61.30 59.80 58.17 58.02 58.70 59.68 59.64 59.43 59.23 58.78 59.44 58.22 57.18 55.28 52.62 51.66 51.38 50.98 50.01 49.39 48.63 48.18 47.65 47.08 44.21 43.03 43.39 44.38 43.73 43.69
60.12 61.03 59.25 58.57 58.11 57.38 58.01 58.49 58.52 57.96 57.38 57.61 57.75 57.00 56.18 53.15 51.45 49.94 50.59 50.01 48.94 48.71 47.49 46.85 46.11 43.88 44.35 42.81 42.42 42.20 41.56 44.12
61.35 60.27 58.91 58.41 57.57 57.54 57.72 57.30 57.38 56.72 55.90 55.55 53.54 52.62 53.54 51.38 49.99 49.65 49.36 47.81 46.07 45.85 44.70 44.50 44.24 42.45 45.19 42.18 40.64 40.70 39.70 39.91
60.53 59.24 58.58 57.94 57.02 56.28 56.12 55.94 55.54 55.05 53.76 52.78 51.77 51.03 51.05 49.83 48.99 48.04 47.55 46.22 44.61 45.19 43.56 42.80 42.08 41.47 39.31 38.81 38.86 39.28 38.94 38.67
60.14 59.74 58.78 58.00 58.05 57.04 57.58 56.34 53.54 51.84 50.98 50.40 50.41 50.28 49.91 49.67 48.16 47.11 46.72 45.35 44.07 43.26 42.44 41.17 41.54 39.93 37.55 36.30 33.76 36.21 37.81 38.67
60.03 59.74 59.42 58.44 58.23 58.10 55.01 52.10 50.47 49.15 48.19 48.50 49.28 50.11 49.93 49.02 48.08 46.34 45.24 45.14 44.19 43.17 42.87 41.62 39.09 39.21 38.86 37.05 32.88 31.02 32.47 35.12
60.43 60.57 59.92 59.33 58.43 57.17 54.31 52.88 50.34 48.33 48.01 48.12 48.76 49.44 45.92 45.25 43.88 42.75 42.33 42.02 40.92 41.38 44.25 40.88 39.23 37.72 37.68 40.24 36.41 35.27 30.42 28.67
60.16 60.27 59.89 59.69 59.17 55.37 52.98 50.17 48.97 48.94 47.85 46.20 43.25 42.78 43.78 43.96 42.96 41.45 41.25 41.05 40.47 40.42 40.61 40.69 39.56 37.56 37.42 36.98 35.41 34.19 32.50 30.18
60.16 59.29 58.67 57.80 58.95 53.20 51.72 48.69 47.36 45.37 42.05 40.60 41.01 41.85 42.78 42.12 42.25 40.83 40.31 40.33 40.73 41.02 40.34 39.65 39.61 39.09 38.55 40.42 38.61 36.13 31.53 29.96
59.13 56.17 50.79 50.37 51.04 49.44 48.61 45.64 45.23 42.95 41.43 41.25 41.06 42.22 41.69 40.90 40.69 41.32 39.92 40.06 39.83 40.98 39.75 39.32 38.73 37.76 37.48 37.22 36.60 36.06 34.93 33.70
53.83 51.65 47.42 46.51 46.66 44.84 44.18 43.48 43.04 42.39 42.22 43.19 42.96 41.87 41.24 41.19 41.20 39.78 39.33 39.32 38.21 37.90 38.29 38.98 39.03 37.79 37.49 37.31 37.09 36.99 36.48 35.56

GFSFLT2_sfc_wetblb_033.txt.gz
Wetbulb
66.07 65.95 66.74 67.09 66.60 66.47 66.35 66.64 67.08 67.05 67.04 66.90 66.77 66.32 66.20 66.46 66.34 66.19 66.04 65.79 65.25 64.82 64.33 64.44 65.04 63.94 62.65 62.38 61.65 61.30 56.83 58.60
63.80 64.09 65.47 64.92 64.54 65.35 65.41 65.57 66.22 66.28 66.24 65.80 65.25 65.40 65.69 65.72 65.44 65.52 65.36 64.70 64.42 64.08 63.84 64.27 64.69 63.50 61.67 61.54 60.63 58.72 55.18 57.11
61.33 63.57 63.94 64.09 64.10 64.70 64.91 65.46 65.56 65.39 65.16 64.67 62.94 61.26 61.23 61.93 63.48 64.09 63.55 63.13 63.23 63.60 63.75 62.58 60.33 62.88 61.21 59.98 57.24 52.88 53.57 55.62
59.49 60.94 64.09 63.60 64.11 63.43 61.88 62.09 61.16 61.44 61.15 60.76 59.50 59.86 60.93 61.60 62.87 62.92 62.65 62.23 62.87 62.88 61.97 60.27 57.32 53.39 53.26 55.15 50.39 51.75 53.14 54.13
58.38 59.87 63.41 62.28 61.82 61.29 60.62 59.31 59.21 59.61 59.90 59.21 59.79 60.07 60.30 58.96 57.84 57.73 58.13 59.34 55.65 55.51 54.20 53.45 52.79 51.27 50.91 49.87 49.32 49.42 48.61 51.48
60.44 62.81 63.33 61.62 60.62 60.11 59.34 57.82 58.09 58.21 58.66 59.62 59.95 58.72 58.88 57.96 57.49 57.89 55.56 54.61 53.45 52.51 51.48 50.78 50.34 50.67 49.79 48.97 48.38 46.93 46.19 48.46
61.26 63.34 63.26 61.50 59.49 58.60 58.54 59.75 60.32 62.41 62.39 61.50 59.92 57.53 57.10 56.64 55.74 55.09 54.00 53.36 52.04 50.82 49.76 49.58 49.32 49.43 48.73 48.38 46.91 45.59 45.22 45.46
62.03 62.79 63.46 60.77 59.74 59.91 61.33 62.42 62.42 61.58 61.06 59.97 58.02 57.47 57.16 55.91 54.30 53.07 52.09 51.45 50.43 49.67 48.86 48.64 48.09 48.18 46.73 46.89 45.33 44.78 43.83 43.62
61.89 61.69 60.06 60.32 60.22 60.50 60.90 61.27 61.14 60.20 60.02 59.47 58.28 58.15 56.87 54.64 53.00 51.96 51.62 50.10 49.87 49.29 48.75 48.24 47.68 47.34 44.50 44.60 44.17 43.93 42.93 42.42
62.16 62.31 60.84 59.76 58.96 58.89 59.44 59.70 59.45 59.56 59.15 58.85 58.45 57.15 55.92 53.22 51.27 50.58 50.76 50.00 48.84 48.09 47.61 46.33 45.68 43.64 42.14 41.74 42.48 41.84 41.92 41.29
59.63 60.88 59.61 58.26 57.37 57.87 58.13 58.30 58.13 58.11 57.43 57.61 57.64 56.58 55.03 51.77 50.18 50.14 49.37 47.90 47.23 47.39 44.84 45.18 43.19 42.17 43.07 40.85 41.03 39.76 39.92 41.71
60.41 59.60 58.28 57.45 56.73 56.99 57.13 56.71 56.29 56.33 55.95 55.77 53.87 53.97 52.57 50.23 49.61 48.81 47.48 45.59 44.71 44.04 42.85 42.87 42.09 41.27 43.65 40.66 38.57 38.66 38.72 38.00
59.90 58.30 57.51 56.91 56.43 55.91 54.90 54.91 54.83 54.47 54.13 51.90 51.36 51.98 50.61 48.90 47.71 47.04 46.11 44.60 43.88 43.76 42.32 41.24 41.18 39.84 38.49 38.25 37.79 37.77 37.34 37.38
59.56 58.81 57.56 56.96 57.12 56.05 56.51 55.37 53.78 52.79 51.69 49.91 50.12 49.69 49.21 48.54 46.95 45.82 44.74 43.80 42.75 42.19 41.58 40.51 40.59 38.89 37.00 35.49 33.04 35.74 36.81 37.17
59.48 58.97 58.06 57.28 56.96 56.91 53.58 51.06 50.03 48.52 47.59 47.34 48.27 49.18 48.85 47.68 46.16 44.89 44.02 43.98 41.99 41.54 41.53 40.54 38.82 39.43 38.44 37.17 32.44 30.45 31.82 34.59
59.93 59.46 58.41 57.53 57.34 56.62 54.31 52.49 50.67 47.80 47.18 47.20 47.63 47.74 45.27 43.77 42.69 41.83 41.38 41.17 40.26 40.55 41.93 40.10 38.79 37.34 36.93 39.44 35.67 34.53 30.82 30.17
59.28 59.02 59.45 58.57 57.40 56.99 54.42 51.25 48.68 47.60 46.97 46.29 41.45 42.28 42.87 43.10 42.62 42.25 41.68 40.38 39.73 39.51 39.92 39.80 38.96 37.01 36.38 36.28 35.23 33.85 32.96 31.12
58.73 59.17 58.93 58.75 57.77 55.69 54.04 50.38 47.67 46.88 44.22 40.87 40.42 40.84 41.36 41.17 41.85 41.13 42.30 41.68 40.27 40.92 39.38 39.29 39.27 38.48 37.68 37.29 36.27 34.14 32.01 30.45
58.73 58.91 58.32 57.98 57.73 53.83 51.35 49.21 48.03 47.04 43.98 41.00 41.44 40.72 40.25 41.08 42.09 41.78 41.64 40.98 41.05 40.99 39.24 38.94 37.69 36.91 36.47 36.88 36.39 35.41 34.81 33.03
59.20 58.09 52.62 52.05 53.21 49.98 47.58 47.47 47.60 48.69 46.86 44.06 42.93 42.09 41.63 41.73 41.76 41.73 41.11 41.01 39.63 36.71 36.83 37.41 38.06 37.33 37.64 37.51 36.70 36.68 36.22 34.83

GFSFLT2_sfc_wetblb_036.txt.gz
Wetbulb
65.30 64.25 64.32 66.67 66.59 66.63 66.87 67.37 67.45 67.50 67.29 67.27 67.22 66.71 66.54 66.32 66.27 66.31 66.05 65.61 65.56 65.90 65.70 64.62 64.37 64.56 63.59 62.59 61.74 61.52 58.21 59.72
62.74 62.10 62.86 64.15 64.24 65.63 66.23 66.52 66.49 66.66 66.79 66.06 65.26 65.24 65.55 65.54 65.34 65.69 65.21 64.89 64.96 65.18 65.08 64.81 63.58 63.33 62.98 61.18 60.05 58.81 56.82 58.58
60.70 61.94 63.30 63.28 62.77 64.40 65.44 66.44 65.95 65.56 65.02 64.66 62.43 61.42 61.23 60.29 63.50 63.77 63.85 63.57 64.08 64.57 63.07 62.57 61.86 61.51 60.41 58.65 56.50 53.04 54.53 56.55
61.40 61.49 62.88 63.12 63.73 61.49 60.94 62.83 61.74 61.66 61.04 59.48 59.50 59.06 58.96 60.77 62.09 62.77 62.81 63.08 63.49 62.02 60.98 59.52 55.66 52.07 51.88 53.45 50.56 51.10 52.80 53.73
59.53 60.47 63.02 62.65 61.93 60.56 59.12 58.91 59.30 59.23 59.16 58.68 58.78 59.63 58.97 58.36 57.38 57.92 56.76 57.49 54.03 53.73 52.63 51.68 50.48 49.76 49.14 48.20 47.98 47.66 48.16 50.84
58.90 60.11 62.21 61.57 61.06 59.81 58.89 58.04 58.12 58.03 58.29 59.34 59.53 58.85 57.89 57.26 57.79 56.31 54.31 52.98 51.28 50.56 50.02 49.79 49.41 49.37 48.86 47.48 46.14 45.49 45.30 46.47
57.64 59.55 62.31 61.24 59.65 58.67 57.89 57.56 58.22 59.04 59.30 60.00 59.50 58.30 57.00 55.92 55.11 54.33 52.71 51.79 50.33 49.26 49.20 49.16 48.55 47.71 47.35 46.15 45.53 44.75 44.53 44.53
58.66 60.69 62.90 60.71 58.46 57.71 58.01 59.24 60.00 61.20 60.97 60.02 57.52 56.72 55.73 54.43 53.10 51.66 50.59 50.12 49.46 49.20 48.54 47.89 46.86 46.03 45.60 44.99 44.72 43.39 42.90 43.07
59.82 61.07 61.93 59.96 58.33 58.04 58.71 59.35 60.44 59.56 59.09 57.62 57.01 56.98 55.79 53.26 51.68 50.88 49.52 49.44 49.26 48.85 47.91 47.36 45.80 45.44 43.54 43.77 43.39 42.54 41.91 41.64
61.07 62.36 60.09 59.04 57.76 58.11 58.64 59.10 59.00 58.78 58.43 58.03 57.70 56.80 55.02 52.04 50.78 50.12 49.68 49.25 48.56 47.52 46.36 45.52 43.85 43.33 41.77 41.65 41.11 41.74 41.35 40.91
60.24 60.11 59.06 58.33 57.45 57.81 58.23 58.73 58.43 58.38 58.08 58.18 57.26 56.20 54.05 51.27 50.16 49.54 49.07 48.03 46.84 46.07 44.43 44.39 42.02 42.17 42.23 40.73 39.97 39.76 39.88 40.54
59.84 59.39 57.97 57.35 56.79 56.89 56.71 56.49 56.47 57.11 56.63 56.93 56.09 54.63 51.79 50.12 49.53 47.96 46.48 45.14 44.26 43.26 42.35 42.27 41.90 41.50 42.92 40.63 38.74 38.80 38.93 37.75
58.86 57.71 56.91 56.97 55.93 55.50 54.24 54.34 54.64 54.03 54.53 52.97 53.37 51.71 50.34 49.15 47.72 46.15 45.27 44.04 43.12 42.87 42.00 40.92 40.72 39.54 38.87 38.53 37.88 38.27 38.22 37.47
58.61 58.11 56.81 57.14 57.63 55.03 55.51 54.25 53.51 52.74 51.21 49.68 51.01 49.80 48.76 47.92 46.08 44.75 43.80 42.99 42.36 41.98 41.31 40.36 40.38 38.72 37.41 35.66 33.70 36.23 37.26 37.51
59.20 58.24 57.09 57.00 56.40 55.71 52.33 51.23 50.21 49.41 47.69 47.15 48.14 48.66 48.01 46.53 45.32 44.02 42.95 42.36 40.86 40.90 40.76 40.12 38.37 38.51 38.02 37.29 33.54 31.72 32.99 35.82
59.22 58.30 57.23 56.85 56.64 55.79 53.45 53.28 50.34 48.94 47.33 46.59 46.93 47.23 45.11 44.02 42.43 41.34 40.60 40.48 39.86 40.44 40.88 40.36 39.48 37.55 38.54 38.78 36.13 35.39 32.40 31.63
58.52 58.40 58.02 57.98 57.11 56.76 54.72 52.98 51.84 50.17 46.61 45.20 42.23 41.89 41.94 41.85 41.54 40.38 40.05 40.32 40.64 42.48 42.39 41.42 39.36 37.67 36.59 36.47 35.91 34.99 34.06 31.87
57.77 57.88 58.29 57.94 57.13 55.89 54.62 51.36 48.87 48.15 45.66 41.88 40.64 40.25 40.43 40.42 40.26 39.98 39.89 40.06 41.54 41.87 39.59 39.27 38.53 38.22 38.04 37.22 37.12 35.16 33.69 30.83
57.57 58.26 58.21 58.13 56.99 55.11 53.58 51.52 50.81 49.94 46.17 42.73 40.65 39.74 39.32 39.94 41.11 40.51 41.41 41.48 41.60 41.04 39.46 39.95 38.22 37.19 37.03 36.96 37.31 36.45 35.27 33.63
57.51 58.08 58.62 58.05 57.29 55.85 54.36 54.33 51.49 50.15 46.51 42.83 42.66 41.19 41.74 42.57 42.04 42.21 42.31 41.87 40.28 39.49 37.99 36.83 37.19 37.24 36.63 36.40 36.99 36.81 36.18 34.59

GFSFLT2_sfc_wetblb_039.txt.gz
Wetbulb
64.57 65.06 65.59 66.97 66.75 67.06 67.02 67.55 67.70 67.57 67.75 67.55 67.36 66.77 66.63 66.67 66.43 66.35 66.41 66.37 66.31 65.39 65.17 65.45 65.33 64.50 63.26 62.82 62.49 62.78 62.13 61.70
60.54 60.57 62.25 64.23 66.00 66.46 66.62 66.77 66.93 67.17 66.94 66.11 65.37 65.64 65.78 65.76 65.51 65.63 65.64 65.78 66.18 65.34 64.41 64.55 64.27 62.50 60.85 59.96 60.07 61.23 62.39 62.18
58.27 57.84 62.05 63.53 64.78 66.66 66.66 66.93 66.46 65.65 65.50 64.87 63.70 63.99 64.34 63.84 63.99 64.08 64.42 64.81 64.66 64.62 63.44 62.29 61.59 60.63 59.40 58.66 59.49 60.02 60.86 61.80
57.44 61.30 61.82 63.72 63.19 65.22 65.20 65.11 64.47 64.18 63.75 64.00 63.71 64.17 63.94 63.37 63.05 63.00 63.51 63.32 62.59 61.79 60.33 59.24 58.89 57.91 57.31 57.22 56.79 57.82 58.70 59.67
59.26 60.60 62.42 62.86 62.10 62.30 63.12 63.13 62.95 63.37 63.64 63.23 63.57 63.63 63.60 63.01 62.97 62.93 63.17 60.21 58.83 57.99 57.57 57.08 56.97 56.52 55.52 55.17 54.83 54.97 55.79 57.37
59.56 59.16 59.76 60.98 62.68 61.00 61.64 61.65 62.16 62.19 62.65 63.56 63.63 63.05 62.43 62.07 62.39 60.33 58.84 57.79 57.45 57.45 56.62 56.61 56.03 55.03 54.74 54.11 53.65 53.64 54.42 54.60
57.86 59.29 59.89 62.86 62.52 60.97 61.19 61.59 61.94 63.08 62.46 63.41 63.11 63.04 61.84 62.10 60.29 59.27 58.10 57.68 57.09 56.49 56.30 55.64 54.94 53.84 53.50 53.03 52.27 52.17 52.29 53.29
60.16 60.20 62.15 64.37 62.27 61.54 61.10 61.86 62.02 62.07 62.29 63.68 63.78 63.61 61.97 60.65 58.88 57.79 57.20 57.17 57.01 56.61 55.87 55.01 53.74 53.62 52.39 51.75 50.76 50.62 50.78 51.68
59.49 61.04 63.73 64.11 62.60 61.97 61.59 61.92 62.69 63.07 63.88 64.01 62.71 62.51 61.08 59.77 58.14 56.75 56.27 56.45 56.15 55.89 54.94 54.39 53.05 51.83 51.21 50.79 50.40 49.71 49.48 50.33
59.80 61.38 63.41 64.00 62.24 61.44 61.82 62.93 63.81 64.08 63.93 62.84 62.02 61.22 59.96 58.60 57.18 56.26 56.24 56.22 55.73 54.78 53.79 52.37 51.79 51.66 51.01 50.35 50.11 49.73 48.49 49.44
60.80 62.22 63.15 64.03 62.74 62.03 62.64 63.20 63.94 63.77 63.22 62.38 61.51 60.66 59.52 58.53 57.21 56.09 56.12 54.91 54.00 53.28 52.57 52.71 51.04 51.00 50.11 50.66 49.92 49.11 48.07 48.11
62.20 62.76 63.71 63.24 62.51 62.01 62.42 62.97 63.50 63.36 63.35 62.95 61.18 60.60 57.96 57.19 56.02 55.11 54.73 53.28 52.33 52.02 51.30 51.05 50.71 50.40 48.42 48.68 49.17 47.87 48.31 47.78
62.37 62.78 63.19 62.14 61.22 60.54 60.78 61.40 61.81 61.78 61.64 61.67 60.79 59.00 56.61 56.16 54.88 53.66 53.49 52.81 51.53 51.49 50.50 50.13 49.87 49.92 48.18 47.49 47.58 46.51 46.56 47.28
63.01 62.92 62.48 62.32 62.22 61.46 61.53 61.32 60.56 60.21 59.38 58.73 59.42 57.23 56.13 55.30 53.97 52.84 52.26 51.00 50.98 50.96 50.79 49.38 49.82 48.91 46.59 45.71 43.71 44.25 45.92 46.24
62.09 62.74 62.08 62.18 62.42 61.04 58.48 57.99 57.19 56.66 55.59 55.84 56.70 55.59 54.94 54.05 53.15 51.92 51.49 51.54 49.91 49.94 49.58 48.51 46.09 47.04 46.77 45.77 42.33 41.24 43.71 45.56
62.11 62.58 61.93 61.71 61.23 60.64 59.50 59.56 57.46 57.32 55.92 55.16 54.46 54.17 53.15 52.63 51.74 51.08 49.74 49.15 48.66 48.24 48.38 48.22 47.25 45.22 46.10 46.26 46.63 45.60 41.64 39.87
62.45 62.65 62.39 61.87 60.84 61.27 60.23 59.31 58.76 56.24 53.79 52.70 52.32 52.07 51.71 50.12 49.48 48.71 48.36 47.98 48.21 48.20 47.64 46.28 45.47 44.16 45.88 45.83 45.29 45.35 44.70 40.56
62.43 61.98 61.64 61.21 59.74 59.82 59.28 58.90 55.61 54.04 52.16 50.28 49.70 49.34 48.52 48.30 47.69 48.16 48.01 47.21 47.31 46.07 44.73 44.61 43.33 46.81 46.51 45.78 44.36 42.67 41.57 40.61
61.69 61.51 59.62 59.53 59.21 58.62 58.39 57.16 55.83 55.18 52.26 49.53 47.17 46.74 46.98 46.04 46.97 46.24 45.98 46.74 45.36 43.55 43.37 44.37 46.47 45.86 45.53 45.14 45.57 44.63 44.33 42.67
61.17 60.90 60.12 58.97 58.85 58.70 58.89 57.64 56.28 56.09 53.43 49.78 47.90 47.86 46.41 46.49 46.46 46.97 46.49 45.96 45.38 42.56 43.38 44.75 45.56 45.46 45.05 45.07 45.32 45.36 44.77 43.21

GFSFLT2_sfc_wetblb_042.txt.gz
Wetbulb
66.96 67.27 66.84 66.59 66.93 67.04 66.91 67.40 67.75 67.76 67.94 67.78 67.61 66.99 66.91 66.96 67.04 67.07 66.77 66.06 66.28 66.29 65.90 65.46 64.66 63.65 63.09 63.04 62.86 63.15 62.67 62.84
63.83 62.98 61.61 62.21 66.63 66.51 66.93 66.97 67.17 67.21 67.36 66.30 65.66 65.83 65.96 66.14 65.91 66.48 66.65 66.19 65.75 65.96 65.57 64.55 62.85 61.94 61.40 61.30 61.99 62.48 62.44 62.29
60.86 60.82 61.86 62.16 65.15 67.08 67.11 67.18 66.69 66.15 65.60 64.88 63.84 63.98 64.31 64.81 64.29 65.10 65.75 65.81 65.05 64.65 64.09 62.71 61.75 60.57 59.89 59.96 60.27 61.17 61.23 61.59
59.40 58.67 59.76 62.00 64.75 65.16 66.18 65.28 65.16 64.73 63.67 63.84 64.04 65.14 64.78 64.00 63.77 64.33 63.92 63.72 63.08 62.22 61.09 60.93 62.32 61.68 59.44 59.33 60.27 60.22 60.17 60.14
56.20 56.66 58.05 61.05 62.77 64.75 64.64 64.47 64.46 63.98 65.10 64.45 65.56 64.98 64.66 64.68 64.20 64.45 64.08 62.96 62.13 61.22 61.06 61.39 60.89 60.96 59.89 60.02 59.24 58.91 58.59 58.19
54.43 55.36 56.89 60.47 62.06 62.12 62.45 61.76 62.45 63.28 64.27 65.05 64.84 64.14 64.42 64.48 64.65 65.47 64.57 63.79 62.60 61.72 60.77 60.71 60.08 59.55 59.22 58.65 57.97 57.66 57.42 56.76
58.17 59.01 58.81 59.14 59.92 61.58 62.74 62.85 62.20 62.94 63.86 64.75 64.51 63.71 64.00 64.78 64.59 64.28 63.37 62.50 61.76 61.02 60.20 59.54 58.97 58.54 58.14 57.21 56.48 55.65 54.74 54.24
57.88 57.84 60.17 61.07 61.47 62.04 62.34 62.70 62.83 63.70 63.90 65.00 65.74 64.72 64.77 65.24 64.30 63.06 62.00 61.92 61.47 61.03 60.36 59.74 59.04 58.19 57.09 55.77 54.14 53.48 53.65 54.26
58.92 60.51 61.91 63.00 64.41 63.20 62.21 63.02 63.28 62.95 63.31 66.64 66.86 66.74 65.71 64.97 63.60 62.35 61.64 61.64 61.44 60.72 59.83 59.26 58.07 57.60 55.51 54.46 54.71 54.37 54.17 53.62
61.44 61.19 62.86 64.47 64.54 63.62 61.88 63.46 63.49 63.41 65.50 66.43 66.68 66.16 65.59 64.34 62.74 61.76 61.56 61.24 60.99 60.31 59.27 57.86 57.61 56.95 55.69 54.87 54.88 54.54 53.63 53.76
62.18 62.66 62.71 65.31 66.02 64.30 63.83 63.79 64.03 64.77 66.48 66.21 65.74 64.59 63.95 63.59 62.64 61.80 61.78 60.82 60.14 58.86 58.12 58.48 55.48 55.37 53.99 54.47 54.50 53.65 52.61 51.90
62.26 63.04 64.53 65.09 65.74 64.70 63.12 62.39 63.70 66.05 66.78 66.27 65.64 64.46 63.13 63.35 62.52 61.62 61.17 59.53 58.37 57.66 56.60 55.46 55.71 54.69 50.61 50.99 52.84 52.43 52.11 51.71
63.03 63.61 64.57 65.05 64.71 63.35 61.67 60.89 63.07 65.20 66.07 66.50 64.97 64.86 63.82 63.27 61.98 60.75 60.07 58.70 57.91 57.00 55.29 53.88 53.42 53.83 52.37 52.21 51.95 51.48 50.85 50.60
63.80 63.51 64.25 65.23 65.60 65.24 62.83 63.48 63.25 64.39 65.49 65.68 65.41 64.93 63.12 62.23 61.16 59.69 59.10 57.72 56.54 55.58 54.43 53.01 53.25 53.73 51.12 50.32 49.50 49.43 49.55 50.12
63.76 64.33 65.27 65.73 65.74 65.32 63.64 64.59 64.83 64.22 63.69 63.22 63.79 63.37 62.31 61.29 60.26 59.36 58.11 57.26 55.60 55.00 53.71 51.52 51.31 52.26 51.02 48.76 46.19 45.63 48.11 49.70
64.15 64.85 65.64 66.01 66.28 65.12 63.30 61.71 61.13 62.94 63.22 62.38 62.28 61.99 61.29 60.08 59.04 58.26 57.47 56.63 54.84 53.69 52.13 52.63 50.18 47.70 47.15 48.34 48.76 47.89 44.46 44.25
64.28 64.66 65.82 65.71 65.66 65.47 64.18 63.28 63.59 64.36 62.90 61.15 60.54 60.15 59.51 58.67 57.89 57.35 56.28 54.83 54.02 52.33 52.02 50.64 48.41 46.87 48.44 48.53 48.54 48.25 48.10 44.50
64.31 64.26 64.50 65.74 65.20 64.78 64.49 64.42 64.15 61.80 60.74 59.09 58.41 57.78 57.29 55.99 55.68 55.56 55.20 53.49 52.46 52.04 52.30 49.82 46.40 48.03 48.99 48.67 47.22 46.27 45.34 44.27
64.67 64.42 63.13 63.59 63.40 61.90 62.60 63.09 63.51 60.69 60.50 59.17 56.69 55.95 54.25 53.61 53.55 53.21 52.72 51.48 51.65 51.88 48.23 48.57 46.55 48.94 48.51 48.00 48.30 46.99 46.81 45.60
64.80 63.63 62.47 63.50 62.99 59.91 61.82 62.04 61.21 60.66 61.79 59.68 57.12 53.65 53.44 51.97 51.69 51.73 50.75 50.55 49.75 47.96 46.07 45.32 48.19 47.38 48.23 47.82 47.25 47.81 47.33 45.71

GFSFLT2_sfc_wetblb_048.txt.gz
Wetbulb
67.89 67.23 67.63 67.05 67.16 67.15 67.47 67.95 68.13 68.27 68.22 68.13 67.81 67.24 67.28 68.03 68.61 68.55 67.68 66.98 66.57 66.08 65.72 65.16 64.68 63.64 62.51 62.38 62.98 63.55 60.19 59.22
64.32 65.08 65.02 64.81 65.53 66.62 66.91 67.38 67.49 67.60 67.23 66.48 66.13 66.11 66.41 66.82 66.98 66.75 66.67 66.54 66.00 65.77 65.22 64.62 63.64 62.75 61.78 60.88 61.88 61.80 58.01 58.75
62.42 62.37 62.95 63.53 64.49 66.26 67.17 67.49 66.71 66.18 65.80 65.10 63.32 61.98 61.61 63.59 65.43 66.08 66.23 65.64 65.13 64.73 64.07 63.13 62.06 61.07 61.22 61.41 61.17 56.98 56.69 58.47
61.70 60.97 59.92 60.41 63.09 64.23 65.39 65.61 64.62 64.41 62.99 62.56 61.26 61.13 62.16 62.92 64.36 64.78 65.02 64.78 64.22 63.61 62.82 62.27 61.24 56.47 56.20 60.21 56.07 56.53 56.32 57.43
57.93 59.17 59.31 59.71 60.54 61.59 62.58 62.64 62.61 63.13 62.87 63.16 63.48 61.96 62.04 62.69 62.27 61.17 61.54 62.77 59.61 59.84 59.76 58.88 59.34 58.66 57.63 56.24 56.25 55.64 53.66 53.81
56.68 58.00 58.37 58.45 58.92 60.17 60.88 62.02 62.00 61.59 62.17 63.99 63.43 61.90 61.69 61.60 61.23 61.43 60.37 59.40 57.94 58.84 58.39 60.01 58.71 58.51 57.14 56.39 55.33 52.66 51.06 52.16
57.46 57.89 58.11 57.89 57.58 59.08 60.14 61.08 61.52 61.30 61.09 63.75 63.30 62.27 62.00 61.50 61.64 61.76 61.38 61.89 59.97 60.47 59.39 58.58 57.86 57.26 56.36 55.38 53.08 51.64 51.38 51.52
56.76 57.22 57.84 57.71 56.76 56.31 58.34 60.39 61.12 59.61 59.87 63.37 63.35 63.25 62.30 62.70 63.66 63.30 63.20 61.96 61.32 59.99 58.91 58.15 57.60 56.11 54.93 52.94 51.81 51.16 50.91 50.51
56.23 56.71 57.42 57.21 56.91 58.53 58.68 59.87 61.85 62.51 62.38 63.14 63.69 64.49 62.96 63.66 62.38 62.95 61.59 61.96 61.35 60.34 58.88 58.52 56.56 56.35 53.95 51.85 51.73 50.78 50.84 50.26
55.77 56.86 55.98 56.18 57.24 58.08 58.45 59.50 61.48 62.02 61.85 63.27 63.65 64.22 63.51 63.13 63.28 62.07 62.13 61.36 60.30 59.44 58.14 56.94 56.17 54.27 51.81 50.94 50.48 50.47 49.93 49.74
54.70 55.21 55.27 55.16 56.88 55.12 56.38 58.28 60.67 61.16 61.46 62.59 63.92 64.13 64.51 63.79 62.93 62.58 61.88 60.64 60.01 59.54 58.43 57.24 54.24 52.33 52.13 50.57 50.05 49.93 49.71 51.08
55.31 54.94 54.99 57.42 58.63 55.44 57.92 59.85 60.88 61.19 61.00 61.67 64.00 64.34 64.66 63.77 62.92 61.97 60.93 60.21 59.40 58.65 57.00 55.91 54.13 52.35 52.87 50.10 50.21 50.55 50.00 48.69
55.73 54.57 56.04 58.89 58.85 57.70 58.91 58.05 59.87 60.55 60.79 61.61 64.15 63.98 64.38 63.47 62.51 61.94 60.54 59.89 58.91 58.72 56.48 53.83 50.97 50.60 47.82 49.19 50.43 51.00 49.76 48.83
57.94 58.54 58.59 59.78 60.12 60.50 60.70 59.71 59.17 60.29 61.19 62.62 64.40 63.76 63.87 63.07 62.11 61.21 60.31 59.68 58.87 57.27 55.48 52.31 52.16 51.16 48.05 48.71 46.43 47.06 48.31 49.30
58.97 59.84 59.70 60.69 62.01 62.46 62.09 60.75 59.47 58.39 59.90 62.50 63.66 64.16 63.54 63.09 62.36 61.75 60.61 59.90 57.80 56.48 55.42 53.24 49.85 49.52 49.86 47.64 43.75 43.25 43.50 47.35
61.38 61.20 61.15 61.11 63.03 62.10 61.62 59.41 57.77 58.02 58.81 61.96 63.30 63.73 63.14 63.39 63.05 61.86 60.43 59.02 57.25 56.11 55.60 53.35 51.45 48.66 49.05 49.85 48.94 47.39 41.12 39.87
61.80 61.68 61.80 62.48 62.80 62.92 61.37 60.60 59.38 60.74 59.92 61.68 61.95 62.83 63.38 62.85 62.24 61.06 59.75 59.01 58.00 56.30 55.01 53.98 50.93 48.96 49.24 47.86 48.57 48.40 45.95 42.60
62.20 62.14 62.20 63.28 62.73 62.08 61.89 60.75 60.76 60.26 61.03 61.19 61.47 61.58 61.84 61.32 61.42 59.80 59.29 58.03 57.42 56.39 54.31 52.37 48.65 48.68 47.89 46.67 45.92 45.35 44.49 43.95
62.46 62.75 62.14 62.93 63.38 62.73 62.45 62.25 62.64 61.46 61.24 60.41 59.60 59.38 59.13 59.20 59.89 58.58 57.44 56.91 54.97 53.27 51.41 50.37 48.17 46.66 46.09 45.89 47.06 46.03 46.39 45.03
62.48 62.56 61.94 62.70 62.88 63.39 62.91 62.66 62.36 62.23 61.77 60.98 59.54 59.00 59.16 58.32 58.05 57.25 55.03 53.53 51.87 50.57 49.58 48.42 46.72 45.55 44.16 46.70 45.86 44.77 46.21 45.52

GFSFLT2_sfc_wetblb_051.txt.gz
Wetbulb
67.28 67.84 68.00 67.28 67.26 67.37 67.71 68.10 68.27 68.30 68.19 68.28 68.58 68.78 69.04 69.35 68.67 68.05 67.48 67.06 66.52 65.93 65.20 64.32 63.45 62.73 62.88 62.33 62.35 62.09 56.68 57.57
65.73 66.00 66.01 66.05 65.69 66.57 67.22 67.39 67.48 67.31 67.04 66.73 66.65 67.36 68.06 67.91 67.31 67.00 66.79 66.32 65.77 65.33 64.67 63.47 62.47 61.44 61.04 61.04 61.43 60.85 56.60 57.02
62.68 62.81 62.94 63.47 65.05 67.19 67.14 67.21 66.58 66.15 65.87 65.19 63.68 64.35 64.98 64.69 65.63 65.94 65.93 65.44 65.11 64.62 63.68 62.55 61.56 60.34 59.93 60.60 59.15 56.59 57.64 58.07
61.33 61.40 61.53 62.23 64.57 65.77 65.36 65.04 63.46 62.72 61.76 59.51 60.06 60.53 62.41 64.24 64.67 65.01 64.47 64.31 64.04 63.68 62.88 61.83 59.95 54.01 54.73 57.43 53.86 54.76 56.82 56.97
59.85 59.40 59.56 61.32 62.17 61.62 63.55 63.01 62.78 61.45 60.60 60.75 60.71 61.75 61.61 61.52 61.52 61.86 61.73 62.09 59.39 59.91 59.47 56.60 56.41 55.43 53.74 53.12 51.36 51.28 51.48 54.01
57.97 58.41 58.81 59.14 57.95 57.12 60.21 60.97 61.04 60.14 60.94 61.46 60.53 60.65 59.75 59.54 59.15 59.26 58.49 57.64 55.40 55.58 55.50 56.50 55.91 55.00 54.39 52.75 50.10 48.66 49.36 50.79
57.09 57.96 57.94 58.11 58.49 58.81 59.10 60.83 59.65 59.99 61.21 62.28 60.99 60.47 59.52 59.56 59.47 58.91 58.03 57.11 54.94 55.95 56.78 56.50 55.31 54.59 53.13 51.28 49.74 48.72 49.73 49.93
57.11 57.01 57.19 57.11 57.09 55.98 56.50 59.16 58.31 58.66 59.55 61.52 61.68 60.48 60.86 59.58 59.90 59.85 58.34 58.63 57.39 57.60 56.77 55.55 54.86 53.38 51.52 49.74 49.02 48.61 47.93 49.44
55.78 55.76 56.33 56.20 57.14 57.01 57.55 58.61 59.89 58.88 58.82 60.54 61.61 61.97 60.63 60.83 61.18 60.84 61.44 59.50 58.76 57.08 56.57 55.44 53.80 54.03 51.35 49.56 49.23 48.35 48.15 47.98
55.59 56.22 55.93 56.05 56.25 57.08 57.62 57.64 59.22 59.36 59.63 60.18 61.04 62.33 61.92 60.51 59.82 59.88 59.83 59.33 57.98 56.76 55.99 54.66 53.44 51.53 48.91 47.92 48.00 47.91 47.54 47.86
55.38 55.97 55.65 56.02 56.46 56.24 56.55 57.86 57.49 58.22 58.77 59.98 60.99 61.48 62.32 60.25 61.11 60.01 59.51 58.16 57.39 57.12 55.78 54.75 52.74 50.34 49.02 47.82 47.23 47.36 46.77 49.09
55.23 55.13 55.00 55.73 56.58 55.71 56.10 55.71 55.56 57.40 58.30 58.59 61.32 61.04 61.52 61.70 60.96 60.16 59.29 57.75 57.02 56.51 55.43 54.33 52.16 49.92 51.69 48.67 46.50 46.99 47.15 46.27
53.27 53.63 53.78 54.73 54.90 53.84 53.24 53.36 56.04 56.17 57.73 58.57 59.97 61.73 62.02 61.35 60.51 59.82 59.17 57.60 56.69 56.17 54.73 52.49 49.28 47.71 45.66 45.30 46.08 46.67 47.05 46.51
52.92 53.14 53.66 53.54 56.69 53.70 53.52 55.29 56.25 58.53 58.56 58.05 59.81 61.98 61.95 61.44 60.35 59.21 58.44 57.67 56.97 55.77 53.28 50.03 48.95 47.20 44.84 45.89 43.91 45.72 46.52 46.85
52.59 52.73 53.61 54.90 57.38 56.84 55.81 57.42 56.46 54.78 55.74 57.48 59.72 62.49 61.79 61.67 60.63 59.72 58.18 57.84 56.22 54.42 52.69 50.50 48.23 47.77 47.54 46.69 42.17 41.35 41.75 44.60
54.93 53.84 53.89 55.95 58.03 57.01 55.89 56.78 55.79 56.00 54.76 56.95 60.78 61.78 61.24 61.81 61.06 59.95 58.41 58.52 56.71 54.97 54.62 52.57 51.57 48.10 48.30 48.30 45.64 45.67 40.65 39.13
55.95 55.91 55.78 57.12 58.12 58.44 58.40 58.25 57.82 55.98 56.06 56.14 60.14 60.31 60.55 60.63 60.42 59.82 58.76 59.24 58.04 56.16 54.55 53.28 52.30 49.73 48.07 47.52 46.07 47.25 46.57 42.91
56.58 56.92 57.39 58.08 58.15 58.76 60.11 60.06 58.79 56.38 56.06 57.03 60.23 60.23 60.32 61.55 61.38 59.69 59.37 57.72 57.29 55.62 53.60 52.96 50.36 49.29 47.96 47.00 46.37 45.18 44.89 44.15
57.88 58.32 57.98 58.65 58.33 58.59 60.30 59.66 59.45 58.36 57.50 57.98 57.85 58.67 57.56 58.74 59.58 58.46 57.88 57.02 55.82 54.26 51.76 49.54 49.15 48.46 47.37 46.32 46.79 46.20 46.29 44.76
58.46 58.64 58.42 59.07 59.04 59.83 60.63 60.31 59.99 59.84 58.81 57.99 58.58 58.76 58.46 58.13 58.20 57.37 56.00 54.97 52.74 51.44 49.96 48.84 48.49 47.39 45.52 45.86 46.87 45.53 45.55 44.71

GFSFLT2_sfc_wetblb_054.txt.gz
Wetbulb
64.94 66.46 67.74 67.00 66.42 65.79 65.77 67.97 68.81 69.11 69.23 69.17 69.14 69.00 68.38 68.15 67.75 67.48 67.00 66.34 65.62 64.94 64.27 64.00 64.03 63.55 63.50 62.92 61.28 60.89 55.52 56.30
65.81 65.80 66.01 64.54 64.47 64.71 65.23 67.42 67.60 67.91 68.45 68.27 68.03 68.13 67.74 67.31 66.70 66.73 66.22 65.69 65.09 64.48 63.38 63.28 63.08 62.45 62.74 61.99 61.30 60.07 54.86 55.60
64.97 63.92 62.92 62.89 62.79 62.98 64.51 67.19 66.86 66.91 67.15 67.02 65.99 66.28 65.76 64.54 65.40 65.59 65.69 65.00 64.33 63.71 63.04 62.07 60.12 61.34 61.69 61.19 59.38 56.07 56.38 56.39
62.77 62.89 61.77 60.55 61.02 63.32 65.17 65.39 63.99 63.47 62.27 62.84 62.73 63.25 63.62 64.09 64.57 64.53 64.21 63.80 63.35 62.78 62.00 61.02 57.74 53.25 53.78 57.91 54.89 56.31 56.71 57.06
60.96 61.49 61.44 60.39 59.66 60.79 64.38 62.97 61.56 59.75 59.71 60.54 62.48 62.86 62.15 62.36 61.94 61.53 61.27 61.60 59.55 58.77 56.82 54.94 55.77 53.23 51.65 51.40 52.77 53.71 54.07 55.84
59.47 60.44 60.51 60.46 62.51 63.67 62.73 61.37 60.19 59.61 59.96 60.32 60.53 60.12 59.40 59.69 59.80 59.64 58.84 57.45 56.32 55.01 54.12 55.40 54.34 53.71 52.15 49.10 50.18 49.84 50.58 52.19
57.94 58.61 58.52 58.60 57.92 60.57 61.26 60.45 60.00 60.51 60.61 60.01 59.42 57.80 57.59 58.27 58.39 57.41 56.66 56.27 53.60 54.08 55.25 55.04 53.14 52.98 51.07 49.45 47.95 48.46 48.30 49.39
57.45 57.49 57.36 58.12 56.51 57.93 59.81 59.84 59.29 60.60 60.66 60.18 59.05 57.88 57.87 57.54 57.31 56.41 55.90 56.26 54.45 55.31 55.33 54.20 53.13 51.62 49.20 48.34 47.78 48.16 48.61 47.80
56.70 56.27 57.58 57.14 56.27 56.84 58.24 58.61 58.83 59.47 59.40 60.69 59.82 59.48 58.80 58.05 58.54 58.62 57.65 56.98 56.27 56.40 55.38 54.52 52.92 52.55 49.38 48.01 47.52 46.82 48.16 48.18
56.30 57.35 56.72 56.22 55.61 55.80 56.95 57.51 58.85 58.46 58.11 59.87 60.36 61.07 60.19 59.66 59.68 60.11 59.83 58.93 57.21 55.90 55.29 54.21 52.39 51.50 48.29 46.87 46.63 46.74 46.31 46.30
54.92 55.71 55.27 55.71 56.16 55.65 56.38 56.65 57.43 58.33 57.47 59.35 59.79 60.53 61.29 59.76 59.85 59.29 59.25 58.10 56.83 56.72 54.75 53.83 51.77 49.99 48.56 46.67 45.86 45.83 45.59 47.55
54.57 55.40 55.22 55.77 55.96 55.65 56.03 55.93 56.06 56.81 57.54 57.25 59.16 59.80 59.89 59.86 59.76 59.31 59.16 57.00 55.77 55.16 54.38 53.76 52.51 50.72 50.82 48.53 45.02 45.52 45.05 44.87
54.25 54.34 54.96 55.58 54.85 54.03 54.07 53.52 54.20 54.94 56.15 56.89 57.40 59.26 59.55 59.08 60.01 58.94 58.48 57.50 56.51 55.55 54.32 52.94 49.71 48.33 45.55 44.39 44.86 45.38 45.00 44.48
53.98 53.51 54.30 55.10 55.36 54.57 53.71 53.27 52.83 54.96 55.80 56.35 57.11 58.52 59.77 59.84 59.57 59.01 58.32 57.18 56.03 55.17 53.49 50.20 49.72 46.46 45.45 46.00 45.37 45.71 45.74 45.91
53.23 53.22 53.21 53.89 55.13 54.06 51.23 51.59 54.46 54.29 55.23 55.49 56.49 58.14 59.49 59.96 59.75 58.73 57.56 56.92 56.18 54.82 53.03 51.37 50.21 48.86 48.20 47.79 44.05 42.84 41.35 43.21
53.22 53.60 53.05 53.20 54.28 54.72 51.39 51.70 51.78 54.57 55.11 55.83 56.18 58.16 59.69 60.52 60.48 58.85 57.75 57.88 56.39 55.51 54.32 52.20 52.52 49.43 47.80 48.70 47.32 46.29 42.58 41.58
52.76 52.69 53.32 53.46 53.46 56.25 53.75 51.75 53.77 55.84 55.04 53.68 55.61 58.31 59.91 60.54 60.14 58.78 58.15 58.18 58.45 56.71 55.05 53.04 52.55 50.21 48.70 46.72 47.45 46.69 45.90 43.10
51.96 51.60 52.79 53.56 53.27 55.47 54.99 53.23 53.94 55.25 54.66 53.51 54.65 58.10 59.17 59.81 60.47 59.39 58.39 58.38 58.04 57.85 55.95 54.46 51.84 50.19 49.72 48.83 47.85 46.40 45.85 44.79
53.15 52.13 51.50 52.61 52.96 54.49 55.48 55.18 55.15 56.56 56.73 54.79 54.57 57.58 57.33 58.99 59.80 58.85 58.54 57.75 57.98 57.29 54.40 53.19 50.06 49.02 48.89 48.22 48.22 47.78 46.96 45.38
53.50 53.85 52.66 53.16 53.51 54.80 55.74 56.12 57.10 58.73 58.98 56.68 55.85 57.48 58.17 57.95 58.06 57.38 57.09 56.87 55.53 53.84 51.92 50.18 49.39 48.98 48.23 47.71 47.72 47.30 45.94 45.34

GFSFLT2_sfc_wetblb_057.txt.gz
Wetbulb
66.08 67.06 66.48 65.19 64.14 62.92 63.07 66.07 68.54 68.41 68.41 68.40 68.29 67.90 67.35 67.43 67.01 66.54 65.62 64.96 64.75 64.44 64.48 64.84 64.90 63.79 63.26 62.09 61.16 59.99 54.71 55.36
65.78 65.49 65.60 63.75 62.58 62.99 64.09 66.51 67.62 67.46 67.82 68.24 67.26 67.27 66.97 66.60 65.96 65.39 65.02 64.85 64.46 64.20 63.78 64.23 64.45 63.88 62.38 61.61 61.08 59.35 54.28 55.10
64.78 64.26 63.80 62.88 61.96 62.07 64.25 66.57 67.25 67.58 67.94 67.51 65.88 65.48 64.46 63.31 64.30 64.82 64.59 64.50 64.23 63.20 61.94 62.86 63.43 62.74 62.37 61.25 58.71 54.81 54.94 55.68
62.03 62.15 61.28 61.23 61.35 61.58 63.36 65.27 66.08 66.97 67.19 66.22 65.51 63.21 62.49 63.31 63.73 63.94 63.47 63.34 63.16 62.69 61.51 59.97 57.71 55.34 58.47 58.54 55.46 55.92 55.90 56.42
60.98 60.66 60.72 59.17 57.87 58.22 61.95 64.24 64.08 61.46 61.24 63.19 62.91 62.85 62.73 61.68 60.80 60.34 60.49 60.55 57.70 56.48 54.34 54.78 52.82 53.15 52.97 53.60 55.30 55.77 55.73 56.75
60.64 59.76 58.80 58.71 58.97 57.55 60.99 62.16 61.44 61.24 61.69 62.66 61.62 60.74 60.30 59.80 58.75 58.47 57.78 56.66 54.90 54.46 54.88 54.01 52.37 50.92 50.91 51.64 52.49 52.27 52.85 54.36
59.96 60.57 59.60 57.73 57.11 58.91 61.83 60.48 60.15 60.38 61.00 61.82 60.93 59.31 58.43 58.03 57.54 56.83 56.08 54.47 53.85 52.99 54.37 52.69 51.98 50.30 48.25 49.17 48.99 48.83 49.46 50.40
58.79 59.01 59.98 59.40 60.08 61.29 59.95 58.33 59.17 60.05 60.16 60.15 59.03 58.05 58.14 57.25 56.70 56.23 54.69 54.24 53.74 53.83 54.57 52.24 51.50 49.08 47.26 47.07 47.42 46.94 47.08 47.22
57.28 57.56 57.95 58.16 58.63 58.94 59.24 58.54 59.88 59.33 59.07 58.90 57.79 57.31 57.31 57.00 56.63 56.47 55.04 54.90 53.62 54.76 53.96 52.67 50.58 49.88 47.51 46.76 46.60 46.96 47.44 46.69
57.16 58.23 57.12 57.52 58.21 58.55 58.31 58.09 59.29 59.11 59.42 59.14 58.27 58.15 58.05 57.32 57.81 57.11 56.84 55.88 54.43 54.65 53.85 52.48 51.00 50.45 47.04 45.76 45.19 45.34 46.67 46.89
56.51 56.77 56.01 55.79 56.26 56.35 56.55 57.10 57.72 58.04 59.36 59.62 59.56 59.31 59.48 58.64 58.73 58.84 58.07 57.74 56.20 55.16 53.76 52.89 50.83 50.06 48.32 45.73 45.05 44.78 44.54 46.56
55.85 55.81 55.77 55.55 55.28 55.84 55.81 55.51 56.23 57.25 57.15 58.57 59.69 60.00 60.08 59.46 59.02 58.83 59.35 57.86 56.75 54.84 53.76 52.95 51.77 50.27 50.75 47.56 44.49 44.61 44.18 43.76
54.64 54.66 55.37 55.35 54.74 54.04 53.94 53.50 54.46 55.30 56.81 57.58 58.41 59.14 58.89 58.70 58.79 58.28 57.98 56.72 56.04 55.28 53.27 52.32 50.41 49.00 45.58 44.22 44.31 44.45 44.31 43.53
54.28 54.28 54.81 55.04 54.62 54.91 54.26 53.55 53.65 55.12 55.57 55.90 56.81 57.28 58.20 58.29 58.58 58.24 58.22 56.92 55.31 54.28 53.00 50.71 51.00 47.47 45.70 45.49 41.85 44.36 45.29 44.83
53.33 54.02 54.37 54.67 55.12 54.19 52.78 52.66 53.10 53.88 54.40 55.04 55.68 56.75 57.62 58.50 58.10 57.78 56.81 56.23 55.89 54.28 53.51 51.35 50.90 47.36 47.75 48.31 44.64 43.38 43.91 44.46
53.25 52.71 52.77 53.59 55.36 54.07 52.64 51.65 51.49 51.63 53.64 54.75 55.43 56.23 56.58 57.99 58.43 57.90 57.05 57.11 55.63 55.51 54.96 52.36 51.81 49.70 48.85 49.74 48.15 47.65 44.15 43.80
52.82 52.95 52.57 53.00 53.23 54.20 52.17 50.00 50.43 51.15 53.63 53.78 53.88 55.05 56.29 57.59 58.24 57.66 57.46 57.61 57.36 55.89 54.16 52.08 51.81 51.97 50.46 48.77 48.75 47.30 47.02 45.13
51.37 52.29 52.79 52.50 52.17 53.43 53.23 50.88 49.98 50.93 52.15 52.96 53.74 53.82 55.89 57.26 58.32 58.43 58.02 57.57 56.73 56.65 55.75 54.45 53.38 52.91 50.95 50.06 49.56 48.00 46.34 44.99
51.19 51.36 51.67 52.49 52.06 52.20 53.91 53.96 51.52 51.31 52.33 53.37 53.42 53.03 54.22 56.72 57.78 57.45 58.39 58.75 58.61 57.83 56.41 55.91 54.10 52.36 50.15 49.66 50.09 49.01 48.20 46.83
51.52 51.29 51.18 52.21 52.12 51.74 52.44 54.29 54.40 53.32 52.99 54.44 54.82 54.49 55.17 56.70 57.09 58.02 58.33 56.53 55.77 55.47 55.16 54.50 52.11 50.79 49.46 48.94 49.28 48.51 47.38 45.62

GFSFLT2_sfc_wetblb_060.txt.gz
Wetbulb
66.33 66.02 67.08 66.62 66.22 65.29 65.53 66.27 67.89 68.09 67.98 68.01 67.83 67.37 67.07 67.52 67.08 66.10 65.83 66.42 66.98 66.26 65.32 64.62 64.32 63.53 62.83 62.17 61.17 59.92 55.24 56.26
64.61 64.74 63.02 62.58 62.84 63.94 63.53 63.46 66.94 67.65 67.92 67.56 67.24 66.86 66.60 66.06 64.98 64.93 65.05 65.32 65.88 65.79 64.96 64.16 63.78 63.16 62.29 61.78 61.08 59.25 55.13 55.95
64.20 63.25 62.13 61.42 60.81 62.11 62.62 63.55 65.50 66.30 67.45 67.05 65.51 64.52 63.08 60.89 63.15 64.22 64.29 63.89 64.17 64.71 64.73 63.92 62.88 62.71 62.25 61.39 58.53 55.51 55.63 56.48
63.27 63.00 61.45 61.00 60.69 59.67 59.05 61.49 61.50 64.02 66.37 65.09 64.27 62.22 60.66 61.58 63.09 63.36 62.83 62.70 62.69 63.90 64.20 63.22 60.61 57.92 58.95 58.48 55.39 55.60 55.92 56.62
61.22 61.19 61.03 60.36 59.94 60.38 61.64 61.36 62.21 63.39 65.78 64.40 62.47 61.97 61.80 60.37 59.83 59.68 58.99 59.99 56.47 57.29 56.59 55.41 54.92 54.18 54.30 55.09 55.78 55.65 55.98 57.09
60.65 61.48 60.71 59.99 59.43 59.42 61.56 60.90 61.78 61.74 63.27 62.94 61.98 60.90 59.04 57.94 58.09 56.66 55.23 54.12 53.12 54.71 53.09 52.38 52.67 53.34 53.89 54.68 54.82 54.37 54.61 56.10
59.77 59.26 57.76 57.62 57.71 58.61 61.09 60.87 61.27 61.95 62.60 62.74 61.28 59.14 57.77 57.61 57.59 56.53 54.60 53.69 53.23 53.67 51.98 51.44 50.87 50.79 52.10 52.26 51.92 52.45 53.09 54.03
59.53 58.54 58.29 58.14 56.17 59.48 60.05 60.00 59.48 61.10 61.92 61.73 59.80 58.67 57.58 57.26 56.43 54.65 53.62 52.68 53.46 54.09 52.43 51.25 50.05 48.81 48.50 49.12 48.99 48.92 49.36 49.40
58.49 59.19 58.92 58.41 57.61 59.91 58.97 59.16 59.72 59.84 60.56 59.00 57.66 57.66 56.89 56.17 56.28 55.42 54.46 52.82 53.69 54.56 52.62 51.71 49.12 48.19 47.33 47.74 47.85 47.56 47.36 47.39
58.14 59.19 58.90 58.92 59.16 59.16 58.19 58.85 59.19 59.52 58.70 58.32 57.51 57.55 57.01 56.04 56.03 55.85 55.17 53.97 54.14 54.07 52.76 51.21 50.27 48.57 46.63 46.29 46.67 47.20 48.02 47.05
57.15 57.36 57.78 58.42 58.93 57.88 57.45 57.90 58.04 58.55 58.78 57.89 57.43 57.72 57.42 56.54 56.24 56.35 56.08 55.35 53.93 54.49 53.11 52.63 50.68 50.45 48.28 46.54 45.75 45.63 46.26 47.70
56.54 55.97 56.14 56.50 56.85 56.53 55.82 56.32 56.99 58.53 58.36 58.21 58.71 58.32 58.00 57.24 57.64 57.60 57.31 56.64 55.27 54.66 53.91 52.98 52.19 50.93 50.54 47.84 45.68 45.39 45.05 44.82
55.49 54.95 55.49 55.45 55.80 55.60 55.27 54.80 54.71 56.11 56.94 58.77 59.33 59.26 59.38 58.52 58.54 58.29 58.20 57.28 56.58 55.82 53.68 52.72 51.23 50.22 47.63 46.53 45.95 45.35 44.87 44.55
54.84 54.85 55.27 55.33 56.89 57.00 55.42 54.36 54.19 55.22 55.97 56.65 58.16 58.70 58.93 58.76 58.81 58.23 57.92 57.14 55.98 54.81 53.70 51.83 51.67 48.79 47.36 45.18 43.72 45.23 45.79 45.61
54.38 54.48 54.83 55.09 55.51 54.96 52.60 52.93 54.27 53.36 54.14 54.45 55.61 56.57 57.27 58.43 57.98 58.12 57.42 57.08 55.33 53.99 53.28 52.19 50.96 48.53 47.77 49.19 44.35 43.29 44.06 45.16
54.22 54.47 54.58 54.55 54.87 54.26 52.82 53.18 53.05 52.94 53.57 54.46 55.24 56.36 55.72 57.06 57.26 56.78 56.56 56.22 55.41 54.87 54.70 52.97 51.81 49.09 47.12 48.52 49.01 48.41 45.23 44.08
53.50 53.00 54.19 54.49 53.67 53.27 51.94 49.57 51.23 51.40 53.70 54.00 54.64 55.25 55.16 55.58 56.59 56.56 56.40 56.38 56.00 55.03 53.75 52.05 51.86 50.14 48.19 47.18 47.66 47.83 48.12 47.02
52.79 51.59 52.13 53.17 53.37 53.06 52.42 51.27 50.11 49.55 49.93 51.39 52.46 53.22 53.81 55.21 56.12 55.77 55.87 55.98 56.02 55.74 54.76 54.74 53.88 53.33 51.58 50.73 49.45 47.90 47.11 46.57
50.95 51.95 51.19 51.61 51.77 52.92 53.02 51.64 50.64 50.01 49.28 49.89 50.94 51.76 51.93 53.27 54.97 55.33 55.32 56.26 57.04 57.14 56.72 56.16 55.24 54.11 53.63 53.11 52.29 51.45 50.35 48.99
50.99 51.10 51.40 51.83 51.03 50.88 52.10 53.31 52.54 51.46 50.61 50.50 51.25 52.00 52.47 53.44 54.32 55.33 55.67 56.12 56.96 57.56 57.16 56.50 55.48 54.52 53.28 52.70 51.61 50.45 49.51 47.96

GFSFLT2_sfc_wetblb_063.txt.gz
Wetbulb
68.09 67.65 67.83 67.62 67.30 66.95 67.72 68.31 68.65 68.48 68.23 67.84 68.03 67.50 67.44 67.65 66.94 67.17 67.35 67.68 66.82 65.79 65.31 64.73 64.19 63.57 62.95 62.29 61.53 62.25 61.79 61.86
67.89 66.70 67.62 67.69 67.22 65.21 66.41 67.10 67.33 67.80 67.51 66.94 66.56 66.60 66.88 66.82 66.01 66.96 67.38 67.25 66.33 65.41 64.80 64.40 63.86 63.22 62.42 62.01 61.33 61.50 61.73 61.83
66.59 65.10 65.86 66.76 65.64 65.36 65.89 65.16 66.80 66.97 67.15 66.47 65.80 67.58 66.41 64.64 64.39 65.85 66.69 65.79 65.11 64.64 64.32 63.66 62.92 62.64 62.18 61.12 60.81 61.24 61.47 61.62
63.71 63.21 62.94 63.31 62.21 62.04 63.22 64.06 64.13 65.28 66.42 66.47 65.65 65.20 63.53 62.83 64.15 64.21 64.76 64.91 64.59 64.17 63.81 63.14 61.88 61.34 61.02 60.00 60.43 61.28 61.11 61.62
63.11 60.87 60.40 60.73 59.48 59.37 61.47 63.37 63.73 63.95 65.50 64.99 64.49 63.00 63.50 64.19 63.14 62.92 63.68 64.03 64.11 63.60 62.68 61.42 61.15 60.67 60.00 60.09 60.65 60.95 61.08 61.59
60.66 60.34 60.23 59.87 59.53 58.82 59.66 60.34 61.53 62.80 63.81 65.28 63.46 61.87 62.47 61.83 61.01 60.87 61.15 61.43 62.99 62.80 60.90 61.14 60.71 60.11 60.09 60.24 60.27 60.44 60.85 61.58
60.55 61.05 60.64 59.99 59.51 60.03 60.54 60.27 61.39 61.61 63.12 64.81 62.09 60.79 60.32 61.15 60.48 60.03 59.49 60.01 60.65 59.62 60.12 59.82 59.57 59.73 59.98 59.66 59.54 60.21 61.08 61.34
59.88 59.82 59.61 59.78 59.23 60.24 61.55 61.61 61.25 61.66 63.56 64.54 63.10 60.97 60.88 60.42 59.73 59.08 58.99 59.64 59.38 59.67 59.34 59.07 58.92 59.06 58.48 58.65 58.11 59.03 60.16 60.90
58.19 58.27 58.49 57.74 59.77 60.19 60.75 60.82 61.16 61.22 63.40 64.07 62.29 61.16 61.64 61.30 60.37 58.93 58.83 59.34 58.90 58.06 57.65 57.19 56.13 56.28 56.27 56.06 55.76 56.40 56.20 57.13
59.13 59.04 57.88 57.61 59.89 59.49 60.38 60.39 61.33 60.97 61.47 62.64 61.72 61.47 61.33 60.58 59.58 59.14 59.70 59.82 59.65 58.05 57.07 55.87 54.48 53.90 53.66 53.69 54.01 54.28 54.43 54.30
58.61 58.33 58.39 58.16 59.12 59.28 59.36 60.23 61.21 60.86 60.20 60.62 60.83 60.87 60.86 60.50 59.50 59.69 59.84 59.42 59.61 58.64 57.41 57.03 54.91 53.64 53.41 53.29 53.66 53.54 53.99 52.58
57.86 58.71 58.26 58.88 58.23 59.46 58.77 58.52 60.54 60.92 60.23 59.37 60.87 60.03 60.15 60.25 60.33 60.07 60.24 58.97 59.56 59.22 58.20 57.77 56.38 55.70 53.31 52.24 52.59 52.37 52.48 52.60
56.76 56.25 57.67 58.19 57.25 56.79 56.55 57.36 59.65 60.36 60.48 59.35 60.47 59.92 60.24 60.73 60.75 60.52 60.50 59.90 59.54 59.11 58.88 57.54 56.44 56.19 54.16 54.03 53.54 51.98 52.01 52.30
56.38 55.95 56.76 57.59 58.07 57.99 57.48 58.66 58.54 59.41 59.97 59.75 60.29 59.71 60.56 60.74 60.90 60.77 60.39 60.32 59.54 59.33 58.82 58.02 58.37 56.20 55.51 54.46 53.10 52.77 52.45 52.87
56.12 55.83 55.78 56.28 57.49 56.09 55.46 55.22 55.88 56.92 57.98 59.23 60.10 60.75 61.23 61.60 61.53 61.02 61.17 61.48 60.17 60.17 59.52 58.53 57.75 56.04 56.34 57.15 51.75 52.08 53.51 53.16
56.85 56.11 56.11 56.02 56.80 55.98 55.86 55.88 54.43 56.91 57.14 59.40 58.60 60.25 60.75 60.62 60.36 60.26 60.93 61.34 60.46 60.04 59.70 59.76 59.39 57.03 54.55 54.41 55.31 55.52 52.80 52.55
56.59 55.97 56.71 55.80 56.08 55.92 54.20 55.23 56.57 55.12 55.24 57.46 58.04 58.30 59.01 59.19 58.85 60.08 60.50 61.18 61.46 61.40 60.18 59.20 59.20 58.88 57.08 54.30 54.23 54.41 54.25 52.02
56.36 55.64 56.49 55.84 55.30 56.04 55.00 54.41 54.15 53.91 53.55 54.46 55.77 57.96 57.97 59.20 59.11 59.93 61.01 60.75 60.83 61.31 61.31 60.40 59.49 58.65 57.69 56.64 55.72 51.13 52.50 50.18
55.49 55.28 55.30 55.96 55.29 55.36 55.11 56.13 55.06 55.52 54.04 55.10 56.27 57.27 57.52 58.01 59.41 59.61 60.23 60.74 61.13 61.53 61.07 60.53 60.06 58.44 56.25 54.37 53.19 54.15 56.88 52.39
54.61 54.28 54.39 55.54 55.51 55.86 56.33 56.31 56.11 55.75 55.57 55.83 56.62 57.73 58.69 58.67 58.87 59.58 60.19 60.72 60.97 61.22 60.79 60.79 60.25 56.19 55.37 56.17 56.72 56.80 57.24 54.48

GFSFLT2_sfc_wetblb_066.txt.gz
Wetbulb
69.35 69.08 68.33 67.61 67.29 68.00 68.01 68.67 68.96 68.64 68.79 68.82 68.87 68.38 68.16 68.45 68.52 68.52 68.48 67.00 66.08 65.92 65.30 64.84 64.30 63.57 62.81 62.65 62.64 63.66 63.86 63.73
68.75 69.77 68.63 69.56 70.20 66.54 66.96 67.84 67.57 67.74 68.22 67.96 67.24 67.31 67.23 66.86 66.96 68.03 67.66 66.77 65.88 65.39 64.98 64.50 63.84 63.15 62.52 62.18 61.99 62.91 63.87 63.61
69.09 68.31 68.33 67.68 68.74 68.21 67.62 67.20 67.09 67.06 67.46 66.50 65.96 67.62 66.97 66.35 66.13 67.01 66.56 65.41 65.10 64.96 64.40 63.79 63.11 62.81 62.42 62.02 61.93 63.27 63.77 63.44
67.82 67.43 67.67 67.41 66.65 67.61 67.44 65.87 66.22 66.35 66.14 65.75 66.66 67.08 66.73 64.97 65.97 65.80 65.42 64.53 64.40 64.36 63.81 62.96 62.30 62.12 62.14 61.33 62.63 63.24 63.52 63.43
66.04 66.05 64.74 65.14 66.34 63.66 64.87 64.53 64.93 64.79 65.58 65.43 66.39 66.50 65.36 65.34 66.67 66.86 65.83 63.79 63.77 63.48 62.74 62.92 62.55 61.71 61.16 62.00 62.85 63.13 63.44 63.04
62.51 63.61 61.86 61.65 61.89 62.43 62.21 61.50 62.54 63.08 63.07 64.61 64.90 63.69 64.62 64.53 65.34 65.57 64.99 64.42 64.01 63.60 63.23 63.64 63.04 62.01 61.61 61.91 62.41 62.65 63.13 62.97
62.08 60.72 60.19 59.86 60.49 61.58 60.96 60.96 61.33 61.94 62.23 63.04 65.38 63.53 63.45 62.85 64.65 65.35 65.05 65.45 64.90 63.88 63.69 62.89 62.27 61.78 61.74 61.19 61.55 62.29 62.95 62.83
60.64 60.87 60.84 60.25 59.57 60.93 60.79 61.21 61.16 62.07 62.07 62.67 64.48 63.51 63.06 62.22 62.62 62.71 63.46 64.75 64.93 63.87 62.97 62.16 61.69 61.59 61.23 60.89 60.48 61.40 62.06 62.92
60.72 60.28 60.29 59.81 59.48 60.00 60.65 61.54 61.47 61.41 61.64 63.22 65.02 63.86 63.33 63.31 61.86 61.64 62.47 63.63 63.76 63.26 62.62 62.13 61.01 60.84 60.40 60.28 59.52 60.17 60.57 61.05
59.80 59.62 59.28 59.77 59.55 60.08 61.26 60.66 60.27 61.12 61.70 62.13 63.37 63.16 63.15 62.70 61.81 61.82 63.00 62.60 62.08 61.47 61.63 60.97 60.52 60.00 58.93 58.21 58.33 58.47 58.63 59.00
59.33 58.81 57.44 59.63 60.15 61.59 61.74 60.85 60.24 61.38 62.14 62.82 62.12 62.60 62.79 61.66 61.10 61.44 62.98 62.18 61.52 60.99 60.85 60.67 59.14 58.70 57.93 57.57 57.56 56.98 57.33 56.62
59.52 59.27 57.57 59.95 61.21 60.28 60.76 60.68 60.34 60.94 60.86 62.19 62.64 61.91 62.30 61.83 61.60 61.74 62.19 62.22 62.08 61.56 61.28 61.31 60.39 59.53 57.30 56.71 57.06 56.90 57.49 56.79
58.82 57.54 57.62 59.67 59.36 58.31 58.45 58.67 60.10 59.62 59.52 60.28 62.39 61.44 61.94 62.90 61.68 61.44 61.92 61.47 62.59 62.38 61.79 60.74 59.75 60.56 58.21 57.60 56.79 56.62 57.00 57.37
57.81 58.24 59.45 58.96 59.37 58.90 60.16 60.49 59.97 60.03 59.47 59.97 61.18 62.23 60.57 60.76 62.15 61.05 61.77 61.76 62.08 62.21 61.92 60.47 60.86 60.39 58.97 59.27 56.30 57.10 57.46 57.00
58.01 57.87 58.25 60.02 59.58 59.71 57.86 58.06 58.27 59.17 59.54 59.38 60.29 61.04 59.40 60.18 61.49 62.09 62.46 62.45 61.26 61.73 61.64 61.54 59.68 60.61 61.07 59.47 55.90 54.67 59.14 59.44
59.07 58.09 57.75 58.45 58.99 57.69 57.75 55.25 54.34 60.13 60.12 59.82 59.15 61.33 59.90 60.07 62.09 62.75 62.63 62.81 61.88 62.11 62.08 61.64 61.79 59.70 60.39 60.61 61.72 60.19 55.73 54.66
59.50 58.98 57.67 57.71 57.72 57.22 56.48 55.43 56.09 58.66 59.04 59.99 58.41 59.91 61.12 61.11 62.27 62.66 62.28 63.12 62.83 63.63 62.26 62.49 62.59 62.02 60.47 60.28 59.74 59.84 59.75 56.96
59.00 59.43 58.44 57.64 57.20 57.83 56.59 58.04 58.08 58.05 57.23 58.25 57.49 58.00 59.93 59.84 60.29 61.56 62.03 61.87 62.37 61.84 63.25 63.54 62.98 62.75 62.23 61.82 60.15 58.75 57.29 57.25
57.81 58.51 58.22 58.54 56.84 57.46 57.30 57.47 56.92 55.88 56.85 56.66 57.20 57.33 57.49 58.11 60.66 61.26 60.99 60.77 61.47 61.20 62.44 62.94 62.88 62.23 62.11 61.83 61.74 60.41 57.55 55.31
58.84 58.84 58.67 58.64 58.80 58.58 59.10 57.93 57.32 58.55 57.36 57.42 56.50 57.65 59.08 58.72 60.16 60.85 60.73 61.76 62.26 62.45 63.00 62.42 63.21 62.66 62.58 62.56 61.77 59.88 55.65 58.08

GFSFLT2_sfc_wetblb_069.txt.gz
Wetbulb
71.05 71.19 69.31 66.76 64.21 63.00 62.15 64.83 69.36 69.34 69.12 69.19 69.00 68.29 68.20 68.57 68.59 67.80 67.10 66.82 66.46 65.91 65.48 65.15 64.54 63.96 63.57 62.58 62.38 63.74 63.86 63.12
70.96 71.02 69.30 67.44 66.70 63.57 65.93 66.81 67.95 68.31 68.78 68.36 67.77 67.89 68.19 68.18 67.89 67.10 66.75 66.36 65.83 65.41 64.98 64.74 63.98 63.44 62.72 62.47 62.05 62.82 63.53 63.03
69.70 69.87 69.47 69.31 68.91 68.74 67.03 67.14 67.31 67.83 68.30 67.25 66.38 68.24 68.27 68.31 66.86 66.11 65.80 65.36 65.23 65.13 64.78 64.08 63.46 62.93 62.58 62.52 62.56 63.58 63.31 62.66
68.29 68.74 69.11 69.46 68.87 68.85 68.40 66.53 67.64 67.85 67.94 66.51 66.35 67.02 68.01 67.40 66.44 65.11 64.76 64.60 64.43 64.39 63.91 63.18 62.25 60.98 61.50 61.67 63.21 63.88 63.36 62.57
66.59 67.36 69.06 69.04 69.35 69.50 67.49 67.45 66.56 65.90 65.90 66.47 66.20 65.75 65.09 66.93 66.78 64.80 64.08 63.57 62.45 62.33 61.90 61.51 61.18 60.50 62.20 63.21 63.58 64.00 63.29 62.67
66.20 66.89 66.61 65.52 67.81 66.01 65.92 66.47 64.66 63.98 63.88 63.82 63.11 63.28 63.74 66.13 65.61 63.84 63.00 63.29 62.50 61.49 61.69 63.59 62.44 61.31 62.23 63.06 63.39 63.39 63.01 62.55
62.83 62.44 64.77 64.15 63.01 64.47 65.69 63.58 63.67 63.07 62.57 62.44 62.00 61.99 63.44 65.34 64.68 63.87 63.60 64.95 63.22 62.40 63.25 62.62 62.20 61.70 61.84 62.37 62.58 63.33 63.31 62.55
62.26 61.07 61.01 61.81 63.99 61.87 62.82 62.71 62.22 62.03 61.95 62.14 62.14 62.43 63.57 64.50 64.78 65.32 64.65 65.19 64.15 63.57 63.16 62.31 61.56 61.47 61.05 61.90 62.12 62.91 63.31 63.12
61.62 59.93 60.53 60.18 60.56 61.24 60.68 61.24 60.94 60.44 61.01 62.19 62.15 62.79 64.29 64.56 65.08 64.22 65.21 64.21 66.01 64.70 63.05 62.35 61.36 61.26 60.70 60.94 61.25 62.26 62.23 62.72
61.87 60.58 60.31 59.85 60.15 60.65 60.36 60.89 60.62 60.01 59.67 61.52 61.83 63.36 65.23 64.77 63.72 63.43 64.74 65.24 64.64 63.14 61.96 60.63 60.48 60.56 60.13 59.95 59.87 60.54 60.92 61.34
60.30 60.71 60.22 60.10 59.89 60.91 61.23 60.62 60.76 60.44 59.90 60.74 61.92 63.49 64.29 64.21 63.06 63.37 65.65 64.20 64.05 62.96 61.98 61.69 60.37 60.11 59.25 59.03 59.02 58.65 59.01 58.84
60.03 59.82 59.76 59.38 60.83 61.03 59.93 59.75 60.03 60.63 60.31 60.65 62.42 62.68 63.17 62.64 62.82 63.99 63.82 61.85 61.62 62.28 62.37 61.99 61.34 60.53 58.64 57.75 58.60 58.46 58.19 58.01
59.02 57.88 58.42 59.07 59.43 59.39 57.98 57.69 58.54 59.08 59.23 60.84 61.84 62.92 62.68 62.89 61.54 62.50 62.58 61.92 61.67 62.92 62.64 62.38 60.81 61.48 58.46 57.67 58.13 58.59 58.82 58.43
59.27 58.64 58.80 59.03 60.49 60.23 59.69 58.26 58.89 58.07 59.24 59.96 62.53 63.20 62.43 61.95 61.69 61.86 62.41 62.18 63.48 63.38 62.74 60.96 60.89 62.14 58.03 58.25 55.11 56.40 57.61 58.97
59.09 59.16 59.20 59.60 60.34 60.14 59.45 59.20 58.95 57.44 57.89 58.53 60.58 62.27 62.21 61.67 62.95 62.56 61.90 63.31 62.91 63.41 63.65 62.74 59.42 61.61 61.57 60.35 55.50 54.06 57.50 59.97
59.84 59.67 59.75 59.52 60.50 60.02 58.57 58.70 57.22 57.30 57.28 58.74 58.92 61.84 61.24 62.00 62.68 61.66 62.28 63.52 63.52 63.40 63.65 63.40 60.99 58.40 60.86 60.77 61.96 60.78 56.19 53.67
59.43 59.18 59.22 60.14 60.43 60.44 58.49 56.70 59.77 58.38 57.60 57.88 58.79 59.78 61.25 60.71 60.68 60.72 60.37 63.35 63.37 64.02 62.88 62.65 62.04 59.52 58.47 61.06 60.70 59.98 60.45 57.10
59.77 58.66 58.57 59.43 60.18 59.92 58.70 58.19 58.63 56.67 58.06 57.87 57.73 58.92 61.32 61.73 60.05 60.01 61.00 61.54 62.70 62.12 60.87 61.05 60.98 62.21 60.89 61.69 60.20 58.19 57.33 57.90
60.05 59.32 57.84 58.32 58.46 59.37 60.49 59.21 56.78 56.70 58.77 59.26 57.91 57.93 59.09 61.12 60.01 58.88 58.80 59.71 60.89 61.81 59.62 61.21 61.56 61.99 61.98 60.76 60.96 60.82 61.03 60.37
60.80 59.80 58.65 58.62 58.14 58.30 60.07 60.04 59.58 58.88 59.91 60.85 59.45 58.72 57.73 59.93 60.29 59.49 61.05 60.77 61.55 61.66 62.03 60.47 62.43 60.57 61.75 61.39 61.90 61.80 62.08 61.76

GFSFLT2_sfc_wetblb_072.txt.gz
Wetbulb
71.48 69.96 67.60 68.23 66.88 65.27 64.17 63.30 63.43 67.63 69.51 69.48 68.96 68.25 68.16 68.35 68.10 68.04 67.71 67.39 66.88 65.92 65.91 65.63 65.21 64.09 63.16 62.89 62.89 64.86 60.46 60.35
70.07 70.51 68.72 65.65 64.43 63.81 63.02 62.35 64.26 65.55 68.46 68.37 67.54 67.43 67.77 67.59 67.08 67.16 67.06 66.69 65.86 65.24 65.35 65.07 64.16 63.12 62.61 62.68 62.30 64.19 59.88 59.89
69.41 68.62 68.88 67.66 64.54 63.92 64.01 63.68 63.27 64.51 68.30 67.42 66.26 67.00 67.12 66.14 65.82 66.04 66.10 65.51 65.33 65.09 64.61 64.03 62.97 62.47 62.83 62.58 62.63 60.77 60.36 59.67
67.94 67.61 67.66 67.38 66.83 63.99 63.74 64.42 62.72 65.50 67.36 66.83 66.72 66.60 66.53 65.93 65.30 65.01 64.96 64.57 64.50 64.41 63.69 62.78 61.61 58.71 58.66 60.76 58.93 61.05 59.90 59.39
66.21 66.50 66.42 66.39 65.56 65.65 65.83 63.69 62.18 63.25 66.04 65.83 65.94 66.05 65.14 64.74 63.53 63.35 63.25 63.51 61.86 61.93 60.84 58.42 57.31 58.17 58.49 58.95 60.37 60.74 59.67 59.32
65.92 65.98 66.17 66.20 66.59 65.58 65.82 65.06 65.50 65.45 65.29 65.52 65.03 63.98 64.47 63.53 60.89 60.93 59.92 59.93 59.08 58.59 57.93 58.42 57.16 58.62 59.77 60.19 60.64 60.51 59.36 59.12
64.20 63.92 65.23 64.58 64.96 65.62 65.69 65.10 64.48 63.92 63.16 62.62 63.20 62.87 62.52 62.89 60.39 59.80 59.81 59.86 59.18 57.59 58.60 58.95 58.12 57.83 59.83 59.92 60.96 60.41 59.39 58.99
62.76 61.36 62.45 63.66 62.77 63.68 64.05 63.82 62.76 62.52 62.10 61.73 62.06 62.24 61.87 62.20 60.66 59.56 60.48 59.96 60.28 58.82 60.07 59.17 58.10 58.09 58.75 59.33 59.72 60.77 59.66 59.18
60.45 60.19 61.05 61.49 62.44 62.36 63.17 62.62 61.92 61.02 61.01 60.57 61.22 61.55 61.28 61.28 61.65 59.85 60.77 60.98 60.88 60.04 59.95 59.25 58.12 58.15 57.54 58.54 59.15 59.39 60.57 59.21
60.42 60.38 60.32 60.32 60.67 61.48 61.80 61.72 61.26 60.41 60.69 60.84 60.47 61.53 61.34 60.80 61.42 61.77 61.61 61.40 61.54 61.08 59.05 58.23 57.42 56.74 55.96 56.15 56.98 57.94 58.74 59.16
60.21 60.19 60.22 59.86 60.24 60.08 60.80 60.60 59.94 60.09 60.41 60.84 61.00 61.05 61.48 61.16 61.32 62.05 62.63 61.73 61.44 59.91 58.71 57.59 56.83 56.64 56.41 55.70 55.79 55.79 56.90 57.69
60.15 60.37 60.61 59.84 60.24 59.93 59.81 59.39 59.16 59.16 59.97 60.45 60.16 59.84 60.89 61.58 61.33 60.91 62.31 60.85 60.30 59.62 58.43 58.79 57.98 56.89 56.76 55.65 54.90 54.84 54.96 54.90
59.58 59.38 59.33 59.46 59.13 58.10 57.96 57.80 58.27 57.61 58.57 59.79 60.16 60.77 61.20 61.42 61.17 61.62 61.05 59.54 59.29 60.09 59.56 58.62 58.40 58.26 55.73 54.25 54.66 55.46 54.82 54.28
58.59 58.54 58.87 59.21 59.71 58.86 58.53 58.61 58.68 57.81 58.00 59.41 60.25 60.41 60.57 60.37 60.24 60.12 60.34 60.04 59.55 59.34 58.93 57.96 57.93 58.00 54.51 53.65 51.15 52.39 53.71 54.87
57.79 58.52 59.18 59.51 59.66 59.25 58.63 58.37 57.98 57.09 56.80 57.44 58.98 60.25 60.34 60.29 59.77 59.41 59.99 59.92 59.73 59.88 59.79 58.46 56.64 57.52 57.96 55.60 51.58 50.73 52.70 53.91
59.24 58.75 58.76 59.35 60.03 58.64 57.36 56.27 54.77 55.66 55.39 56.52 58.42 59.97 59.89 60.18 60.11 59.84 59.75 60.20 60.51 60.15 61.13 59.32 58.83 55.93 57.38 59.10 57.95 57.14 52.75 52.48
59.55 59.23 58.91 59.37 59.32 58.68 57.85 56.80 56.82 56.86 55.41 55.45 57.72 58.51 59.30 59.92 60.09 60.31 59.67 59.56 60.71 60.25 60.06 59.68 59.20 57.03 56.56 56.21 56.27 56.67 56.68 52.89
59.64 59.59 58.99 58.85 58.94 58.83 58.66 57.83 57.00 56.34 55.33 55.05 56.81 57.32 59.27 59.09 60.03 60.46 59.88 60.90 60.66 59.61 59.73 59.45 58.18 57.38 57.27 57.52 56.28 54.62 54.62 53.47
58.82 58.47 57.95 58.96 58.75 58.64 58.70 58.62 57.92 57.18 55.58 55.21 56.24 56.57 57.28 58.80 58.85 59.29 58.60 59.26 60.35 60.41 58.99 58.49 58.04 57.11 56.73 56.46 57.15 56.70 57.26 56.19
58.41 58.42 58.15 58.67 59.04 58.55 58.79 59.02 58.04 58.32 57.54 56.53 56.29 56.97 57.81 58.83 59.11 58.81 58.70 59.00 58.89 58.42 57.81 58.23 57.60 57.54 56.90 57.17 57.09 57.23 57.09 56.78

GFSFLT2_sfc_wetblb_075.txt.gz
Wetbulb
67.68 68.20 68.54 68.06 67.28 66.76 65.68 66.31 64.79 63.48 63.65 68.49 68.84 68.91 68.57 68.87 68.56 68.39 68.16 67.63 67.22 66.81 66.48 66.01 65.25 64.38 63.10 62.61 63.00 62.57 59.28 59.69
67.96 67.66 65.75 65.09 63.56 64.73 64.73 64.69 64.03 63.90 63.21 65.09 67.30 67.51 68.05 68.04 67.69 67.51 67.38 67.12 66.64 66.29 65.78 65.03 64.36 63.06 62.57 63.17 62.48 62.02 59.07 58.29
65.81 67.01 64.67 63.39 62.64 63.34 64.41 64.59 64.56 63.67 63.81 62.17 65.96 66.64 66.16 65.88 66.24 66.42 66.35 65.91 65.82 65.61 64.84 63.77 63.00 62.53 62.56 62.64 61.79 59.01 58.97 58.91
64.91 64.66 65.30 63.92 63.59 63.12 61.97 62.19 62.84 63.38 63.25 61.93 66.18 65.33 64.62 65.27 65.43 65.29 65.10 65.03 64.85 64.45 63.57 62.81 60.79 57.34 57.49 59.97 59.17 58.93 58.89 58.67
62.73 63.58 63.72 64.72 63.92 62.79 62.35 61.33 61.85 62.52 61.68 62.18 65.65 64.67 64.37 64.06 63.70 63.39 63.28 63.73 62.02 61.26 60.24 57.49 56.94 56.59 56.54 57.14 58.43 58.62 58.75 59.04
61.96 62.65 63.28 63.43 64.52 62.74 63.00 60.87 61.44 62.15 64.35 65.62 65.15 63.94 63.08 62.17 61.44 61.28 60.99 60.31 58.96 57.34 55.62 56.04 56.32 57.46 57.57 58.32 57.94 57.94 58.23 58.51
59.47 60.04 62.34 63.26 63.57 63.98 64.38 62.80 62.40 61.88 64.24 64.72 64.74 63.77 61.31 60.58 60.42 59.31 57.33 58.53 57.60 55.79 55.79 54.95 55.66 56.29 57.77 58.66 58.01 57.84 58.08 58.53
58.67 58.15 59.29 62.92 62.05 63.06 64.66 64.51 64.37 63.20 63.43 63.45 64.00 63.03 60.57 59.48 58.63 57.37 57.12 56.94 55.70 56.42 57.35 55.26 54.82 55.89 56.75 58.12 58.10 57.72 57.84 57.78
57.62 58.10 58.54 61.32 60.79 62.82 63.29 63.53 63.55 62.35 62.37 62.54 62.65 62.40 61.12 59.66 57.93 58.27 58.77 57.90 56.04 56.96 57.64 57.12 55.25 56.86 56.29 56.86 59.01 57.64 57.59 57.56
58.36 60.03 58.71 59.63 61.32 62.39 62.28 62.68 62.83 62.04 61.61 61.62 61.27 61.11 61.56 60.33 58.32 58.58 59.26 58.72 57.62 57.92 57.86 56.66 54.95 54.50 54.10 55.16 56.33 57.93 57.57 57.39
56.87 57.65 59.35 59.48 60.24 61.47 62.01 61.60 61.14 61.29 60.45 60.71 60.62 60.72 60.74 60.93 59.64 59.32 60.01 58.93 58.66 59.21 57.14 56.57 54.52 53.92 54.19 53.27 54.11 56.43 57.32 57.99
57.96 58.39 59.33 59.56 59.41 60.42 60.28 60.05 60.22 60.31 59.88 59.73 60.34 60.35 60.55 60.28 60.93 60.85 60.94 59.11 59.09 58.40 57.12 55.41 55.66 55.25 56.30 54.03 53.19 53.95 55.12 56.48
58.71 58.25 58.77 59.20 58.48 58.09 58.09 57.35 58.77 59.00 59.48 59.61 60.07 60.09 60.46 60.29 60.63 60.29 60.77 59.71 58.68 57.77 56.17 55.87 54.65 55.08 52.40 51.13 52.09 53.12 53.12 53.07
58.82 58.17 58.72 59.10 58.87 58.57 58.51 57.87 58.23 59.04 59.51 59.17 59.21 59.04 59.60 59.53 59.88 59.54 60.36 59.48 58.97 57.04 56.77 56.04 55.88 55.41 52.01 51.85 49.48 51.25 51.72 51.80
57.99 57.48 58.27 59.12 59.27 58.78 58.82 58.49 57.75 57.00 57.95 57.59 58.11 59.04 59.85 59.67 60.00 59.73 59.71 59.59 58.16 57.12 56.81 56.00 55.11 55.90 55.08 53.64 50.56 48.04 49.88 52.26
58.11 58.18 58.26 59.19 59.13 57.96 57.55 56.52 55.21 55.98 56.84 57.43 57.92 59.57 59.17 58.98 59.00 58.38 58.57 58.29 57.68 57.91 58.06 56.87 56.84 55.03 55.92 57.82 56.21 54.97 50.95 49.18
57.50 58.37 58.39 58.69 59.05 58.24 57.36 56.38 56.83 56.89 56.30 56.40 57.35 58.19 59.19 58.82 58.70 57.89 56.99 57.47 57.99 58.45 57.96 58.04 57.32 55.93 54.85 54.58 54.36 54.84 54.54 51.92
57.96 57.69 57.73 58.66 58.87 58.09 57.23 56.52 55.85 55.30 55.25 55.04 56.14 57.20 58.19 58.34 58.29 57.76 57.04 57.21 58.22 58.79 58.40 58.13 57.32 56.59 56.65 56.20 54.05 52.92 52.45 51.75
58.09 57.39 56.65 58.19 58.37 57.81 57.26 56.87 55.52 55.13 54.05 53.69 54.48 56.06 56.34 56.89 57.22 57.91 57.83 57.69 58.18 58.94 58.76 58.46 57.66 56.74 56.30 56.10 56.87 56.14 56.20 55.60
57.54 57.78 57.68 57.77 58.08 57.87 58.25 57.98 56.39 55.50 54.50 53.40 54.31 56.11 56.76 58.46 57.80 59.05 57.91 57.65 59.61 58.34 58.08 58.05 57.96 57.44 56.74 56.65 56.32 55.88 56.41 56.19

GFSFLT2_sfc_wetblb_078.txt.gz
Wetbulb
67.07 68.35 70.12 69.99 69.21 68.22 65.39 65.39 65.40 64.80 63.62 63.74 64.37 67.69 68.14 69.54 69.49 69.22 68.70 68.43 68.27 67.63 66.54 65.84 65.34 64.81 64.46 63.46 62.52 62.19 58.90 59.15
66.62 67.74 66.54 65.65 66.06 66.64 65.17 66.13 66.22 65.28 64.79 63.25 63.82 66.78 67.33 68.16 68.15 68.00 67.69 67.62 67.61 67.04 65.68 65.19 64.44 64.28 63.60 62.63 62.33 62.00 57.78 57.31
66.01 65.60 65.64 63.89 63.31 64.88 65.93 66.15 65.26 65.06 64.44 63.43 64.94 65.37 66.03 66.65 66.80 66.94 67.04 66.60 66.45 66.05 64.94 64.02 63.58 63.70 63.28 62.63 61.52 58.76 58.37 58.07
63.59 63.94 63.53 63.44 63.74 63.58 62.68 63.64 63.76 63.29 62.35 61.80 65.39 65.23 65.81 65.77 66.10 65.82 65.70 65.46 65.37 64.95 63.75 63.22 60.70 59.92 60.80 60.97 58.32 58.53 58.41 57.98
63.13 63.00 63.13 62.48 62.71 61.45 61.11 61.19 62.36 62.11 62.06 61.03 65.03 65.09 65.33 65.24 64.35 64.09 63.68 64.18 62.53 61.22 60.51 57.10 56.63 56.50 58.08 57.41 57.88 57.82 58.12 58.65
60.94 61.41 62.53 62.74 62.32 61.54 61.47 60.64 62.18 62.23 61.91 61.15 61.59 64.24 63.83 63.23 62.71 62.38 61.93 61.03 59.23 57.53 55.74 55.11 55.59 56.56 58.01 57.21 57.63 57.52 57.67 58.02
59.25 60.52 61.31 63.51 62.40 62.11 62.26 60.16 60.88 61.56 61.75 62.08 61.18 63.75 62.53 61.96 61.35 60.49 58.91 57.66 56.88 55.62 55.21 55.53 55.59 56.63 57.97 57.12 57.18 57.18 57.59 58.24
57.58 57.84 59.75 63.04 63.51 62.22 62.35 60.75 61.11 61.34 63.90 62.42 62.76 63.08 61.65 60.43 59.55 58.46 56.95 55.97 55.37 54.35 53.93 53.22 53.82 55.86 57.25 57.14 57.10 57.24 57.77 57.10
56.67 56.64 57.76 60.36 62.61 63.63 63.38 62.11 62.56 62.62 63.93 64.06 63.19 61.35 59.89 59.87 58.33 57.55 56.90 54.40 52.98 53.98 54.82 53.43 52.99 56.26 57.07 56.63 56.82 56.77 57.24 56.81
57.07 59.02 57.09 60.58 60.80 63.06 63.40 63.59 62.68 62.90 63.58 63.81 62.31 60.41 59.59 57.63 56.51 56.93 56.57 55.44 54.38 54.46 55.11 53.24 53.41 54.67 56.07 56.49 55.95 56.14 56.76 56.63
55.78 56.69 58.21 59.78 60.76 62.01 62.29 63.14 62.69 62.91 63.24 62.70 62.14 60.43 58.95 56.66 56.17 57.54 56.77 55.48 55.28 56.19 55.29 54.28 53.42 53.05 55.34 55.25 55.79 55.29 55.61 56.86
56.08 57.45 58.37 59.41 60.38 61.14 61.59 61.79 61.92 61.87 61.96 61.78 61.35 60.88 59.58 57.56 57.77 59.03 57.01 56.34 56.20 56.57 55.37 54.48 54.37 53.44 55.48 54.07 54.54 55.41 55.27 55.18
56.16 56.85 58.79 58.83 59.11 58.63 59.04 58.79 59.72 60.17 60.64 60.53 60.62 60.67 60.28 58.75 57.80 59.56 58.50 57.55 57.52 56.91 55.23 54.32 52.29 52.79 51.44 50.47 51.06 53.45 54.65 55.31
57.07 57.01 58.47 58.13 58.42 58.68 58.60 58.74 59.41 59.71 59.98 59.67 59.82 59.76 59.54 59.57 58.65 59.54 59.92 58.46 56.97 55.01 55.13 53.94 53.58 53.65 51.60 50.02 47.45 50.06 51.81 52.41
57.41 57.71 57.68 58.11 58.54 58.56 58.25 58.02 58.09 58.13 58.51 58.54 58.90 59.54 59.57 59.50 59.58 59.67 59.74 59.08 57.03 55.09 54.85 55.67 53.52 52.92 53.34 51.61 48.92 46.89 49.81 50.65
57.48 57.67 58.46 58.28 58.14 57.74 56.99 56.38 55.63 57.26 57.97 58.39 57.82 58.70 59.16 58.98 59.16 59.26 59.09 59.00 57.58 57.46 56.91 54.82 54.50 53.28 53.23 56.00 55.14 53.66 49.06 48.97
57.64 57.83 58.23 58.88 58.35 57.24 57.08 56.28 56.58 57.00 57.58 57.30 57.36 57.84 58.79 58.52 58.90 58.96 58.77 58.27 57.85 58.01 57.96 56.31 55.47 54.56 52.82 54.46 54.64 54.41 53.14 50.44
57.35 57.29 57.79 58.71 58.28 57.79 56.83 56.12 56.06 55.58 56.05 55.80 56.26 57.13 58.08 57.98 57.91 58.46 58.51 58.35 57.19 57.86 58.68 57.30 56.10 55.80 54.86 54.72 54.27 52.62 51.59 50.75
57.01 57.45 57.02 58.02 58.31 57.85 57.17 56.16 56.32 55.70 55.27 55.52 55.56 56.03 56.79 57.48 57.31 57.26 57.69 58.14 58.21 58.09 58.26 56.34 55.61 54.94 55.69 55.25 55.38 54.79 54.64 53.44
56.26 56.98 56.82 57.63 58.21 57.53 57.62 57.31 56.53 56.15 55.78 54.91 55.49 56.24 56.95 57.98 57.71 57.57 57.36 57.09 57.66 58.10 57.37 56.98 57.02 56.28 54.76 55.13 56.00 55.90 56.12 55.70

GFSFLT2_sfc_wetblb_081.txt.gz
Wetbulb
67.63 69.66 70.29 69.63 69.36 68.57 68.01 66.22 65.18 64.82 64.69 64.48 66.20 66.49 66.84 67.77 69.06 68.90 69.24 68.98 68.54 68.11 67.43 65.87 66.88 65.89 64.79 63.76 62.80 62.35 58.10 58.28
66.05 67.65 69.75 70.01 68.69 66.13 66.29 65.35 64.97 65.08 64.88 64.20 63.26 64.84 66.49 67.38 67.28 67.93 68.17 68.44 67.60 67.11 65.50 65.87 65.85 64.90 63.92 62.97 62.51 61.73 57.43 57.24
64.85 65.37 66.16 66.81 66.86 65.93 66.02 66.22 65.53 65.44 64.89 64.35 63.36 64.05 65.02 65.95 66.04 66.81 67.61 67.15 66.53 65.90 64.83 64.87 64.24 63.98 63.48 62.80 61.49 58.11 57.52 56.71
64.01 63.20 64.12 63.26 65.62 65.85 64.93 65.23 64.95 64.14 63.83 62.81 62.99 63.85 64.63 65.06 65.32 65.29 66.29 65.98 65.55 64.81 63.96 64.22 62.87 61.06 61.23 61.14 57.94 57.47 57.35 57.78
62.19 63.08 62.51 62.29 63.54 64.30 64.10 64.10 63.11 62.07 61.49 62.22 64.05 64.56 64.70 64.56 64.97 64.83 64.64 65.04 63.07 61.93 61.30 60.60 60.13 59.55 57.13 57.07 57.69 57.62 57.81 57.78
61.79 62.01 63.11 62.73 62.27 62.09 62.57 62.41 62.89 61.72 60.65 61.31 63.93 63.47 63.67 64.12 64.28 63.53 62.73 61.65 59.28 59.06 56.94 56.75 58.20 58.02 56.70 56.75 57.15 57.40 57.30 57.42
59.67 60.05 62.47 62.70 61.96 61.40 60.92 61.35 61.77 61.98 61.14 60.63 63.80 61.91 62.99 63.86 63.17 62.43 61.40 59.60 58.50 55.38 54.59 55.84 56.47 56.64 56.64 57.23 56.82 57.22 57.28 57.87
58.33 59.32 60.14 63.14 61.77 61.15 60.35 60.67 61.21 61.15 61.02 60.74 62.65 63.45 63.65 62.87 61.76 60.40 59.56 59.07 57.51 55.29 54.90 54.68 56.18 56.47 55.89 56.84 57.03 56.96 57.09 56.66
57.21 57.51 59.26 62.95 62.33 61.56 61.44 60.33 61.19 61.09 61.13 61.17 61.07 63.83 62.99 62.01 60.75 58.77 58.17 57.06 55.33 53.78 52.70 53.21 55.20 56.87 55.87 56.13 56.89 56.75 56.80 56.36
55.99 57.84 57.41 60.91 62.79 62.64 62.20 60.66 61.20 61.19 62.96 62.58 61.48 63.05 62.60 60.99 59.36 57.77 57.41 54.68 54.09 54.41 53.04 51.90 55.18 56.00 55.37 55.01 55.89 56.22 56.01 55.76
55.58 55.56 56.18 59.76 61.32 62.67 63.09 61.31 61.59 61.89 63.63 62.79 61.59 61.22 60.81 59.50 57.99 56.16 56.52 54.92 54.31 54.85 53.55 52.74 53.52 54.36 55.23 54.35 55.04 55.32 55.03 56.22
56.32 56.20 58.14 59.60 60.30 61.47 61.99 62.23 61.55 62.40 63.16 62.60 60.98 60.24 58.91 57.36 56.46 55.24 55.37 53.89 54.18 54.86 54.47 52.57 54.11 54.78 56.03 54.34 53.56 54.22 54.32 54.29
56.28 56.38 57.74 59.09 59.35 59.13 59.74 59.72 61.10 62.12 62.51 62.14 60.75 59.32 57.53 56.01 56.47 55.11 55.01 53.36 54.65 56.01 54.62 52.64 51.70 53.27 51.86 50.51 51.23 53.86 53.88 54.12
55.50 56.04 57.72 57.31 59.14 58.87 59.24 59.77 60.14 61.15 61.34 61.48 61.33 59.18 57.23 56.37 57.34 55.30 55.67 54.70 55.65 55.44 54.02 52.09 51.45 52.06 51.35 49.85 47.81 50.03 51.75 53.32
56.20 56.08 56.58 57.40 58.78 58.45 58.43 58.73 58.85 58.57 59.29 59.85 60.26 60.11 59.14 56.91 57.72 56.97 56.82 56.89 56.22 55.90 54.57 53.48 52.01 51.46 52.94 50.37 47.13 46.40 49.78 50.34
56.74 55.62 57.25 58.07 58.59 57.81 57.44 57.14 56.18 57.69 58.56 58.91 58.77 59.64 59.30 58.96 58.61 59.29 57.88 57.52 57.10 56.22 56.01 55.28 54.03 51.73 51.00 54.32 52.80 51.75 47.88 47.59
56.36 55.83 57.36 58.13 57.82 57.91 57.23 56.18 56.67 57.91 58.61 57.63 57.74 58.28 59.02 58.74 59.12 58.89 58.88 58.62 57.96 57.14 55.72 55.01 54.17 52.49 50.81 53.08 53.34 53.06 52.15 50.28
55.40 55.78 56.64 57.88 57.76 57.08 56.78 56.37 55.77 56.50 56.93 56.56 56.91 57.33 58.17 58.40 58.61 58.80 58.79 58.28 58.05 57.79 57.58 56.14 55.45 54.38 53.29 53.65 53.01 52.16 51.50 50.51
55.24 55.47 56.24 57.73 56.68 56.42 56.45 56.42 56.12 55.07 56.18 56.36 56.48 56.50 57.22 57.70 57.99 58.02 58.01 57.91 57.66 57.76 57.62 57.20 56.14 54.20 53.73 53.85 54.56 53.80 53.70 52.73
55.47 55.59 56.46 57.80 57.45 56.99 56.54 56.39 56.33 56.22 55.55 56.48 56.50 56.68 56.95 58.06 57.34 57.79 57.88 58.03 57.15 56.94 57.08 57.14 56.58 55.95 55.07 54.56 55.12 54.48 55.03 54.70

GFSFLT2_sfc_wetblb_084.txt.gz
Wetbulb
68.32 69.09 70.28 69.42 69.24 68.71 68.26 68.12 67.80 67.95 67.98 68.03 68.52 68.30 68.14 68.14 69.19 69.00 68.37 68.97 68.77 68.36 67.89 67.42 67.04 66.38 65.41 64.38 63.54 62.75 59.63 61.89
67.29 68.70 69.69 69.52 68.98 67.13 66.31 65.88 65.97 66.08 66.46 66.13 65.75 65.46 66.02 66.90 67.83 67.71 68.49 68.26 68.49 67.82 66.65 66.91 66.14 65.32 64.35 63.28 62.75 61.73 58.46 59.29
65.56 67.56 68.54 69.18 67.31 66.95 66.37 66.19 65.64 65.15 65.22 64.68 63.67 63.87 64.01 64.42 66.31 66.81 66.62 66.84 67.32 66.10 66.40 65.92 65.10 64.27 63.83 62.82 60.84 57.84 57.97 57.74
64.25 65.86 66.88 67.00 66.75 66.59 65.47 64.68 64.32 64.08 63.87 63.21 62.91 63.46 63.20 63.43 65.37 65.39 66.07 65.82 65.72 65.27 65.48 64.66 63.03 61.37 61.57 60.69 58.34 57.59 58.00 57.87
63.23 63.59 64.87 64.37 64.89 65.55 65.14 64.97 64.21 64.07 63.30 63.14 62.62 62.69 63.81 63.97 64.52 64.45 64.45 64.88 62.69 62.49 63.52 61.23 59.92 60.04 57.07 57.91 57.78 57.84 57.72 58.26
62.63 64.17 62.68 63.77 64.32 64.42 64.25 64.65 64.08 63.26 62.98 62.24 62.20 62.21 62.99 62.97 63.58 63.53 63.51 62.96 59.96 60.52 60.69 59.03 58.52 57.34 57.26 57.43 57.74 57.63 57.61 57.94
61.11 63.34 63.50 63.04 62.54 63.00 63.37 63.19 63.72 62.76 61.39 62.32 62.58 62.44 62.71 62.31 63.57 63.14 63.23 60.28 58.05 57.26 57.28 58.00 56.42 56.14 56.71 57.48 57.01 57.11 57.54 58.30
60.14 61.66 63.05 63.09 62.34 62.12 61.84 62.20 62.42 62.26 60.84 61.49 63.31 63.09 63.23 62.88 63.24 62.40 61.13 60.34 57.29 55.51 56.67 57.08 56.44 56.62 56.12 56.37 56.86 57.61 57.56 57.84
58.92 59.25 61.24 62.01 61.91 61.54 61.09 61.13 61.20 61.18 60.99 60.38 63.06 62.76 62.43 63.10 62.28 60.76 60.24 59.33 56.35 54.61 54.29 55.21 55.69 56.04 55.73 55.93 56.70 57.45 57.41 57.23
57.24 59.09 60.89 61.60 61.63 61.45 60.94 60.53 60.57 60.83 61.02 60.45 62.26 62.77 62.98 62.51 61.79 60.25 59.62 58.09 55.72 54.97 54.98 54.99 54.95 54.99 54.32 54.83 55.89 56.61 56.46 56.68
55.81 56.00 59.43 61.49 61.84 61.69 61.68 60.45 60.30 60.55 61.46 61.22 60.83 62.85 63.03 62.57 61.40 59.73 57.11 56.55 55.86 53.93 52.97 55.49 54.77 54.55 54.73 54.43 54.71 55.00 55.32 56.54
56.80 54.67 56.74 59.96 61.60 62.45 62.38 60.59 60.61 60.91 61.43 62.05 61.40 61.76 62.84 62.20 60.07 57.63 57.72 56.13 55.34 54.16 53.53 54.34 55.26 54.87 55.55 53.85 53.50 54.13 54.89 54.87
56.70 55.45 55.47 58.52 59.17 59.91 60.34 59.93 60.11 60.45 61.93 62.51 62.16 61.77 62.31 60.26 57.54 55.87 56.59 56.03 54.91 54.22 53.68 53.32 52.61 54.18 52.69 51.22 51.54 53.03 53.86 54.01
56.34 56.77 56.54 58.81 57.70 59.36 59.89 59.91 60.95 61.17 61.82 61.09 60.27 59.47 58.58 57.96 56.07 55.61 54.56 54.39 54.63 54.54 53.69 51.52 51.83 54.60 51.53 50.64 48.64 50.85 53.00 54.26
55.28 56.05 56.63 57.56 59.16 58.63 58.75 59.31 59.09 59.91 60.80 59.95 59.24 58.19 56.99 57.26 55.93 55.32 53.85 54.40 54.15 54.76 53.54 52.91 52.86 52.47 54.88 51.60 47.86 48.29 50.47 52.15
55.76 55.73 56.23 56.93 58.09 58.11 57.43 57.52 56.98 57.78 59.37 60.36 58.54 57.72 56.76 57.15 56.00 54.88 54.63 54.73 54.54 55.40 55.11 53.82 53.92 51.71 51.63 53.30 52.72 51.48 49.55 47.66
56.02 55.28 55.67 57.92 57.71 58.13 57.89 56.96 57.28 58.18 58.97 58.73 58.92 58.43 57.20 57.59 58.23 56.47 55.59 55.93 56.20 56.13 55.30 54.57 54.26 53.01 51.82 52.55 52.68 52.97 52.27 49.47
55.75 55.50 55.95 57.32 57.50 57.77 57.15 56.18 56.94 57.26 57.14 57.08 57.92 58.20 58.01 57.62 57.97 58.35 58.12 57.21 57.16 56.34 55.91 55.28 54.18 53.67 53.15 53.56 53.01 51.99 51.63 51.07
54.93 55.04 55.51 57.22 56.06 56.78 56.82 56.43 56.08 57.00 56.84 56.94 57.22 57.44 57.54 57.84 58.00 56.96 58.11 57.89 57.54 57.35 56.58 55.81 54.87 53.87 53.01 53.22 54.10 53.60 54.26 53.10
54.54 54.34 55.02 56.24 56.87 56.33 56.50 56.49 56.65 56.89 57.46 57.37 57.48 57.79 57.97 58.49 58.39 58.63 58.14 57.97 57.74 57.61 57.47 56.99 56.02 55.20 53.96 53.36 53.81 54.36 54.42 54.30

GFSFLT2_sfc_wetblb_087.txt.gz
Wetbulb
69.20 70.03 71.04 69.28 68.97 69.33 69.13 69.62 70.10 69.87 69.07 69.55 69.57 69.00 68.76 69.29 69.06 69.00 68.96 69.59 69.33 69.06 68.66 68.05 67.92 67.09 66.14 64.90 64.17 65.50 67.33 67.47
68.81 69.73 70.62 70.84 70.62 68.09 68.37 68.34 68.11 67.93 67.61 67.28 67.01 67.62 68.16 68.37 68.39 68.70 68.66 69.18 68.84 68.36 67.81 67.38 66.88 65.92 64.93 63.80 63.08 63.74 66.23 66.15
68.72 69.58 70.38 70.91 70.19 68.68 67.96 67.91 67.35 67.09 67.32 66.12 65.35 68.07 68.01 67.34 66.88 67.00 67.01 67.63 67.61 67.47 66.99 66.21 65.32 64.62 64.22 62.99 62.82 65.13 65.00 65.22
67.44 68.83 69.52 70.31 68.63 67.82 68.21 68.62 68.86 67.73 67.61 66.83 67.85 67.60 67.12 65.84 66.21 65.79 66.01 66.46 66.24 66.58 65.79 64.97 64.96 65.89 63.91 62.39 64.24 64.38 64.68 64.19
66.28 67.33 68.80 68.50 67.31 67.17 66.45 66.34 66.68 67.39 65.01 64.70 66.01 65.99 64.94 64.55 65.66 65.32 65.52 65.34 64.84 66.27 65.55 65.91 65.67 65.45 64.35 64.12 63.79 63.89 63.72 63.57
65.77 66.53 66.64 66.70 66.86 66.83 65.93 64.83 64.73 64.71 65.70 63.57 64.08 63.95 63.01 63.05 65.94 66.08 64.37 64.28 64.31 65.78 65.66 65.08 64.58 64.21 63.54 63.29 63.19 63.06 62.72 62.70
65.88 65.81 65.57 65.32 65.22 66.16 65.55 65.14 64.41 64.76 64.42 63.44 63.41 63.74 62.84 63.90 65.22 65.30 63.75 62.50 62.48 64.54 64.06 63.68 63.54 62.78 63.10 62.76 62.09 62.22 61.89 62.36
67.05 64.81 65.20 64.83 64.31 64.87 64.72 65.04 65.06 64.21 64.01 63.78 63.36 63.94 63.23 64.23 65.80 63.69 63.81 61.73 62.59 63.41 63.20 63.22 62.60 62.59 62.05 62.11 61.92 61.75 61.93 62.60
65.41 64.40 65.05 64.87 63.94 64.00 63.69 63.71 64.13 62.77 62.56 63.24 63.32 63.50 64.22 64.79 63.87 63.75 62.38 60.91 61.59 62.94 63.09 62.63 61.20 60.85 61.32 61.34 61.47 61.75 61.50 62.05
64.53 63.76 63.08 64.18 64.72 63.69 62.95 62.64 62.86 62.87 62.23 62.53 63.59 63.59 64.40 63.55 62.96 62.43 62.05 60.18 61.68 61.00 61.13 60.35 60.68 60.36 59.22 60.20 59.85 61.09 61.66 61.76
63.29 63.55 61.89 63.01 64.17 63.64 62.65 61.99 61.86 61.80 62.05 61.60 63.06 63.18 63.64 63.50 62.43 61.92 60.71 59.15 61.05 60.69 60.31 60.52 59.83 59.82 59.59 59.87 60.13 59.99 61.01 61.12
62.95 62.66 62.26 63.93 63.89 63.17 62.88 61.69 61.75 61.48 61.57 61.89 62.87 62.71 63.79 63.00 62.28 59.92 60.63 60.17 59.70 59.68 59.48 60.23 59.92 59.52 58.44 58.77 59.82 60.54 60.93 60.77
61.31 61.42 60.82 61.93 62.15 61.28 60.92 59.98 60.46 60.72 61.53 62.43 61.64 62.70 63.06 62.53 60.98 59.47 60.11 60.23 59.51 59.63 59.72 59.15 58.83 60.08 58.11 57.52 58.06 59.26 59.68 60.15
60.00 60.88 60.70 60.52 61.92 62.10 62.06 61.50 61.55 61.67 61.58 62.40 61.83 61.59 62.63 61.18 59.15 59.05 59.41 60.71 59.37 58.20 58.64 58.33 58.43 58.97 57.43 56.55 52.81 55.60 58.02 58.40
58.84 60.31 60.18 60.40 60.68 60.64 60.75 61.31 61.02 61.04 60.62 61.21 61.63 61.68 62.02 60.32 59.33 59.58 60.51 59.72 58.52 58.75 59.13 58.72 56.11 58.13 59.28 57.81 53.98 53.44 55.60 58.07
59.26 59.82 60.05 60.35 60.81 59.86 59.07 58.49 58.12 58.75 60.61 59.92 59.16 60.07 60.49 58.68 59.41 59.54 58.68 58.24 58.79 58.40 58.16 58.11 58.58 57.09 58.49 57.87 59.47 58.61 55.31 53.92
57.83 59.01 58.48 58.99 59.57 59.70 59.14 58.18 58.92 60.11 59.87 58.66 57.53 57.15 57.53 57.64 58.29 57.55 56.92 57.48 58.47 57.77 56.38 58.35 60.00 58.61 57.38 57.05 57.43 57.69 57.91 55.92
56.89 56.55 58.04 57.93 58.25 59.27 59.26 59.08 58.80 58.53 58.22 57.37 56.59 56.25 57.17 56.47 56.42 56.30 56.74 57.75 57.78 58.45 58.19 58.12 58.27 59.11 58.71 58.98 57.41 55.75 54.90 55.94
56.66 56.02 57.55 57.91 58.34 58.83 59.07 59.15 59.51 58.65 57.47 57.67 56.87 55.79 56.59 57.51 57.25 57.12 57.32 58.33 57.08 57.21 58.65 57.54 56.78 57.23 57.29 57.73 58.57 58.61 58.56 57.60
56.23 56.13 56.75 56.89 57.54 57.96 58.58 58.63 58.68 58.44 58.08 57.99 58.03 57.23 56.79 57.10 56.66 56.77 57.85 57.99 57.83 57.39 57.82 58.15 57.27 58.29 57.97 58.28 58.31 58.21 58.13 57.92

GFSFLT2_sfc_wetblb_090.txt.gz
Wetbulb
72.18 71.88 71.06 69.20 69.07 69.70 69.36 69.62 70.12 70.74 70.79 70.61 70.67 69.67 69.35 69.72 69.91 70.28 70.04 69.88 69.96 69.72 69.08 68.65 68.36 67.69 66.65 66.00 65.80 66.75 68.40 67.40
72.01 71.46 71.86 72.12 72.25 68.49 68.87 69.14 69.29 69.57 68.71 68.99 68.57 68.30 68.80 69.07 68.94 69.11 69.52 69.61 69.48 69.01 68.01 68.03 67.43 66.56 65.51 64.87 64.94 65.95 67.55 66.84
72.15 71.26 72.16 71.61 72.63 71.82 69.31 69.41 68.76 67.75 68.11 67.14 67.58 71.68 70.91 69.76 67.26 66.89 67.44 67.70 68.36 68.12 67.23 66.81 65.98 65.54 64.94 64.47 64.66 67.37 67.09 66.13
70.21 72.16 71.93 71.36 71.44 72.66 71.89 71.90 71.95 72.13 71.66 71.01 71.92 70.85 69.87 68.31 66.35 65.82 66.63 66.62 66.99 66.79 65.89 65.22 66.01 67.51 66.68 64.66 67.18 67.33 66.31 65.41
68.81 70.79 71.39 71.61 71.14 70.81 71.49 71.79 71.70 71.11 70.88 70.95 70.41 69.37 68.55 68.06 67.35 66.99 67.21 66.22 66.47 66.00 65.35 67.59 67.24 67.35 67.35 67.13 66.30 67.15 65.60 66.28
69.04 69.51 70.48 70.47 71.10 69.51 69.71 69.57 70.35 69.48 70.19 69.21 68.31 66.98 67.42 67.25 64.81 65.23 65.74 66.45 65.33 64.91 65.62 67.49 66.89 66.49 66.65 66.35 66.66 66.24 66.05 65.76
70.06 69.17 69.60 69.90 69.17 68.57 68.04 68.44 68.40 68.95 69.00 68.81 67.65 65.81 66.00 65.98 64.12 65.14 67.22 65.48 64.58 64.13 65.14 66.12 66.28 66.11 66.75 66.29 65.87 65.28 65.15 64.49
70.88 68.32 68.88 68.48 68.29 68.14 67.23 67.38 67.52 67.88 68.15 66.45 68.24 65.11 65.21 65.36 64.87 65.78 66.66 65.76 64.60 64.27 64.43 65.77 65.49 66.09 65.83 65.84 64.93 64.70 64.25 63.70
69.79 69.09 67.72 67.09 67.19 68.03 67.66 67.67 67.42 66.56 66.56 65.29 65.98 64.72 64.70 64.69 64.65 64.20 65.91 65.16 63.44 63.61 65.23 65.86 65.08 65.25 64.82 64.90 64.53 63.88 63.20 63.17
69.09 68.73 67.39 67.33 66.25 66.20 66.76 67.42 67.00 65.98 65.80 64.95 63.62 63.87 64.28 66.43 63.80 63.55 65.29 63.74 62.85 62.75 64.37 64.38 64.10 64.22 63.87 63.96 63.29 62.61 62.73 63.11
67.73 69.29 66.77 66.75 66.15 65.27 66.21 66.65 65.68 65.13 63.93 63.77 63.46 63.34 64.08 64.61 64.70 63.70 63.35 62.13 60.89 62.52 63.22 63.90 62.99 63.19 62.95 62.75 62.99 62.70 62.52 62.25
66.91 68.44 66.98 66.01 66.10 66.36 66.19 65.53 64.60 64.47 63.00 62.93 63.17 63.71 63.85 63.89 63.08 62.66 62.00 60.54 60.30 61.59 62.69 63.76 63.54 62.84 61.57 61.50 62.59 62.57 62.73 61.33
65.73 67.19 64.91 64.84 65.01 64.38 63.99 62.87 62.89 62.55 62.90 62.62 62.79 63.30 63.33 63.46 62.71 61.69 60.75 59.84 60.03 62.52 62.63 62.88 62.38 63.05 60.35 59.28 60.20 60.80 61.01 61.89
65.02 66.46 63.63 65.60 66.81 66.54 64.96 62.95 63.08 63.00 62.59 62.21 62.62 62.57 63.53 63.07 61.74 60.96 60.68 59.53 59.38 62.82 62.44 61.92 61.87 62.51 58.96 58.82 54.35 56.51 59.05 60.48
64.46 65.88 64.71 66.45 66.30 65.64 64.12 63.61 62.75 62.39 61.52 61.19 61.73 62.66 63.21 62.42 61.10 60.77 60.40 60.13 59.31 61.80 62.91 62.17 59.89 61.49 62.19 59.39 55.11 54.44 57.54 59.78
64.64 65.30 65.82 65.55 65.75 64.58 63.50 62.21 59.84 61.54 61.04 62.03 61.94 61.46 61.98 61.32 60.94 60.59 60.55 60.55 60.66 62.20 63.56 62.86 62.22 59.63 61.09 61.47 61.47 60.37 56.51 55.07
63.86 65.00 64.97 64.92 64.65 64.54 62.60 61.12 61.54 63.48 63.28 61.34 60.88 61.33 61.23 60.40 60.29 60.24 59.81 60.14 61.60 63.02 62.95 62.67 61.92 61.38 60.34 60.26 61.05 61.33 61.08 57.77
62.01 63.73 63.94 64.33 64.04 63.29 62.80 61.75 60.50 61.47 59.84 59.57 58.49 57.93 59.87 59.70 60.07 60.10 59.80 60.00 61.22 61.79 61.40 63.05 62.58 62.66 61.64 61.08 59.89 58.43 58.61 58.39
60.04 62.69 62.53 62.84 62.64 62.19 61.66 61.34 61.99 61.81 59.12 57.20 56.34 56.04 55.88 56.87 57.72 57.70 58.23 60.15 61.23 61.03 61.47 62.26 61.85 62.08 62.32 61.36 61.42 60.45 60.59 60.01
58.40 59.98 61.73 61.24 61.05 60.79 61.05 62.36 61.51 61.36 59.43 58.32 56.28 56.64 56.36 56.72 56.44 56.88 57.93 58.99 60.01 60.54 60.85 60.22 60.73 61.20 61.28 61.50 61.12 61.38 61.14 60.46

GFSFLT2_sfc_wetblb_093.txt.gz
Wetbulb
73.66 72.37 71.48 69.63 69.70 70.33 69.63 70.21 70.96 71.09 71.06 71.06 70.72 70.65 70.01 70.94 70.75 70.39 70.24 70.72 70.54 70.17 69.70 69.00 68.80 67.46 67.73 66.97 66.25 66.13 69.14 67.38
73.56 73.39 72.56 72.44 72.38 69.22 69.12 69.30 69.78 70.38 70.24 68.90 69.22 69.00 69.37 69.15 68.92 69.72 69.58 69.82 69.68 69.25 68.76 68.35 67.62 66.50 66.75 66.06 65.66 66.61 66.90 67.23
73.44 73.00 72.90 73.10 72.74 71.75 69.72 69.52 69.49 69.12 69.66 68.43 68.15 72.09 71.65 70.60 68.87 67.99 68.28 68.06 67.86 67.93 67.15 66.88 66.39 66.10 65.28 64.99 65.00 67.33 67.36 66.42
73.19 72.99 72.59 72.96 71.85 72.86 72.03 71.93 72.01 72.09 71.96 72.01 72.13 71.69 71.46 69.89 67.96 66.19 66.61 66.88 67.01 66.99 66.31 65.51 66.29 67.73 67.27 65.42 67.46 67.09 65.60 65.42
71.85 72.56 73.25 72.84 71.67 71.73 71.67 71.83 71.38 71.70 72.32 71.55 71.17 70.86 71.11 70.91 68.52 67.05 66.64 66.63 67.42 66.68 65.48 66.65 68.08 68.08 67.63 67.71 67.03 65.34 64.99 64.37
72.17 71.72 72.56 72.64 72.42 70.90 71.47 70.99 71.50 71.06 71.43 72.60 71.47 70.61 70.51 69.30 67.76 67.33 66.58 65.90 66.83 65.71 65.50 65.41 66.26 67.16 67.61 66.98 65.71 65.00 66.19 64.66
71.96 70.64 72.04 72.00 72.56 71.51 71.11 71.07 71.10 71.63 71.28 71.20 70.63 69.57 68.99 68.44 65.99 66.74 67.11 66.05 64.62 64.28 64.48 64.62 64.50 65.84 66.00 66.19 65.18 66.04 64.64 64.94
72.75 71.47 71.57 71.79 71.66 70.94 70.88 70.54 69.98 70.69 70.60 70.48 70.37 69.76 68.68 66.89 66.34 65.61 65.43 65.52 64.79 64.37 63.99 63.55 63.84 64.17 65.92 64.86 64.56 65.15 64.75 64.32
71.68 72.90 70.37 70.92 70.34 70.07 69.64 70.00 69.70 68.69 69.59 70.83 69.68 69.45 68.15 67.11 65.22 65.39 66.99 65.12 65.85 63.85 63.75 63.69 63.17 64.04 64.27 64.53 64.76 64.31 63.32 63.17
67.47 70.98 69.81 69.41 69.18 69.72 69.05 69.52 69.53 69.05 68.27 69.17 68.61 68.28 67.15 66.15 64.09 65.68 65.16 64.79 64.51 63.27 62.71 62.12 61.96 62.72 63.32 63.03 63.62 63.42 62.99 62.84
65.92 70.36 69.54 68.09 68.39 69.10 68.58 68.83 68.34 68.63 68.98 67.82 67.22 66.84 66.67 64.94 66.39 64.52 64.62 63.10 63.39 63.70 62.25 62.06 61.21 62.77 61.99 63.55 63.03 61.52 62.01 61.90
65.50 69.13 70.43 67.73 67.74 67.58 67.07 67.25 67.54 66.53 66.54 67.02 66.06 66.06 65.53 66.16 64.81 63.71 65.10 62.50 62.23 62.66 61.42 61.75 61.98 62.12 61.36 61.17 61.67 61.96 61.54 61.45
65.08 67.28 70.10 67.39 65.65 64.48 65.07 64.68 64.50 65.10 64.92 64.83 65.34 65.10 64.26 63.93 63.28 63.55 63.55 61.25 61.58 61.72 61.40 60.36 60.36 64.11 60.67 59.50 60.90 62.29 62.28 61.07
64.56 66.21 68.63 67.03 65.42 66.56 67.52 65.96 65.76 65.17 65.29 64.28 64.52 64.17 64.08 63.20 63.42 62.78 61.91 60.85 60.73 60.35 60.83 59.43 59.79 62.22 59.69 58.88 55.67 56.94 59.78 61.17
63.74 65.69 67.69 66.87 67.62 67.81 67.00 66.00 64.06 63.13 63.69 64.15 64.32 64.26 63.57 63.32 62.92 61.92 61.03 60.83 60.60 60.35 60.92 59.78 59.23 60.95 61.79 58.77 55.00 53.07 56.63 59.73
64.51 65.66 67.60 65.76 67.84 67.29 65.86 62.46 61.05 62.72 63.49 63.69 62.75 62.66 62.51 62.83 62.34 61.69 60.70 60.85 60.09 60.30 61.10 60.50 61.03 59.17 61.09 62.17 61.60 59.99 55.66 54.02
64.76 65.57 66.85 66.64 67.83 67.40 66.10 64.61 64.77 64.06 63.64 63.75 63.05 62.09 62.00 62.19 61.66 61.09 60.44 60.34 60.39 60.43 60.49 61.57 61.47 61.17 60.84 60.71 61.32 60.85 61.02 57.64
65.01 65.18 65.84 66.45 66.84 66.65 66.15 64.95 64.29 62.37 63.33 63.08 62.08 61.43 61.06 61.05 60.97 60.82 60.63 60.27 60.46 60.50 61.50 61.35 61.79 62.76 62.56 61.78 60.36 58.28 58.48 58.35
64.50 64.43 64.85 65.86 65.75 65.73 65.65 64.67 63.82 62.42 62.47 62.50 60.09 59.10 59.45 60.22 60.08 60.18 60.17 60.14 60.41 60.69 60.77 62.36 63.09 62.47 62.79 60.81 62.08 61.73 61.68 60.09
61.96 63.97 64.28 65.03 65.04 64.98 64.76 64.10 62.34 63.00 62.79 61.26 59.57 57.62 58.35 59.53 60.08 60.08 60.15 60.20 60.20 60.77 61.49 62.49 62.39 62.31 61.18 61.37 60.98 62.25 61.64 60.61

GFSFLT2_sfc_wetblb_096.txt.gz
Wetbulb
71.13 70.53 70.69 70.20 70.12 70.08 69.66 70.31 71.14 71.37 71.46 71.45 71.46 70.59 69.93 70.90 70.92 70.86 70.43 70.37 70.08 70.54 69.88 69.36 69.24 68.90 68.27 67.42 65.99 67.00 66.14 66.69
71.69 71.35 70.90 70.55 70.76 69.15 68.96 69.53 70.17 70.77 70.96 70.56 70.15 69.83 69.24 69.64 69.89 69.70 69.52 69.75 69.43 69.33 68.59 68.18 67.49 67.86 67.30 65.70 65.91 66.87 66.65 65.80
72.95 71.94 71.45 71.38 71.08 70.52 69.49 69.73 69.66 70.05 70.44 69.53 67.94 70.83 70.20 70.02 68.80 67.97 68.10 68.19 67.95 67.63 67.24 66.81 65.71 65.47 66.34 65.80 65.73 64.88 65.59 65.33
72.07 72.17 71.54 71.74 71.17 70.72 70.42 70.72 70.46 70.62 70.96 70.96 70.46 70.40 69.98 69.51 68.06 66.77 67.31 67.08 67.08 67.04 66.74 66.03 65.63 65.53 64.14 64.28 64.57 65.88 64.66 64.16
71.83 71.42 72.06 71.92 70.19 71.10 70.21 70.39 70.07 70.55 70.89 70.88 71.05 69.78 69.41 68.59 66.79 66.46 66.55 66.57 66.19 66.20 65.89 65.80 66.06 65.83 64.76 64.39 64.97 63.91 64.36 64.42
70.97 71.59 71.82 72.04 71.21 70.84 70.30 69.76 69.78 70.03 70.22 70.48 69.79 68.71 68.70 67.74 66.77 65.70 65.19 65.16 64.87 65.60 64.99 64.67 64.81 65.78 65.25 65.21 64.10 63.63 63.64 64.14
70.74 70.67 71.27 71.81 71.50 70.31 70.76 69.72 69.62 70.15 70.19 70.53 70.02 68.53 68.08 67.50 66.73 65.90 64.65 64.61 64.80 64.61 63.85 63.20 63.97 64.12 64.82 64.51 63.85 63.41 63.21 63.75
70.83 70.15 71.14 71.09 70.64 70.65 69.92 70.79 70.79 70.25 70.05 69.77 69.75 68.81 68.29 67.12 66.08 65.20 65.11 64.84 65.09 64.37 63.78 62.45 63.27 63.67 63.73 64.10 63.39 63.61 63.27 63.02
70.59 70.07 70.59 70.78 70.30 70.61 70.26 69.70 69.45 69.26 69.41 69.57 69.10 68.48 67.61 66.31 65.58 65.01 64.86 65.08 64.04 63.58 63.15 63.24 62.81 63.34 62.70 62.92 63.69 62.94 62.21 61.87
69.52 71.02 70.15 70.20 70.20 69.85 68.34 69.65 68.94 68.34 68.56 69.19 68.91 68.34 67.42 66.06 65.34 64.79 64.83 64.41 63.94 63.29 62.86 62.64 62.02 61.64 60.86 62.00 61.96 60.95 61.03 60.69
63.79 70.70 70.10 69.38 69.46 68.11 67.58 68.28 68.53 67.90 67.74 67.56 68.24 67.94 66.87 65.71 64.66 64.72 64.51 64.03 63.69 62.80 62.32 62.12 61.08 61.01 60.79 61.42 60.65 59.87 59.17 60.88
63.20 70.49 69.84 69.05 68.93 67.60 67.46 66.83 66.82 68.03 67.56 66.86 66.83 67.03 66.57 65.68 64.68 64.16 64.31 63.17 62.85 62.42 61.19 61.66 61.12 60.65 62.32 61.01 58.84 58.31 58.29 59.08
62.86 67.18 69.22 68.20 67.12 65.85 65.41 64.72 65.40 65.76 66.85 66.61 66.40 65.68 65.16 65.08 64.19 63.58 63.48 62.53 62.23 62.15 61.20 60.34 60.12 61.01 59.41 57.94 58.19 57.66 57.17 57.21
61.98 65.86 68.86 67.60 66.94 66.47 65.62 64.68 64.97 64.99 64.74 64.90 65.08 64.81 64.48 64.31 64.06 63.12 62.69 62.07 61.65 61.60 60.87 59.57 59.98 60.65 57.41 56.17 53.31 55.18 57.54 58.29
61.59 64.06 68.78 68.19 67.17 65.91 65.58 65.46 65.40 64.39 63.72 63.02 63.65 64.30 63.92 63.53 63.46 62.96 62.42 62.06 61.05 61.15 60.56 59.25 58.30 59.44 59.29 55.98 52.10 50.53 53.54 55.95
61.10 62.94 64.78 68.17 66.66 65.29 64.92 64.01 62.09 62.44 62.59 62.81 63.05 63.56 63.42 63.43 62.92 62.73 62.17 61.64 61.03 60.79 61.14 60.05 59.20 57.24 58.80 58.71 56.73 56.03 51.96 50.65
61.89 62.66 63.82 67.06 66.03 65.85 65.30 64.07 63.05 62.58 62.59 62.30 62.41 62.53 62.78 62.65 62.74 62.38 61.47 61.31 61.01 60.80 60.56 59.93 59.77 58.44 57.90 57.27 56.00 56.91 55.97 52.85
62.40 62.81 64.35 66.31 66.00 65.87 65.78 63.30 63.00 62.13 61.50 61.76 61.38 61.44 61.51 61.83 62.06 61.80 61.00 60.81 60.59 60.53 60.67 60.28 59.69 59.23 58.82 58.17 56.46 55.46 54.67 54.56
62.70 62.76 63.23 65.39 64.93 65.42 65.95 64.42 63.99 63.07 61.72 61.51 61.47 60.39 60.25 60.77 61.26 60.90 60.35 60.38 60.46 60.93 60.46 60.19 59.68 59.18 58.95 58.47 58.88 56.99 57.96 57.55
62.60 62.92 63.04 65.06 64.56 65.15 64.75 63.33 63.35 62.39 61.33 61.97 60.80 59.64 59.79 60.91 60.52 60.60 60.53 60.29 60.39 60.58 60.22 59.92 59.68 59.40 59.13 59.24 58.81 58.58 58.57 58.16

GFSFLT2_sfc_wetblb_099.txt.gz
Wetbulb
68.85 69.32 70.42 70.13 69.80 69.95 70.18 70.57 70.86 70.48 71.01 71.17 71.59 70.93 70.23 70.78 70.91 71.05 71.04 70.90 70.16 70.21 69.90 69.47 69.48 68.71 67.25 66.68 65.93 67.07 65.84 66.36
67.95 68.11 68.49 68.13 69.42 68.67 68.96 69.64 69.46 70.10 70.72 70.53 69.97 69.57 69.59 69.97 69.33 69.59 69.57 70.21 70.35 69.16 68.56 68.22 67.97 66.70 65.62 66.14 65.64 66.24 64.93 65.14
68.29 68.15 68.04 67.91 68.09 68.93 68.98 69.36 69.64 69.81 70.50 69.81 68.15 69.30 68.85 69.17 68.84 68.51 68.85 68.58 67.81 68.24 67.68 67.17 66.18 65.78 64.85 64.44 65.33 64.81 64.27 64.09
68.46 68.28 68.02 68.13 69.81 68.56 67.46 69.03 68.93 69.86 70.52 69.92 68.36 68.34 68.31 69.14 67.73 66.85 66.90 66.76 66.90 66.76 66.49 66.45 66.56 65.93 64.52 64.10 63.56 64.14 64.01 63.94
68.98 69.22 68.54 68.35 68.52 67.93 68.43 68.38 68.34 68.53 68.65 68.90 68.22 68.65 67.50 66.19 65.06 65.85 65.75 66.18 65.39 64.62 64.41 65.48 65.64 65.53 64.96 63.60 63.63 63.52 63.33 64.18
69.18 69.13 69.33 68.70 67.86 67.73 67.81 68.04 67.82 68.02 68.61 68.27 68.52 66.42 65.63 64.99 64.61 64.61 64.89 64.91 64.19 63.49 64.39 65.21 65.10 65.81 65.12 64.21 63.12 63.45 63.02 63.56
69.07 68.78 69.35 69.48 67.57 68.19 67.52 67.78 67.67 67.92 67.97 68.01 67.75 66.22 65.82 65.23 64.33 64.30 64.23 64.21 63.46 62.69 63.25 62.86 63.49 64.25 64.54 63.91 62.45 62.66 63.20 63.45
69.29 68.95 69.24 69.23 69.02 67.47 67.37 67.46 67.18 67.81 67.89 68.06 66.85 66.67 66.21 65.44 64.22 63.49 63.18 63.72 63.23 63.42 62.38 61.98 62.85 63.63 63.77 63.64 63.42 62.83 62.92 63.17
68.20 68.91 69.35 69.38 68.86 67.80 67.12 66.94 67.31 67.16 67.64 67.76 66.92 66.76 66.27 65.18 64.69 63.74 63.90 63.49 63.87 63.20 62.66 62.17 62.09 63.32 62.76 63.25 63.17 63.03 62.28 62.42
68.28 69.25 68.88 69.24 68.75 68.22 67.53 66.63 66.15 65.84 66.90 67.47 66.70 66.30 66.03 64.71 64.03 63.34 63.83 63.64 63.80 63.01 62.65 61.45 61.12 61.68 61.76 61.78 62.23 62.51 61.95 61.75
66.27 68.64 68.28 68.33 68.11 68.27 67.03 66.56 65.68 65.32 65.09 66.58 66.41 66.07 65.67 64.66 63.88 64.03 64.34 63.88 63.28 62.78 62.40 61.65 60.68 60.98 61.27 61.04 61.45 60.63 60.61 60.96
63.50 68.54 68.01 67.82 67.86 66.63 65.85 66.12 67.01 65.62 64.37 65.17 65.89 66.00 64.82 63.83 63.23 63.25 63.32 62.84 62.61 62.44 61.88 62.22 61.76 61.14 61.22 60.54 60.76 59.67 60.03 59.53
60.86 67.73 67.47 67.76 66.51 65.37 64.74 64.35 65.67 65.87 66.07 64.58 66.10 66.39 65.36 64.56 64.02 63.64 63.42 62.60 61.76 62.06 61.57 60.98 59.98 61.29 59.02 58.34 58.43 57.92 57.82 59.06
60.73 67.72 67.39 67.30 66.74 66.13 65.27 65.14 65.13 65.23 65.49 65.40 65.52 65.32 65.18 64.57 63.86 63.31 63.22 62.43 61.95 61.53 60.88 59.98 60.03 60.73 57.18 56.84 53.63 55.12 55.55 57.94
63.25 67.47 67.14 66.73 66.22 65.27 63.89 63.36 64.34 63.74 63.91 64.16 64.33 64.78 64.43 63.96 63.61 63.14 63.03 62.71 61.66 61.59 60.84 60.03 58.37 59.54 59.40 55.98 51.97 50.62 53.42 55.39
63.00 67.31 66.53 65.80 65.40 64.65 63.04 62.46 61.64 63.10 63.46 63.58 63.60 64.09 63.69 63.40 63.48 62.88 62.68 62.41 61.48 61.41 61.21 60.23 59.48 57.64 59.31 59.40 56.12 55.64 51.62 51.09
60.20 66.73 66.16 65.48 64.94 64.12 63.31 62.15 62.10 62.96 62.87 62.12 62.59 62.70 63.30 62.63 62.58 62.63 62.12 61.83 61.38 61.10 60.80 60.14 59.96 58.84 58.42 57.53 55.08 55.05 53.93 52.78
55.24 63.91 65.97 64.98 64.04 63.35 62.85 62.32 61.58 60.94 60.68 60.74 61.43 61.50 61.87 62.11 62.41 62.30 62.31 62.00 61.26 61.11 61.06 59.98 59.88 59.38 59.42 58.18 55.78 54.31 53.19 53.04
55.98 59.08 64.47 64.10 63.20 63.11 62.91 62.56 61.77 60.09 59.64 60.00 59.25 59.97 60.33 60.76 61.68 61.39 61.63 61.66 61.21 61.03 60.76 60.46 59.91 59.03 58.84 58.04 57.41 56.75 56.70 54.58
57.07 60.96 63.20 63.31 63.07 62.45 62.57 63.03 62.95 62.25 60.36 60.37 59.84 60.01 59.96 60.17 60.75 61.32 61.42 61.32 61.08 61.07 60.74 60.63 60.02 59.39 58.86 58.74 58.05 57.19 57.39 57.04

GFSFLT2_sfc_wetblb_102.txt.gz
Wetbulb
68.60 69.63 70.53 69.99 69.50 69.77 69.88 70.53 70.78 70.89 70.93 71.18 71.49 71.01 70.71 71.15 71.26 71.08 71.40 70.83 70.85 70.61 69.97 69.48 69.42 68.82 67.89 66.22 66.15 66.62 65.36 66.08
67.85 68.53 69.05 69.78 68.89 68.82 69.16 69.61 69.44 69.33 70.43 70.53 69.88 69.87 69.75 70.18 69.94 70.21 70.11 69.81 70.13 69.22 68.96 68.52 68.63 67.40 66.73 65.40 65.75 66.06 65.58 65.45
67.40 67.69 68.05 67.90 68.73 69.14 69.45 69.92 69.44 69.02 69.61 69.90 68.87 69.74 69.04 69.37 68.70 68.79 68.60 68.97 67.96 68.35 68.07 67.47 66.62 66.28 65.97 64.81 64.14 64.29 64.57 64.69
66.91 66.95 67.20 67.40 69.10 67.35 66.86 68.64 68.42 68.95 69.38 69.03 69.38 68.30 67.81 68.96 68.14 67.51 67.20 67.09 67.19 66.85 66.77 66.42 66.22 65.39 65.51 65.07 64.07 63.35 62.99 63.50
66.86 66.93 67.24 67.33 67.92 68.03 67.46 68.10 68.39 68.69 69.14 69.09 68.01 68.19 67.47 67.06 66.11 65.91 65.82 66.02 65.14 65.11 64.47 63.69 64.92 64.60 63.87 64.44 63.80 63.46 62.38 63.80
67.53 67.33 67.25 67.47 67.53 67.56 67.46 67.89 67.58 67.70 68.23 68.90 68.57 67.46 65.29 65.18 65.18 64.42 64.90 64.63 63.21 62.42 61.93 62.42 63.61 64.57 64.16 63.67 63.83 63.75 62.65 63.49
67.70 67.75 67.61 67.69 67.42 66.92 67.04 67.07 67.31 67.52 67.56 67.85 68.30 66.79 65.30 64.53 64.05 64.21 64.13 63.99 62.77 61.99 62.02 62.15 62.71 64.05 64.13 63.66 63.39 63.44 63.12 63.39
68.41 68.20 68.27 68.25 67.65 67.04 66.64 67.18 67.15 67.22 67.67 67.76 67.99 66.98 65.40 64.47 63.65 63.83 64.17 63.50 62.27 62.17 62.12 61.54 60.94 62.79 62.85 63.57 63.04 63.13 63.02 63.16
68.37 68.02 68.60 68.29 67.77 67.54 66.86 67.04 67.11 67.02 67.16 67.18 67.29 66.62 65.32 64.13 63.46 63.29 63.87 63.43 62.12 61.48 61.24 62.50 62.24 62.62 62.98 63.20 63.25 62.80 63.00 62.80
68.37 69.04 68.00 67.83 68.36 67.61 67.13 66.91 66.88 67.02 66.82 66.93 66.22 66.24 65.64 64.46 63.35 62.80 63.37 63.51 62.98 62.56 61.93 61.34 61.56 61.95 61.56 61.90 62.39 62.85 62.62 62.75
66.73 68.09 67.49 67.75 67.75 67.71 67.21 66.31 66.60 66.19 66.68 66.71 65.79 65.84 65.44 64.70 63.63 63.15 63.69 63.55 63.13 62.66 62.05 61.18 60.06 60.83 61.02 61.46 61.84 61.90 61.89 62.76
64.12 67.10 67.55 68.04 68.08 67.68 65.65 65.64 65.53 65.99 65.96 66.35 65.20 65.50 64.85 64.35 63.49 63.40 63.45 62.95 62.77 62.54 61.70 61.67 60.31 60.33 61.10 61.22 61.26 60.53 61.22 61.25
58.90 65.31 66.80 67.71 66.89 66.04 64.86 64.84 65.44 64.78 65.19 65.58 65.54 64.62 64.24 63.74 63.21 63.24 63.88 63.13 62.53 62.51 61.83 60.97 60.63 61.21 60.05 58.98 59.60 59.10 59.95 60.00
55.91 64.56 66.41 67.46 67.08 66.67 65.80 66.01 64.75 65.07 65.09 65.44 66.62 65.79 65.01 64.30 63.53 63.41 63.52 62.76 62.30 61.81 61.00 60.49 60.57 61.31 58.35 57.16 54.47 55.39 56.44 58.91
55.31 63.09 66.21 67.20 67.28 66.61 63.88 64.10 62.85 62.26 64.17 64.83 65.08 65.50 65.12 64.52 64.04 63.77 63.41 63.07 61.67 61.46 60.87 60.46 58.87 60.18 59.36 56.74 52.78 51.54 54.13 56.74
54.74 62.09 66.04 66.76 66.90 65.44 64.14 63.73 62.74 63.82 63.90 64.56 64.53 64.50 64.70 64.17 63.70 63.25 63.05 62.96 62.03 61.73 61.84 60.82 60.00 58.11 58.67 59.18 57.57 55.41 52.91 51.51
61.02 63.97 65.88 66.64 66.01 65.36 64.15 63.19 63.38 61.91 62.52 63.31 63.34 63.75 63.77 63.24 63.53 62.87 62.77 62.91 62.30 61.92 61.42 60.58 60.25 59.00 58.34 57.50 57.06 54.82 55.55 53.88
57.67 65.46 65.75 65.79 65.46 64.80 63.78 62.53 61.52 61.41 62.16 62.03 62.24 62.80 63.11 62.97 62.80 62.73 62.63 62.52 61.93 61.82 61.43 60.70 60.24 59.12 59.38 58.37 56.52 53.97 53.54 53.51
53.34 64.94 64.97 65.17 64.49 63.89 62.98 62.16 61.37 61.34 61.17 61.08 61.41 61.33 61.48 61.98 62.06 61.85 61.97 61.99 61.72 61.60 61.21 60.63 60.28 59.28 58.97 58.73 58.00 56.25 56.25 55.14
55.73 60.36 64.15 63.81 62.87 62.55 62.57 62.25 61.64 61.36 60.91 60.08 60.53 60.58 60.11 61.22 61.71 61.85 61.75 61.85 61.76 61.46 60.95 60.69 60.44 60.03 59.07 59.18 58.49 56.86 56.70 56.19

GFSFLT2_sfc_wetblb_105.txt.gz
Wetbulb
69.51 70.18 70.34 69.82 69.60 69.69 69.44 70.12 70.50 70.61 70.97 71.21 71.64 71.06 70.78 71.27 71.35 71.34 71.49 71.14 70.62 70.30 69.69 69.40 69.28 68.74 67.58 66.68 66.21 66.52 64.66 65.08
68.31 69.13 70.17 69.75 69.40 68.88 68.92 69.28 69.55 69.73 70.23 70.03 69.66 69.91 70.16 70.49 70.24 70.36 70.30 69.56 69.61 69.78 69.20 68.93 68.77 67.67 66.81 66.07 65.78 66.05 64.55 64.44
67.41 68.24 68.88 69.08 69.17 69.35 69.38 69.80 69.19 69.15 69.78 69.35 68.16 69.80 69.51 69.66 69.21 68.94 69.00 68.87 68.99 68.98 68.46 67.68 67.39 66.65 66.10 65.96 65.80 64.84 64.55 64.15
66.15 67.50 67.39 67.50 68.40 69.19 69.86 69.76 69.01 68.29 69.30 69.31 69.71 68.38 68.38 68.94 68.16 67.95 67.89 67.53 67.73 67.93 67.30 66.54 66.23 65.25 64.75 65.71 65.04 64.53 63.82 63.77
65.88 66.56 66.90 66.92 67.59 68.15 68.31 68.47 67.11 66.85 67.28 67.55 69.06 68.29 67.68 67.77 66.68 66.62 66.53 67.03 65.25 65.67 65.46 64.64 63.74 64.20 64.20 64.12 63.86 64.34 64.17 63.68
66.09 66.07 66.49 66.78 67.37 67.66 68.08 68.31 66.76 67.19 67.27 67.68 68.25 68.02 67.36 66.75 66.14 64.90 64.75 64.41 63.19 62.85 62.44 62.45 62.94 63.10 63.81 63.69 63.36 63.46 63.05 63.70
65.80 65.98 66.03 66.51 66.56 66.81 67.07 67.49 67.42 67.36 67.33 67.90 68.22 68.38 67.24 65.97 64.72 64.85 64.36 63.18 62.86 61.77 61.88 61.37 61.73 62.37 62.70 63.44 62.89 63.01 63.63 63.73
66.77 66.00 66.09 66.32 66.02 66.09 66.12 66.72 66.92 66.63 66.95 67.42 68.20 68.27 66.83 65.65 64.43 64.43 64.52 63.15 62.41 62.29 61.06 60.96 61.25 61.77 61.80 62.68 62.90 63.07 63.62 63.62
66.77 66.88 66.81 66.38 66.25 65.80 65.82 66.34 66.61 66.12 66.54 67.52 68.11 67.68 65.22 64.64 64.50 64.40 64.52 63.45 61.74 61.38 60.20 60.62 61.40 61.31 61.42 62.46 62.69 62.90 63.06 63.30
66.68 68.11 67.23 66.74 66.41 66.31 66.21 66.23 66.11 66.38 66.47 67.12 67.66 67.21 64.89 63.83 63.64 64.21 64.45 63.34 61.53 60.94 60.70 60.54 61.45 61.75 61.01 61.69 62.22 62.45 62.84 62.95
60.89 67.59 67.23 67.39 66.87 66.61 66.56 65.98 66.16 66.07 66.29 66.49 66.97 66.54 64.92 64.11 63.15 63.82 63.61 63.05 62.15 60.91 61.29 61.03 60.45 60.80 61.06 61.45 61.74 61.95 62.30 63.06
53.38 65.42 67.48 67.64 67.48 66.40 65.95 65.52 65.95 66.00 66.13 66.18 65.82 66.22 64.88 64.18 63.01 63.11 63.07 62.68 62.59 62.31 61.18 61.35 60.69 60.54 60.99 60.81 61.14 61.55 62.14 62.23
52.04 61.06 66.63 67.16 66.79 65.88 65.30 64.96 65.46 65.31 65.80 66.07 65.32 65.71 64.70 64.20 63.73 63.45 63.34 62.19 62.31 62.53 61.70 60.56 59.96 60.46 59.56 59.39 60.21 60.99 61.19 61.72
50.22 59.64 65.05 66.67 67.00 66.81 66.22 65.70 65.44 65.47 65.64 65.57 65.69 64.99 64.56 64.55 63.96 63.22 63.34 62.53 61.96 62.18 61.51 60.59 60.46 60.62 58.30 57.04 54.48 55.53 58.56 60.42
48.55 57.47 63.00 66.17 67.04 66.63 63.28 62.81 63.29 63.73 64.11 65.04 65.48 65.08 64.50 64.21 64.12 63.82 63.52 63.39 62.25 62.18 61.69 60.56 59.26 60.59 60.40 57.21 53.39 51.96 54.54 57.66
48.38 53.48 62.16 65.28 66.57 65.71 64.02 63.61 62.98 64.04 64.41 64.90 65.62 65.44 64.84 64.62 63.83 63.67 63.55 63.41 62.44 62.10 62.26 61.25 60.27 58.52 60.03 59.95 57.41 55.86 53.25 51.56
54.12 50.93 60.26 64.22 66.04 65.72 64.45 63.42 63.64 62.77 63.81 63.58 64.43 64.54 64.32 64.48 63.91 63.53 63.27 63.23 62.52 61.93 61.62 61.05 60.96 59.73 59.06 58.32 57.69 56.68 56.12 53.86
54.33 58.62 61.32 64.54 65.74 65.35 64.14 63.41 62.53 62.44 62.92 63.04 63.25 63.34 63.79 63.79 63.69 63.56 63.24 62.99 62.31 62.09 62.02 61.35 60.75 60.38 60.01 59.00 57.86 55.28 54.20 54.26
50.15 58.41 63.03 64.50 65.34 65.10 64.59 63.61 62.29 61.98 62.43 62.95 62.56 62.35 62.25 62.75 63.09 62.59 62.48 62.86 62.48 62.21 61.77 61.39 60.75 59.99 59.71 59.03 58.91 57.36 57.05 56.35
46.01 49.09 53.13 65.01 64.98 64.65 64.50 62.62 61.82 61.98 61.92 62.75 61.76 61.75 62.55 62.64 62.62 62.61 62.66 62.32 62.12 62.16 61.79 61.51 61.08 60.47 59.64 59.68 58.77 58.16 56.89 56.34

GFSFLT2_sfc_wetblb_108.txt.gz
Wetbulb
69.46 69.66 70.38 69.89 69.62 69.67 69.51 69.96 70.36 70.65 70.94 71.24 71.64 71.08 71.03 71.38 71.54 71.49 71.36 70.71 70.91 70.51 69.74 69.38 69.46 68.64 68.00 66.81 66.32 66.59 65.74 65.71
68.58 69.45 68.99 68.95 69.35 68.65 68.86 69.33 69.46 69.69 70.18 70.25 69.83 69.73 70.25 70.44 70.19 70.45 70.45 70.53 70.34 69.72 69.11 68.97 68.70 67.54 67.08 66.14 65.87 66.27 65.01 65.42
67.82 67.97 68.61 67.80 68.86 69.06 69.37 69.76 69.22 69.17 69.76 69.28 68.13 69.71 69.37 69.73 69.50 69.18 69.59 69.35 69.14 69.07 68.51 68.08 67.39 66.85 66.61 66.03 65.94 64.92 64.64 64.93
66.58 66.96 67.81 68.56 68.86 69.19 69.69 69.91 69.91 69.89 69.84 69.56 69.15 68.04 68.00 69.42 68.72 67.95 67.98 67.75 68.27 68.13 67.66 67.01 66.77 64.77 65.61 66.20 64.88 64.84 64.55 64.39
65.12 66.32 67.21 67.18 67.70 68.14 68.85 69.19 68.74 68.27 68.83 69.21 69.37 68.36 67.05 67.88 67.75 67.98 66.80 67.39 67.03 67.10 66.42 66.13 64.71 63.99 63.88 63.61 64.03 63.71 64.16 65.12
64.14 64.89 65.89 66.31 66.80 67.52 67.31 67.81 67.50 67.02 67.28 67.80 68.34 67.89 67.66 66.89 66.50 65.42 65.60 65.58 64.12 64.98 64.77 63.50 63.55 63.92 63.84 63.35 63.26 63.52 63.50 64.18
65.04 64.69 65.54 65.63 66.43 66.87 66.91 66.96 67.74 67.17 66.72 66.59 67.48 68.05 67.78 67.57 66.39 65.72 64.77 63.54 63.42 62.74 62.31 62.47 61.85 62.74 63.21 63.17 62.90 63.01 63.06 63.71
66.05 65.42 65.28 65.72 66.10 65.53 66.16 66.90 67.38 66.95 66.52 66.21 66.92 68.11 67.70 67.06 65.76 65.75 63.93 63.78 62.81 62.48 62.15 62.02 61.89 61.80 61.81 62.26 62.24 63.06 63.58 63.38
64.71 65.87 65.72 65.23 65.71 64.62 65.09 65.78 66.43 66.52 66.22 65.50 66.68 67.35 67.37 66.54 65.64 65.46 65.20 62.53 61.43 60.91 59.90 60.00 60.15 61.09 61.08 61.39 62.08 63.15 63.30 63.04
57.37 66.39 65.56 65.43 65.38 65.32 64.84 64.84 65.04 65.12 65.59 66.27 67.12 66.98 66.83 65.98 65.35 65.05 65.12 63.29 61.43 60.94 60.21 59.86 60.08 60.95 61.13 60.51 61.15 62.30 62.53 62.84
50.86 63.12 65.60 65.53 65.54 65.38 64.83 65.06 65.29 65.63 65.52 65.63 66.24 66.71 66.39 65.53 65.29 64.83 64.45 63.13 62.30 61.45 59.90 60.15 60.14 60.53 61.40 61.71 62.13 62.09 62.47 63.02
47.91 56.41 65.50 66.01 66.25 65.67 65.60 65.17 65.13 65.47 65.65 65.48 65.89 66.30 66.01 65.80 64.48 64.16 63.78 62.93 62.09 61.46 60.59 61.48 61.08 60.89 61.21 60.74 61.53 61.95 62.32 62.43
46.76 48.04 57.51 65.74 65.94 65.33 65.18 63.98 64.95 65.02 65.41 65.61 65.94 66.14 65.63 65.31 64.27 63.55 63.09 62.38 62.14 61.78 61.64 60.46 59.70 60.79 59.40 59.20 60.01 61.11 61.47 61.82
45.02 46.84 49.46 64.07 64.95 66.05 65.81 65.63 65.65 65.90 65.76 65.60 65.51 65.70 65.39 64.98 64.21 63.41 62.81 62.47 62.36 62.17 61.54 60.30 60.29 60.28 57.57 57.53 54.98 56.61 59.78 61.10
48.30 45.84 50.47 61.36 64.76 66.20 65.31 65.29 64.66 64.14 64.23 64.83 65.24 65.38 65.07 64.96 64.62 63.87 63.23 62.79 62.18 62.34 62.04 60.90 59.36 60.00 60.42 56.97 53.67 52.68 54.82 57.86
50.26 53.16 49.59 60.95 65.00 65.36 64.43 63.38 62.47 63.58 64.17 64.65 64.98 65.09 65.07 65.16 64.76 64.03 63.40 63.44 62.64 62.30 62.58 61.61 60.31 58.83 59.50 60.05 57.38 56.39 53.58 52.01
47.29 49.90 53.22 56.66 64.26 64.88 64.70 63.53 63.39 63.55 64.52 63.99 64.32 64.62 64.97 64.76 64.58 64.27 63.66 63.45 63.14 62.63 62.09 61.69 61.01 60.10 59.38 59.02 58.75 56.45 56.45 54.04
45.41 50.23 55.02 54.76 63.40 64.72 64.36 63.31 62.48 62.03 63.49 63.36 63.28 64.34 64.29 64.47 64.10 63.94 63.89 63.46 63.21 62.65 62.18 61.78 61.16 60.76 60.40 59.28 58.59 57.01 55.00 54.89
44.26 46.94 51.51 59.10 62.40 64.38 64.12 63.18 62.46 62.15 62.79 63.13 62.73 62.66 63.35 63.53 63.50 63.46 63.29 63.40 63.09 62.71 61.93 61.71 61.17 60.69 60.29 59.73 59.54 58.86 58.35 56.60
41.80 44.66 47.04 50.79 61.76 64.32 64.65 63.15 61.95 62.11 62.67 62.98 62.88 62.11 63.02 63.08 62.99 63.00 63.22 63.27 62.97 62.52 62.11 61.73 61.64 61.07 60.56 60.17 59.80 59.44 59.22 57.62

GFSFLT2_sfc_wetblb_111.txt.gz
Wetbulb
71.86 71.38 71.18 69.95 69.77 69.86 69.36 69.93 70.29 70.75 71.18 71.43 71.83 71.30 71.11 71.66 71.81 71.68 71.83 71.31 71.08 70.63 70.18 69.80 69.66 69.02 68.23 67.14 66.73 67.65 70.96 70.47
71.36 70.73 70.88 72.15 72.73 68.82 68.84 69.07 69.42 69.92 70.42 70.33 70.02 70.20 70.44 70.75 70.68 71.16 71.20 70.66 70.49 70.11 69.40 69.31 68.97 68.12 67.34 66.58 66.40 66.71 70.84 70.46
69.78 70.02 70.15 71.58 72.33 71.69 69.67 69.50 69.20 69.27 70.22 69.57 69.13 73.26 73.07 72.47 70.86 69.62 69.96 69.76 69.44 69.24 68.75 68.26 67.54 67.27 66.89 66.29 66.31 70.06 70.44 70.31
67.76 68.41 68.82 70.50 70.85 71.47 72.22 71.61 71.81 71.95 72.07 72.45 72.65 72.73 72.75 72.05 70.56 68.08 68.46 68.26 68.21 68.16 67.96 67.36 67.63 69.92 69.41 66.84 69.58 69.96 69.82 69.76
66.84 67.00 68.27 69.15 69.52 69.23 69.98 70.68 70.54 70.58 70.87 71.20 71.81 71.37 72.08 72.03 72.13 71.54 72.00 69.05 70.85 69.27 69.20 69.77 70.02 69.73 69.58 69.70 69.79 69.66 69.40 69.41
68.11 68.32 67.18 67.90 68.40 68.39 69.03 69.63 69.54 68.92 69.26 69.99 70.15 69.06 69.86 70.70 71.00 71.51 71.27 71.21 71.12 70.44 70.28 69.95 69.90 69.40 69.27 69.01 69.19 69.28 69.28 68.81
67.70 68.36 68.24 67.21 67.02 67.48 68.18 68.26 68.36 68.37 68.73 69.28 69.27 68.32 68.55 69.24 70.01 70.65 71.01 70.68 69.99 69.80 69.34 69.30 69.08 68.70 68.70 68.55 68.43 68.68 68.53 68.62
69.39 68.12 68.42 68.15 66.78 66.75 67.38 67.76 68.04 68.01 69.30 70.27 69.34 68.98 68.54 68.72 68.35 69.33 69.79 69.80 69.41 69.33 68.48 68.37 68.47 68.35 68.01 68.36 68.11 68.38 68.28 68.29
64.49 68.83 68.67 67.89 67.91 67.85 67.31 68.07 67.98 67.62 69.37 70.94 70.38 70.59 69.85 68.43 68.01 67.50 68.63 68.58 68.69 68.29 68.16 68.32 68.02 67.64 67.66 67.68 67.75 67.85 67.77 67.17
57.03 64.14 68.52 68.24 68.38 68.51 68.45 68.32 68.75 68.77 69.50 69.92 70.45 70.50 69.94 68.70 67.11 67.24 68.19 67.15 67.37 67.14 66.94 66.72 66.73 66.69 66.50 66.49 66.96 67.12 66.86 66.33
55.22 58.03 65.65 68.16 68.59 68.62 68.51 68.44 68.38 68.76 69.16 69.06 69.48 69.89 68.41 68.09 67.32 66.56 66.98 66.24 65.64 66.10 66.14 66.46 65.35 65.16 65.39 65.84 66.14 65.07 64.92 65.63
53.83 55.50 59.33 66.76 68.31 68.75 68.22 67.85 68.21 68.45 68.06 67.53 67.84 67.84 66.99 67.51 67.28 66.15 66.00 65.05 64.45 63.98 64.35 64.84 65.45 65.35 64.05 64.47 64.96 64.00 65.76 64.58
50.97 52.65 55.76 62.03 65.48 65.56 64.95 64.03 65.40 66.91 66.91 67.28 67.16 67.13 66.69 66.81 67.16 65.28 65.44 64.54 64.06 63.26 63.54 62.89 62.64 63.53 61.92 61.57 62.42 63.92 63.38 63.48
54.63 54.58 52.19 54.60 63.56 66.40 66.50 65.66 65.58 66.76 66.24 66.29 66.58 66.65 66.47 65.91 65.99 64.88 64.82 64.52 63.61 63.01 62.70 61.77 62.30 62.69 60.80 60.13 57.75 60.23 62.55 63.65
51.34 53.24 55.34 56.38 56.13 64.49 67.20 67.41 67.26 65.01 64.99 65.49 65.33 66.13 66.20 65.73 65.66 65.18 64.53 64.40 63.29 63.29 63.02 62.29 60.60 61.31 62.73 60.33 56.45 55.41 58.31 61.49
49.70 50.77 52.12 55.13 57.70 59.66 65.25 64.29 63.00 64.10 65.11 65.86 65.51 65.75 65.91 65.76 65.06 64.91 64.31 64.13 64.12 63.61 63.59 63.10 62.79 59.83 60.82 61.43 63.47 61.65 57.30 55.12
45.66 48.08 51.00 54.68 57.40 59.77 65.34 65.32 65.75 66.21 66.63 66.48 65.53 65.20 65.53 65.16 65.15 64.62 64.04 64.44 64.66 63.56 63.30 63.20 63.53 61.94 60.67 60.38 61.32 60.65 59.49 56.87
42.93 44.83 47.70 53.09 58.08 58.83 64.76 65.69 65.15 65.49 65.87 64.66 64.62 65.06 64.52 64.88 64.78 64.42 64.38 64.00 64.24 63.43 63.81 63.56 62.50 62.33 61.92 61.88 60.22 58.74 56.81 56.86
40.83 43.22 44.39 48.40 53.23 58.28 64.53 66.02 66.39 65.99 65.65 65.44 64.34 63.78 63.59 63.90 64.57 63.91 63.93 63.89 64.20 64.31 63.61 63.17 62.84 61.98 62.07 61.67 61.46 61.15 59.94 58.55
38.72 42.22 42.84 46.15 49.64 55.70 63.88 64.05 64.24 65.74 66.19 65.86 65.35 64.84 64.07 64.40 64.26 64.28 64.17 64.05 63.93 64.15 63.72 63.08 63.02 62.31 62.37 61.91 61.46 61.07 60.74 59.34

GFSFLT2_sfc_wetblb_114.txt.gz
Wetbulb
74.18 72.85 72.67 70.22 70.01 70.00 69.66 70.28 70.87 71.21 71.55 71.96 72.07 71.63 71.29 71.97 72.21 72.20 72.07 71.28 71.15 71.16 70.47 70.05 70.14 69.58 68.91 67.74 67.29 68.11 71.32 71.32
74.38 72.61 73.50 73.97 73.85 69.34 69.11 69.26 69.80 70.23 70.70 70.80 70.51 70.53 70.79 71.22 71.04 71.45 71.31 70.81 70.83 70.56 69.87 69.51 69.42 68.64 67.81 67.18 66.80 67.58 71.75 70.83
72.39 71.87 71.95 73.39 74.28 72.68 69.70 69.76 69.69 69.58 70.80 70.08 69.98 73.84 73.87 73.41 71.31 70.08 70.56 69.89 69.93 69.67 69.11 68.66 68.17 67.79 67.38 66.75 66.73 70.86 70.96 70.61
71.15 71.55 70.99 71.73 73.20 74.17 73.61 73.21 72.81 72.92 72.93 73.38 73.64 73.63 73.50 72.86 71.12 68.82 68.39 68.28 68.73 68.57 68.19 67.61 68.01 70.86 70.18 67.62 70.64 70.30 70.34 70.13
71.26 70.78 71.54 71.46 72.80 71.85 72.46 72.48 73.04 73.18 73.63 73.62 73.38 72.82 73.23 73.15 73.02 72.60 73.09 69.75 72.05 69.86 70.08 70.93 70.65 70.46 70.21 70.26 70.21 70.50 70.08 70.05
71.25 71.79 71.39 72.07 71.68 70.31 71.00 72.75 71.65 71.59 72.56 73.64 73.06 72.15 72.92 72.34 72.60 72.49 72.20 72.78 71.92 71.28 70.60 70.50 70.42 70.41 70.32 70.21 70.33 70.15 69.02 70.42
70.29 71.36 71.34 71.33 71.24 70.70 70.14 71.51 71.85 72.28 71.59 71.38 72.89 72.31 71.33 71.60 72.20 72.08 72.26 71.66 72.06 71.02 70.58 69.89 69.49 69.57 69.98 70.11 69.82 69.97 69.45 70.06
62.10 69.55 71.27 71.33 70.87 71.17 70.87 71.46 71.83 70.94 70.45 70.73 71.39 72.13 71.52 70.25 71.58 71.91 71.87 71.44 71.60 71.20 70.81 70.35 69.70 69.70 68.89 69.00 69.37 69.85 69.73 69.69
59.01 63.05 69.30 71.14 70.87 70.76 70.87 70.79 70.77 70.38 69.42 71.39 70.58 70.75 71.76 70.24 69.91 71.25 71.26 72.04 71.30 71.16 70.21 69.92 68.85 69.09 68.47 68.21 69.44 69.15 68.99 68.94
57.30 58.38 62.84 69.38 70.66 70.50 70.30 70.44 70.63 70.34 70.12 71.80 72.07 69.89 70.90 70.41 69.50 69.74 71.27 71.40 70.70 70.27 69.28 68.70 68.70 68.00 67.98 67.51 67.76 68.33 68.38 68.62
56.18 57.81 59.06 65.55 69.04 70.51 71.06 70.76 70.43 70.47 70.53 70.94 71.55 71.79 71.85 71.31 70.15 69.32 70.52 69.24 69.59 69.55 69.16 68.66 67.56 66.86 66.90 67.21 67.99 67.32 68.03 67.73
57.86 57.22 57.74 59.82 65.81 69.03 69.17 69.95 70.66 70.61 70.35 70.75 71.49 71.77 71.72 71.52 70.46 70.41 69.26 67.46 67.66 68.84 68.49 68.46 68.29 67.09 66.70 66.57 67.31 67.86 68.12 67.70
57.87 58.63 59.93 57.48 57.84 63.44 65.06 66.83 68.27 69.71 70.46 70.69 70.98 71.83 71.56 70.64 69.79 69.53 67.68 66.71 66.98 67.93 67.52 66.99 67.19 68.01 65.72 65.12 66.30 66.22 66.22 66.58
55.31 55.89 57.18 58.66 58.83 58.24 64.93 66.44 67.36 68.10 70.25 71.04 71.06 70.49 70.65 70.59 69.77 68.50 67.21 66.48 66.04 66.48 66.06 64.47 64.93 66.20 62.94 62.58 60.00 62.58 64.95 65.78
51.81 53.38 54.83 55.99 57.80 60.23 58.97 65.38 66.82 66.70 68.31 69.45 70.38 69.89 70.13 70.56 69.43 67.84 66.64 66.80 64.88 65.22 65.90 64.67 62.50 63.85 66.41 63.49 59.89 58.22 61.05 64.39
49.46 50.95 52.05 53.89 56.10 57.59 58.83 59.68 62.58 65.74 66.50 67.87 68.90 70.35 69.35 69.30 68.76 67.91 66.78 66.49 65.26 65.06 65.74 65.88 64.58 61.48 63.29 65.67 65.57 63.77 58.77 57.88
45.94 47.88 48.96 51.58 54.30 56.11 58.33 58.49 64.73 65.73 67.40 67.17 67.80 67.95 67.45 67.65 67.73 67.81 66.56 66.75 65.44 64.98 65.04 65.31 65.17 63.77 62.22 62.64 64.42 64.33 63.30 59.68
43.58 44.37 45.87 47.21 49.14 53.19 56.53 59.86 61.56 64.51 65.61 66.39 67.35 67.15 65.86 66.09 66.26 66.58 66.74 66.16 65.35 64.86 65.13 65.57 65.08 64.64 63.36 65.21 63.93 62.26 61.47 60.13
39.50 39.76 40.52 42.56 45.68 48.81 52.92 58.20 61.45 65.37 65.39 66.93 66.65 65.02 64.47 65.00 65.42 65.29 65.44 65.80 65.70 64.82 64.38 64.93 64.75 63.67 65.22 64.90 65.34 63.70 63.08 62.69
38.17 37.22 37.56 40.10 43.57 46.48 50.13 56.56 62.40 65.40 66.53 66.43 67.07 65.51 65.21 65.28 65.61 65.42 65.50 65.74 65.50 65.46 64.60 64.19 64.42 64.55 65.47 65.64 65.35 64.50 64.87 64.10

GFSFLT2_sfc_wetblb_117.txt.gz
Wetbulb
75.38 74.01 72.59 70.72 70.30 70.21 70.10 71.11 71.56 71.90 72.01 72.20 72.48 71.98 71.62 72.05 72.29 72.47 72.80 72.46 72.12 71.49 70.71 70.40 70.30 69.94 69.49 68.33 67.88 68.17 70.46 70.57
75.68 74.24 73.97 73.28 72.98 69.63 69.47 70.05 70.39 71.00 71.27 71.38 70.87 71.07 71.10 71.35 71.37 71.91 72.05 71.15 71.12 70.85 70.16 69.78 69.83 69.13 68.35 67.77 67.45 68.13 70.91 69.79
74.92 73.68 73.58 74.13 73.57 72.36 69.91 70.07 70.14 70.26 71.26 70.72 70.40 74.08 73.80 73.26 71.39 70.43 70.58 70.07 70.08 70.00 69.53 69.16 68.66 68.35 67.99 67.39 67.52 70.14 69.09 69.85
72.48 72.95 72.81 74.86 73.63 73.94 72.78 72.49 72.11 72.51 72.81 73.55 73.84 73.52 73.66 72.46 71.04 69.62 69.40 69.00 69.02 69.00 68.62 68.24 68.19 70.41 69.95 67.64 70.30 69.67 68.53 69.42
71.98 71.85 72.35 72.57 73.90 74.00 72.96 72.96 72.49 72.62 72.96 73.43 73.09 73.20 73.94 72.61 73.25 72.41 72.75 69.59 71.82 70.11 69.71 70.30 70.11 69.92 69.61 69.69 69.41 69.45 68.43 68.15
72.17 72.54 71.97 72.33 73.80 72.93 72.93 72.62 73.08 72.71 73.02 75.07 73.82 73.20 73.53 73.10 72.12 72.29 72.65 72.35 71.86 71.47 70.47 70.44 70.95 71.02 70.06 69.20 69.65 69.17 68.93 68.93
68.65 72.17 72.40 72.47 72.63 72.68 72.48 72.97 72.20 72.86 72.96 74.45 73.68 72.34 73.50 72.97 72.33 72.56 71.89 72.12 71.79 71.61 70.18 70.30 69.76 69.93 70.21 69.72 69.33 69.57 69.30 68.81
60.95 64.13 72.09 72.02 72.32 72.95 72.83 72.98 73.09 72.73 72.58 72.92 74.78 73.56 73.09 72.24 72.40 71.28 72.24 71.81 71.00 71.88 70.87 69.26 69.51 69.44 69.49 69.55 69.44 69.27 68.84 69.11
59.25 61.32 64.22 70.25 71.39 71.88 72.01 71.72 72.09 72.36 72.08 73.80 71.76 73.84 74.11 72.90 71.53 71.67 70.91 71.98 71.91 72.20 71.67 70.48 69.19 69.67 69.23 69.30 69.08 69.30 69.07 69.13
57.99 58.33 60.58 63.75 68.63 70.41 71.26 71.57 72.07 71.87 72.33 71.72 72.42 71.07 73.17 72.76 70.59 71.59 72.30 72.22 71.88 70.69 70.19 69.80 68.10 67.65 68.24 68.79 68.44 68.98 68.92 68.92
58.33 60.01 59.84 61.14 63.75 68.59 70.49 71.82 71.78 71.34 71.61 71.53 72.26 72.18 72.62 72.69 70.90 70.42 72.98 72.00 71.68 70.41 69.14 69.40 68.89 68.70 67.97 67.77 68.41 68.22 68.33 67.53
58.86 59.59 61.11 61.63 60.34 63.48 67.40 69.41 70.75 71.46 71.43 70.96 71.48 72.89 72.52 71.96 71.17 71.21 71.03 70.97 70.91 71.03 69.63 69.18 68.27 67.97 66.65 66.98 68.36 67.74 68.14 67.61
56.47 57.40 58.96 59.77 60.63 58.24 61.29 66.73 68.78 70.49 70.70 71.81 70.99 72.15 73.06 72.14 71.75 71.69 70.98 69.23 68.98 70.07 69.80 68.85 67.56 68.77 66.84 66.78 66.77 67.51 67.38 67.47
54.27 54.63 55.84 57.11 58.40 59.93 60.08 61.89 66.53 69.61 70.66 71.10 72.17 72.49 72.73 72.51 72.24 71.64 71.33 69.07 67.27 67.79 67.99 67.88 69.01 69.55 65.50 64.23 60.50 62.96 65.89 66.91
51.08 52.28 53.34 54.98 56.21 57.36 58.64 61.43 61.07 66.72 68.54 69.27 70.66 71.87 72.35 72.49 72.32 72.01 71.37 69.98 68.39 66.86 66.68 66.16 64.76 67.93 68.71 63.67 59.96 58.43 62.46 65.23
50.50 50.37 50.64 52.23 54.28 54.55 56.08 56.75 58.02 62.91 67.65 68.68 68.98 71.19 71.60 72.39 72.49 72.02 71.40 69.86 68.20 66.69 66.70 66.02 64.97 63.02 65.71 66.76 66.65 64.55 60.47 59.18
47.45 47.78 48.32 50.13 51.54 52.11 53.25 55.37 58.08 60.92 62.29 67.86 68.36 69.90 70.54 71.59 71.82 71.32 70.58 69.41 68.62 67.73 66.18 65.60 65.45 64.05 63.35 65.01 66.40 66.06 65.71 62.02
44.11 44.77 46.12 47.65 48.45 49.05 49.66 51.86 55.27 57.93 61.01 63.72 65.99 67.76 68.94 70.70 70.36 70.21 69.23 68.38 68.23 68.17 66.88 65.59 65.37 64.48 64.37 64.53 64.04 63.59 63.10 61.74
40.01 40.63 41.37 43.75 45.10 46.03 46.55 48.29 51.82 55.32 57.99 61.32 65.49 66.19 67.17 68.50 68.60 67.49 68.33 68.14 67.66 67.90 65.60 65.24 65.28 64.38 63.88 63.63 66.36 65.50 65.87 63.82
36.60 36.69 37.88 40.24 41.17 42.19 43.66 45.56 48.56 53.44 57.76 61.25 61.67 66.88 67.95 68.80 68.38 66.70 66.41 68.27 67.00 66.48 65.52 65.22 65.11 64.76 64.16 64.52 65.77 66.82 66.48 64.69

GFSFLT2_sfc_wetblb_120.txt.gz
Wetbulb
74.28 72.59 71.65 70.91 70.46 70.65 70.68 71.37 71.75 71.88 71.98 72.06 72.39 71.97 71.90 72.12 72.18 72.36 72.66 72.68 72.40 71.52 70.73 70.31 70.34 70.02 69.67 68.80 67.95 68.33 67.79 68.98
74.83 73.80 72.36 71.80 71.37 69.97 70.00 70.61 70.88 71.15 71.52 71.50 71.01 71.19 71.22 71.55 71.55 71.73 71.30 71.89 71.71 70.87 70.11 69.89 69.81 69.45 68.85 67.89 67.37 67.86 67.66 67.82
75.42 73.58 72.91 72.16 71.51 70.98 70.04 70.86 70.85 70.68 71.41 70.83 69.58 72.37 71.85 71.60 71.02 70.46 71.30 69.43 70.39 70.09 69.54 69.23 68.91 68.65 68.09 67.66 67.39 68.13 67.18 67.16
73.43 73.30 72.84 73.06 71.94 71.52 70.89 71.04 71.30 71.89 72.31 71.98 72.44 72.42 72.25 71.87 70.67 69.30 69.72 68.60 69.20 69.18 68.87 68.38 68.11 68.61 67.62 67.23 67.74 68.11 67.46 66.40
72.39 72.38 71.66 73.04 72.46 71.96 70.64 70.84 70.38 71.04 71.73 72.09 72.18 72.03 71.95 70.63 70.62 70.05 70.30 68.85 69.82 68.94 68.40 68.70 68.62 68.20 68.17 67.87 67.69 67.59 66.53 66.87
71.72 72.09 71.12 71.34 72.94 72.49 71.48 70.77 70.66 70.31 70.61 71.65 71.09 71.28 71.09 70.00 70.48 70.46 70.42 70.06 69.93 69.48 68.74 68.15 67.97 68.10 68.18 67.28 66.92 66.33 66.53 67.08
68.41 71.60 71.04 70.95 71.22 70.96 71.36 70.60 70.65 71.06 70.94 71.43 71.58 70.31 70.49 70.85 70.02 70.63 70.06 70.30 69.63 69.29 68.68 68.00 67.62 67.79 68.17 68.07 67.55 67.22 67.46 66.47
60.95 63.13 70.64 70.94 70.48 69.77 71.07 70.83 71.24 71.34 71.15 71.37 71.59 71.04 70.49 70.26 70.01 70.30 69.94 69.96 70.07 69.46 68.87 68.10 67.54 67.86 67.60 67.45 66.85 66.87 67.16 66.73
61.38 61.32 62.52 67.16 69.80 69.52 70.28 70.50 70.46 70.40 70.33 71.75 71.43 71.32 71.00 70.73 70.18 69.21 69.80 69.94 69.77 68.86 69.35 68.42 68.04 67.86 67.30 66.97 67.38 67.50 67.04 66.43
58.73 60.31 60.10 61.09 62.62 68.79 68.68 69.55 69.65 69.94 70.69 70.51 71.03 71.34 71.51 69.86 69.22 69.42 70.25 69.22 69.44 68.54 68.29 67.72 66.92 67.02 66.59 66.35 66.41 67.29 66.67 66.39
56.81 57.98 58.62 60.34 60.84 61.05 62.83 68.69 68.54 69.49 70.07 70.07 71.01 70.59 70.28 70.60 69.75 69.01 69.66 69.52 69.05 68.76 68.12 67.93 66.74 66.23 66.41 66.85 66.80 65.90 65.66 66.69
55.06 56.01 56.96 57.91 58.82 60.31 59.63 60.18 68.50 69.39 69.53 69.19 70.02 70.40 69.66 69.30 70.20 69.09 68.81 68.62 68.44 68.35 67.74 67.64 67.46 66.45 66.31 65.94 65.63 65.67 66.15 65.32
52.64 52.86 54.18 54.96 55.42 56.11 57.51 57.60 60.96 67.73 69.10 69.54 69.34 69.40 69.78 69.17 69.22 69.09 68.57 67.41 67.85 68.42 67.51 66.55 66.27 66.57 65.14 64.17 65.12 65.05 65.18 65.04
50.14 51.34 51.95 52.36 53.06 54.46 55.20 55.81 57.49 59.42 66.71 68.98 69.40 69.17 69.45 69.59 69.00 68.54 68.39 67.11 67.00 67.95 67.80 65.92 65.96 66.53 63.43 62.73 60.48 61.98 64.00 64.81
48.12 49.25 49.82 50.45 51.09 52.03 53.50 54.95 56.28 57.10 58.66 63.20 68.45 69.15 68.81 69.93 69.37 68.42 68.37 68.05 66.72 67.23 67.10 66.44 64.45 65.67 65.27 61.85 58.33 56.57 59.55 62.97
45.88 46.21 46.42 47.95 49.21 49.24 50.31 50.80 51.71 54.92 56.76 59.90 66.17 68.39 68.83 69.25 69.52 69.32 68.71 68.77 67.50 66.99 66.82 65.87 65.42 64.17 65.25 65.07 63.07 61.20 56.13 56.70
42.24 43.06 43.12 44.01 46.04 47.44 47.14 47.87 50.30 53.35 55.34 57.07 59.60 63.54 67.31 68.48 67.89 68.62 68.82 68.26 68.10 66.82 65.88 65.27 65.81 64.40 64.60 63.51 63.48 63.13 61.89 58.73
38.88 38.94 39.87 40.75 41.93 43.57 44.28 44.86 46.03 47.61 50.50 53.15 56.20 59.88 64.04 66.66 67.11 67.74 68.51 67.88 66.62 66.88 65.71 65.27 64.92 64.82 64.38 64.15 62.88 62.00 61.13 60.22
36.52 36.29 35.99 37.58 38.50 39.95 41.38 42.17 43.40 44.71 46.62 50.07 53.25 56.17 59.88 63.64 65.88 66.59 67.70 68.04 67.12 67.12 65.61 64.96 64.93 63.94 64.15 63.40 63.73 63.20 63.33 62.09
33.95 33.86 33.95 34.92 36.35 37.49 39.03 39.95 41.19 42.88 45.06 47.93 51.46 54.98 58.36 62.40 64.22 65.21 66.87 67.18 67.36 66.92 66.43 65.67 64.89 64.25 63.81 63.59 63.38 63.29 63.40 62.72

GFSFLT2_sfc_wetblb_123.txt.gz
Wetbulb
69.87 70.43 71.10 70.77 70.65 70.74 70.54 70.96 71.29 71.40 71.65 71.85 72.03 71.81 71.54 71.63 71.94 72.12 72.29 71.99 71.73 71.31 70.48 70.08 69.92 69.79 69.50 68.55 67.59 67.83 67.20 67.07
70.40 70.02 70.11 69.30 69.71 69.68 70.07 70.34 70.38 70.76 71.07 70.94 70.58 70.79 71.00 71.03 71.03 71.48 71.59 71.47 71.05 70.53 69.75 69.46 69.48 69.17 68.52 67.81 67.23 67.57 67.02 66.82
70.80 70.05 69.80 69.25 69.07 70.06 70.18 70.65 70.36 70.29 70.65 70.38 69.19 71.06 70.83 70.88 70.43 70.37 70.66 70.11 70.22 69.74 69.08 68.82 68.57 68.46 68.13 67.48 67.01 66.92 66.97 66.83
70.54 70.31 69.57 69.44 70.45 68.79 68.78 70.17 70.43 70.70 70.88 70.91 70.59 70.49 70.43 70.99 70.11 69.02 69.59 68.67 69.05 68.91 68.44 68.04 67.86 67.29 66.75 67.37 66.57 67.09 65.95 66.38
70.31 70.37 70.21 70.79 69.45 68.39 68.54 68.53 69.28 70.00 70.25 70.27 70.52 70.75 70.47 70.31 69.94 69.46 69.46 68.60 68.58 68.35 67.81 67.70 67.50 67.05 66.89 66.25 66.78 66.60 65.57 66.08
69.89 70.08 69.46 68.99 69.77 69.69 68.31 68.55 68.20 68.98 69.83 70.51 70.33 70.04 69.70 69.28 69.00 68.69 68.96 68.67 68.08 67.97 67.18 67.20 66.89 67.12 66.84 66.65 66.40 65.76 64.95 65.46
67.80 69.01 68.84 69.31 69.65 68.15 69.46 68.84 68.41 68.97 68.86 70.29 70.41 69.28 68.10 68.23 68.41 68.75 69.04 68.80 68.80 67.90 67.34 67.09 66.85 66.51 66.80 65.80 66.03 65.02 66.05 66.40
56.11 57.58 61.61 67.12 67.14 66.42 67.18 68.33 69.36 68.47 68.95 69.72 70.18 69.52 68.36 68.65 66.88 68.80 68.76 69.01 68.74 68.55 67.48 66.67 66.27 65.96 66.00 66.06 64.74 65.28 65.66 65.60
54.57 55.83 56.71 57.05 58.27 62.65 66.65 67.23 68.35 67.95 69.30 69.53 69.92 69.95 68.89 68.86 68.13 68.04 68.65 68.89 68.52 68.18 67.81 66.87 65.82 65.82 65.60 65.50 65.39 65.10 64.83 65.96
52.99 54.54 53.79 54.03 54.56 56.48 59.15 62.45 65.68 67.71 68.18 69.07 70.18 69.97 69.67 68.42 68.48 67.58 68.58 68.48 68.36 67.62 67.41 66.47 65.95 65.69 64.65 66.06 65.32 65.42 65.33 64.81
50.06 51.06 51.29 51.82 52.81 54.35 55.64 57.26 60.84 65.34 67.36 68.08 68.71 69.31 69.47 68.33 68.53 68.17 67.59 67.77 67.53 67.54 66.86 66.83 65.69 64.97 64.98 65.59 64.73 64.51 64.63 65.24
47.91 49.33 50.22 50.74 51.29 51.71 52.91 54.07 55.62 58.25 64.74 66.84 67.59 68.57 69.26 68.66 67.93 66.45 67.34 66.33 66.38 67.03 66.06 66.74 66.04 65.29 65.41 65.19 64.65 64.68 64.62 63.93
45.50 45.90 47.23 48.26 48.41 48.22 48.34 49.05 51.59 53.24 56.19 59.33 66.82 67.49 68.30 67.89 68.15 66.69 66.63 66.47 66.71 66.04 66.18 65.56 65.14 65.46 63.09 61.28 62.28 64.16 64.03 64.13
42.39 42.76 43.39 44.19 45.72 46.75 47.65 48.36 50.36 52.30 54.57 56.49 58.21 63.39 67.51 67.92 66.73 66.90 67.66 66.37 65.42 66.02 66.04 65.16 64.89 65.44 62.01 61.06 58.71 60.58 63.09 63.82
39.30 39.49 40.22 41.35 42.59 43.42 45.13 47.15 48.03 49.02 51.18 53.42 56.13 59.38 64.76 66.97 66.88 66.73 67.09 67.02 65.20 65.94 66.52 65.41 63.69 64.52 63.61 60.17 56.40 55.64 58.28 61.31
36.99 37.54 37.50 39.34 40.09 39.40 39.34 40.57 42.69 46.01 47.70 50.43 51.85 55.06 58.28 62.96 66.89 67.06 66.42 66.99 66.53 64.78 66.95 66.52 64.76 63.08 63.86 63.84 59.82 58.71 55.74 54.83
34.95 35.38 36.47 36.78 36.76 37.43 36.98 37.67 41.84 44.03 45.27 45.97 48.09 51.19 55.23 59.13 62.76 66.06 66.79 66.26 67.19 66.00 65.08 66.16 65.29 64.13 63.87 63.26 61.53 59.19 59.26 56.50
32.82 33.34 34.01 34.95 35.50 35.53 35.34 35.57 38.20 40.22 42.01 42.29 44.39 47.32 50.89 55.25 58.66 62.43 65.43 66.60 66.06 66.82 66.44 66.21 65.54 64.20 64.53 63.97 63.13 61.06 59.43 57.36
32.19 32.98 32.67 33.38 33.21 33.43 34.20 35.83 36.99 37.93 39.25 41.31 42.34 44.44 47.46 51.17 56.32 58.78 62.98 64.50 65.93 66.57 65.47 64.93 64.40 63.39 63.51 64.32 64.33 63.36 62.93 61.32
32.13 32.27 32.36 32.62 32.52 32.58 34.04 35.31 36.41 37.58 39.12 40.53 41.95 43.51 45.58 48.78 51.68 55.62 60.28 63.13 64.25 65.20 65.09 63.48 60.88 61.38 62.93 64.01 63.63 63.84 63.17 62.45

GFSFLT2_sfc_wetblb_129.txt.gz
Wetbulb
68.66 68.95 70.41 70.05 69.78 70.01 69.90 70.33 70.57 70.81 70.94 71.01 71.55 71.01 70.69 71.10 71.45 71.74 71.66 71.58 71.66 71.04 70.18 69.78 69.81 69.63 69.09 67.78 66.61 66.47 61.14 63.50
67.64 67.40 68.25 68.75 69.36 68.79 69.20 69.61 69.72 69.96 70.28 70.10 69.92 69.94 70.16 70.35 70.49 71.05 71.31 71.20 70.98 70.62 69.72 69.25 69.14 68.76 68.14 67.15 66.54 66.72 63.80 64.59
66.81 66.95 67.73 67.89 68.43 69.85 69.56 69.94 69.47 69.11 69.58 69.45 68.02 69.92 69.72 69.76 69.53 69.53 70.27 69.94 70.00 69.68 69.08 68.47 68.05 67.94 67.82 67.08 66.66 65.93 65.51 65.27
67.28 66.74 66.68 67.33 69.13 68.34 68.52 69.38 70.41 70.10 69.83 69.11 70.48 70.54 68.88 69.71 69.06 68.18 68.90 68.77 69.00 68.75 68.14 67.67 67.44 66.76 66.64 66.81 65.54 65.59 65.17 65.01
56.52 60.64 65.88 67.08 67.91 67.71 67.32 67.73 69.69 69.35 69.79 70.23 70.43 69.72 69.64 69.04 68.38 68.32 68.23 68.23 68.97 67.96 66.81 66.69 66.38 66.24 65.76 65.54 64.89 64.89 64.55 64.83
52.86 53.97 55.36 57.26 58.68 60.77 66.12 67.71 68.43 68.13 68.71 69.11 69.04 68.88 68.72 68.83 68.89 69.05 69.08 69.31 68.71 68.65 67.62 67.06 65.70 65.84 65.55 65.23 64.91 64.46 64.03 64.30
50.69 50.78 51.21 53.41 54.43 56.18 57.68 59.31 62.01 66.77 68.41 68.93 69.00 68.52 68.35 68.40 68.49 68.48 68.67 69.01 68.26 67.51 67.39 66.77 65.97 65.29 65.14 65.10 64.78 64.36 64.23 64.37
48.80 48.87 48.81 50.16 50.62 52.30 54.15 56.51 59.26 61.51 63.36 64.90 67.64 68.05 67.71 68.35 68.16 68.57 68.00 68.60 68.06 67.29 66.60 65.94 65.57 65.77 64.91 65.07 64.72 64.26 63.87 64.10
44.29 45.34 44.59 45.68 47.93 49.15 51.11 52.88 55.68 56.91 59.19 60.37 60.91 61.41 66.07 67.40 67.79 68.05 67.84 68.66 68.09 67.34 66.63 66.50 65.23 65.58 64.60 64.80 65.05 64.02 63.59 63.97
41.24 42.89 41.39 41.89 43.43 45.56 47.47 49.29 50.75 52.22 53.81 56.31 59.19 59.90 60.08 60.17 66.66 66.95 67.46 67.78 67.58 67.26 66.23 65.38 65.01 64.73 64.35 63.87 64.75 64.01 63.74 63.74
37.77 38.84 38.62 39.02 40.62 42.32 43.56 46.05 47.26 48.66 50.23 52.76 54.35 56.02 58.91 59.83 64.09 65.27 65.35 66.21 66.86 66.88 66.34 65.65 64.72 64.26 64.22 63.63 63.86 63.92 63.46 64.31
36.54 36.84 37.02 37.37 38.70 39.53 40.64 42.94 42.92 44.66 47.18 48.60 51.29 53.87 56.84 58.72 60.15 60.00 62.60 62.53 65.65 66.52 66.07 66.00 65.47 64.55 64.04 63.41 63.29 63.77 63.28 63.57
34.24 34.20 34.89 35.46 36.32 35.04 36.36 37.26 37.69 41.63 42.16 45.53 48.98 51.17 53.46 54.61 57.17 57.81 56.69 62.11 63.02 64.72 65.72 65.37 64.68 64.58 61.42 61.24 60.72 61.55 61.80 63.22
33.19 32.99 33.54 34.22 35.08 34.49 35.11 35.52 37.05 38.39 41.13 43.57 45.00 47.74 48.84 48.46 50.30 53.25 56.15 59.84 62.11 62.39 64.20 63.65 64.38 64.69 61.43 60.72 58.81 60.73 61.73 62.76
32.33 32.73 33.02 33.68 34.49 34.25 34.08 34.46 35.41 35.92 36.84 37.40 40.43 42.70 44.48 47.63 48.93 50.41 54.06 57.17 60.76 60.47 62.11 63.31 61.70 63.87 63.80 59.92 56.74 56.92 59.62 60.93
32.26 32.96 32.95 34.09 34.17 32.73 31.62 30.63 30.24 32.89 33.86 35.72 37.30 40.31 42.32 44.71 46.19 46.90 50.03 53.55 56.22 60.66 61.54 60.28 61.69 61.16 62.63 63.14 61.79 59.84 57.06 55.89
32.78 34.15 33.19 33.45 32.96 32.67 31.97 30.97 31.82 32.68 33.50 33.90 35.72 37.75 39.89 41.99 44.55 46.54 47.91 51.44 54.92 58.56 60.54 59.76 60.30 61.40 61.96 61.12 61.72 60.76 59.08 56.46
32.85 33.73 31.73 33.16 33.02 32.97 32.40 31.66 31.91 32.65 33.69 33.87 34.53 36.60 38.63 40.14 41.82 43.47 46.55 50.24 53.39 57.47 58.98 61.29 61.34 62.18 62.38 62.09 61.03 59.61 58.34 57.52
31.70 31.75 30.94 32.05 32.10 32.24 32.36 32.48 33.55 34.50 35.02 35.54 36.23 37.54 39.02 40.30 41.07 42.16 43.38 45.31 47.75 48.71 50.62 56.53 60.78 61.85 61.79 61.79 62.35 62.03 61.25 59.85
30.60 30.74 30.64 31.38 32.11 32.31 33.43 34.41 35.11 35.86 37.00 37.78 38.05 38.46 39.53 41.04 42.00 42.63 42.78 43.90 45.11 47.01 49.17 51.61 55.93 60.81 61.59 62.13 61.70 62.27 61.24 61.01